Time,TemperatureF,DewpointF,PressureIn,WindDirection,WindDirectionDegrees,WindSpeedMPH,WindSpeedGustMPH,Humidity,HourlyPrecipIn,Conditions,Clouds,dailyrainin,SoftwareType,DateUTC
2013-06-16 00:00:00,77.9,67.8,30.10,SE,124,14.0,15.0,71,0.00,,CLR,0.00,VWS V14.01,2013-06-16 04:00:00,
2013-06-16 00:01:00,77.9,67.3,30.10,SE,134,13.0,14.0,70,0.00,,CLR,0.00,VWS V14.01,2013-06-16 04:01:00,
2013-06-16 00:02:00,77.9,67.3,30.10,SE,130,13.0,14.0,70,0.00,,BKN027,0.00,VWS V14.01,2013-06-16 04:02:00,
2013-06-16 00:03:00,77.9,66.9,30.10,ESE,112,11.0,13.0,69,0.00,,BKN027,0.00,VWS V14.01,2013-06-16 04:03:00,
2013-06-16 00:04:00,77.7,67.1,30.10,ESE,120,10.0,12.0,70,0.00,,BKN027,0.00,VWS V14.01,2013-06-16 04:04:00,
2013-06-16 00:05:00,77.9,66.9,30.10,ESE,123,12.0,13.0,69,0.00,,BKN027,0.00,VWS V14.01,2013-06-16 04:05:00,
2013-06-16 00:06:00,77.9,67.3,30.10,ESE,118,13.0,14.0,70,0.00,,CLR,0.00,VWS V14.01,2013-06-16 04:06:00,
2013-06-16 00:07:00,77.9,67.8,30.10,ESE,106,10.0,14.0,71,0.00,,BKN027,0.00,VWS V14.01,2013-06-16 04:07:00,
2013-06-16 00:08:00,77.9,67.3,30.10,ESE,115,13.0,13.0,70,0.00,,BKN027,0.00,VWS V14.01,2013-06-16 04:08:00,
2013-06-16 00:09:00,77.9,67.8,30.10,SE,124,13.0,14.0,71,0.00,,BKN027,0.00,VWS V14.01,2013-06-16 04:09:00,
2013-06-16 00:10:00,77.9,67.8,30.10,ESE,117,13.0,13.0,71,0.00,,BKN027,0.00,VWS V14.01,2013-06-16 04:10:00,
2013-06-16 00:11:00,77.9,67.8,30.10,ESE,121,12.0,12.0,71,0.00,,CLR,0.00,VWS V14.01,2013-06-16 04:11:00,
2013-06-16 00:12:00,77.9,68.2,30.10,ESE,122,12.0,12.0,72,0.00,,BKN027,0.00,VWS V14.01,2013-06-16 04:12:00,
2013-06-16 00:13:00,77.9,67.8,30.10,SE,126,12.0,14.0,71,0.00,,BKN027,0.00,VWS V14.01,2013-06-16 04:13:00,
2013-06-16 00:14:00,77.9,67.3,30.10,SE,128,12.0,15.0,70,0.00,,BKN027,0.00,VWS V14.01,2013-06-16 04:14:00,
2013-06-16 00:15:00,77.9,68.2,30.10,SE,126,14.0,14.0,72,0.00,,BKN027,0.00,VWS V14.01,2013-06-16 04:15:00,
2013-06-16 00:16:00,77.7,66.7,30.11,ESE,118,10.0,12.0,69,0.00,,CLR,0.00,VWS V14.01,2013-06-16 04:16:00,
2013-06-16 00:17:00,77.7,66.7,30.10,SE,126,11.0,12.0,69,0.00,,BKN027,0.00,VWS V14.01,2013-06-16 04:17:00,
2013-06-16 00:18:00,77.7,67.1,30.10,ESE,123,14.0,14.0,70,0.00,,BKN027,0.00,VWS V14.01,2013-06-16 04:18:00,
2013-06-16 00:19:00,77.7,67.6,30.10,SE,130,10.0,14.0,71,0.00,,BKN027,0.00,VWS V14.01,2013-06-16 04:19:00,
2013-06-16 00:20:00,77.9,69.3,30.11,ESE,113,10.0,10.0,75,0.00,,BKN027,0.00,VWS V14.01,2013-06-16 04:20:00,
2013-06-16 00:21:00,77.9,67.8,30.11,SE,130,14.0,14.0,71,0.00,,CLR,0.00,VWS V14.01,2013-06-16 04:21:00,
2013-06-16 00:22:00,77.9,67.8,30.11,SE,131,13.0,14.0,71,0.00,,BKN027,0.00,VWS V14.01,2013-06-16 04:22:00,
2013-06-16 00:23:00,77.7,67.1,30.11,SE,126,11.0,13.0,70,0.00,,BKN027,0.00,VWS V14.01,2013-06-16 04:23:00,
2013-06-16 00:24:00,77.9,67.8,30.11,ESE,119,11.0,13.0,71,0.00,,BKN027,0.00,VWS V14.01,2013-06-16 04:24:00,
2013-06-16 00:25:00,77.9,67.3,30.11,SE,126,12.0,12.0,70,0.00,,BKN027,0.00,VWS V14.01,2013-06-16 04:25:00,
2013-06-16 00:26:00,77.9,67.3,30.11,SE,132,14.0,14.0,70,0.00,,CLR,0.00,VWS V14.01,2013-06-16 04:26:00,
2013-06-16 00:27:00,77.9,67.3,30.11,ESE,117,11.0,14.0,70,0.00,,BKN027,0.00,VWS V14.01,2013-06-16 04:27:00,
2013-06-16 00:28:00,77.9,66.9,30.11,SE,130,10.0,12.0,69,0.00,,BKN027,0.00,VWS V14.01,2013-06-16 04:28:00,
2013-06-16 00:29:00,77.9,67.8,30.11,SE,124,10.0,15.0,71,0.00,,BKN027,0.00,VWS V14.01,2013-06-16 04:29:00,
2013-06-16 00:30:00,77.9,67.8,30.11,ESE,111,12.0,14.0,71,0.00,,BKN027,0.00,VWS V14.01,2013-06-16 04:30:00,
2013-06-16 00:31:00,77.9,68.2,30.11,SE,124,12.0,12.0,72,0.00,,CLR,0.00,VWS V14.01,2013-06-16 04:31:00,
2013-06-16 00:32:00,77.9,68.2,30.11,ESE,113,14.0,14.0,72,0.00,,BKN027,0.00,VWS V14.01,2013-06-16 04:32:00,
2013-06-16 00:33:00,77.9,67.8,30.11,SE,126,13.0,14.0,71,0.00,,BKN027,0.00,VWS V14.01,2013-06-16 04:33:00,
2013-06-16 00:34:00,77.7,67.6,30.11,ESE,120,12.0,13.0,71,0.00,,BKN027,0.00,VWS V14.01,2013-06-16 04:34:00,
2013-06-16 00:35:00,77.9,66.9,30.11,SE,135,11.0,12.0,69,0.00,,BKN027,0.00,VWS V14.01,2013-06-16 04:35:00,
2013-06-16 00:36:00,77.7,67.1,30.11,SE,124,11.0,12.0,70,0.00,,CLR,0.00,VWS V14.01,2013-06-16 04:36:00,
2013-06-16 00:37:00,77.7,67.1,30.11,ESE,115,11.0,12.0,70,0.00,,BKN027,0.00,VWS V14.01,2013-06-16 04:37:00,
2013-06-16 00:38:00,77.7,67.1,30.11,ESE,123,12.0,12.0,70,0.00,,BKN027,0.00,VWS V14.01,2013-06-16 04:38:00,
2013-06-16 00:39:00,77.7,67.1,30.11,SE,130,10.0,12.0,70,0.00,,BKN027,0.00,VWS V14.01,2013-06-16 04:39:00,
2013-06-16 00:40:00,77.7,66.7,30.11,ESE,119,8.0,11.0,69,0.00,,BKN027,0.00,VWS V14.01,2013-06-16 04:40:00,
2013-06-16 00:41:00,77.9,68.2,30.11,SE,126,13.0,13.0,72,0.00,,CLR,0.00,VWS V14.01,2013-06-16 04:41:00,
2013-06-16 00:42:00,77.9,68.2,30.11,SE,128,12.0,13.0,72,0.00,,BKN027,0.00,VWS V14.01,2013-06-16 04:42:00,
2013-06-16 00:43:00,77.9,67.3,30.11,SE,129,10.0,12.0,70,0.00,,BKN027,0.00,VWS V14.01,2013-06-16 04:43:00,
2013-06-16 00:44:00,77.7,68.0,30.11,SE,137,9.0,11.0,72,0.00,,BKN027,0.00,VWS V14.01,2013-06-16 04:44:00,
2013-06-16 00:45:00,77.7,67.1,30.11,ESE,115,11.0,12.0,70,0.00,,BKN027,0.00,VWS V14.01,2013-06-16 04:45:00,
2013-06-16 00:46:00,77.7,67.6,30.11,ESE,123,10.0,11.0,71,0.00,,CLR,0.00,VWS V14.01,2013-06-16 04:46:00,
2013-06-16 00:47:00,77.7,67.6,30.11,ESE,121,10.0,11.0,71,0.00,,BKN027,0.00,VWS V14.01,2013-06-16 04:47:00,
2013-06-16 00:48:00,77.7,67.1,30.11,ESE,123,14.0,14.0,70,0.00,,BKN027,0.00,VWS V14.01,2013-06-16 04:48:00,
2013-06-16 00:49:00,77.7,67.6,30.11,SE,130,11.0,14.0,71,0.00,,BKN027,0.00,VWS V14.01,2013-06-16 04:49:00,
2013-06-16 00:50:00,77.7,66.7,30.11,ESE,118,11.0,12.0,69,0.00,,BKN027,0.00,VWS V14.01,2013-06-16 04:50:00,
2013-06-16 00:51:00,77.9,67.3,30.10,SE,128,11.0,12.0,70,0.00,,CLR,0.00,VWS V14.01,2013-06-16 04:51:00,
2013-06-16 00:52:00,77.9,67.8,30.10,SE,130,10.0,12.0,71,0.00,,BKN027,0.00,VWS V14.01,2013-06-16 04:52:00,
2013-06-16 00:53:00,77.7,67.1,30.10,ESE,115,12.0,12.0,70,0.00,,BKN027,0.00,VWS V14.01,2013-06-16 04:53:00,
2013-06-16 00:54:00,77.9,67.8,30.11,ESE,123,14.0,14.0,71,0.00,,BKN027,0.00,VWS V14.01,2013-06-16 04:54:00,
2013-06-16 00:55:00,77.7,67.1,30.11,SE,132,13.0,14.0,70,0.00,,BKN027,0.00,VWS V14.01,2013-06-16 04:55:00,
2013-06-16 00:56:00,77.7,67.1,30.11,ESE,118,11.0,11.0,70,0.00,,CLR,0.00,VWS V14.01,2013-06-16 04:56:00,
2013-06-16 00:57:00,77.7,67.1,30.11,ESE,116,11.0,11.0,70,0.00,,BKN027,0.00,VWS V14.01,2013-06-16 04:57:00,
2013-06-16 00:58:00,77.7,67.1,30.11,ESE,120,9.0,11.0,70,0.00,,BKN027,0.00,VWS V14.01,2013-06-16 04:58:00,
2013-06-16 00:59:00,77.7,67.1,30.10,ESE,114,10.0,12.0,70,0.00,,BKN027,0.00,VWS V14.01,2013-06-16 04:59:00,
2013-06-16 01:00:00,77.9,67.8,30.10,ESE,117,11.0,13.0,71,0.00,,BKN027,0.00,VWS V14.01,2013-06-16 05:00:00,
2013-06-16 01:01:00,77.9,67.3,30.11,ESE,112,11.0,12.0,70,0.00,,CLR,0.00,VWS V14.01,2013-06-16 05:01:00,
2013-06-16 01:02:00,77.7,67.1,30.11,ESE,117,10.0,12.0,70,0.00,,BKN027,0.00,VWS V14.01,2013-06-16 05:02:00,
2013-06-16 01:03:00,77.7,67.1,30.11,SE,127,11.0,11.0,70,0.00,,BKN027,0.00,VWS V14.01,2013-06-16 05:03:00,
2013-06-16 01:04:00,77.9,67.8,30.11,SE,132,9.0,11.0,71,0.00,,BKN027,0.00,VWS V14.01,2013-06-16 05:04:00,
2013-06-16 01:05:00,77.7,67.6,30.11,SE,130,11.0,12.0,71,0.00,,BKN027,0.00,VWS V14.01,2013-06-16 05:05:00,
2013-06-16 01:06:00,77.9,67.8,30.11,ESE,113,12.0,12.0,71,0.00,,CLR,0.00,VWS V14.01,2013-06-16 05:06:00,
2013-06-16 01:07:00,77.9,67.8,30.11,SE,129,12.0,12.0,71,0.00,,BKN027,0.00,VWS V14.01,2013-06-16 05:07:00,
2013-06-16 01:08:00,77.7,67.6,30.11,SE,126,11.0,13.0,71,0.00,,BKN027,0.00,VWS V14.01,2013-06-16 05:08:00,
2013-06-16 01:09:00,77.7,67.6,30.11,SE,131,9.0,11.0,71,0.00,,BKN027,0.00,VWS V14.01,2013-06-16 05:09:00,
2013-06-16 01:10:00,77.9,67.8,30.11,ESE,121,7.0,10.0,71,0.00,,BKN027,0.00,VWS V14.01,2013-06-16 05:10:00,
2013-06-16 01:11:00,77.9,67.8,30.11,ESE,121,10.0,11.0,71,0.00,,CLR,0.00,VWS V14.01,2013-06-16 05:11:00,
2013-06-16 01:12:00,77.9,67.8,30.11,SE,125,10.0,11.0,71,0.00,,BKN027,0.00,VWS V14.01,2013-06-16 05:12:00,
2013-06-16 01:13:00,77.9,68.6,30.11,SE,146,12.0,13.0,73,0.00,,BKN027,0.00,VWS V14.01,2013-06-16 05:13:00,
2013-06-16 01:14:00,77.9,67.8,30.11,SE,145,12.0,13.0,71,0.00,,BKN027,0.00,VWS V14.01,2013-06-16 05:14:00,
2013-06-16 01:15:00,77.7,67.6,30.11,SE,126,10.0,12.0,71,0.00,,BKN027,0.00,VWS V14.01,2013-06-16 05:15:00,
2013-06-16 01:16:00,77.9,68.2,30.11,ESE,111,11.0,11.0,72,0.00,,CLR,0.00,VWS V14.01,2013-06-16 05:16:00,
2013-06-16 01:17:00,77.9,68.2,30.11,SE,127,11.0,11.0,72,0.00,,BKN027,0.00,VWS V14.01,2013-06-16 05:17:00,
2013-06-16 01:18:00,77.9,67.8,30.11,SE,130,12.0,12.0,71,0.00,,BKN027,0.00,VWS V14.01,2013-06-16 05:18:00,
2013-06-16 01:19:00,77.9,67.8,30.10,SE,132,11.0,12.0,71,0.00,,BKN027,0.00,VWS V14.01,2013-06-16 05:19:00,
2013-06-16 01:20:00,77.9,68.2,30.10,SE,146,11.0,12.0,72,0.00,,BKN027,0.00,VWS V14.01,2013-06-16 05:20:00,
2013-06-16 01:21:00,77.9,67.8,30.10,SE,136,12.0,12.0,71,0.00,,CLR,0.00,VWS V14.01,2013-06-16 05:21:00,
2013-06-16 01:22:00,77.7,67.6,30.10,SE,126,10.0,12.0,71,0.00,,BKN027,0.00,VWS V14.01,2013-06-16 05:22:00,
2013-06-16 01:23:00,77.7,67.1,30.10,SE,142,6.0,11.0,70,0.00,,BKN027,0.00,VWS V14.01,2013-06-16 05:23:00,
2013-06-16 01:24:00,77.7,67.1,30.10,SE,139,10.0,10.0,70,0.00,,BKN027,0.00,VWS V14.01,2013-06-16 05:24:00,
2013-06-16 01:25:00,77.9,67.8,30.10,ESE,120,10.0,12.0,71,0.00,,BKN027,0.00,VWS V14.01,2013-06-16 05:25:00,
2013-06-16 01:26:00,77.9,67.8,30.10,ESE,121,11.0,11.0,71,0.00,,CLR,0.00,VWS V14.01,2013-06-16 05:26:00,
2013-06-16 01:27:00,77.9,67.8,30.10,SE,126,10.0,11.0,71,0.00,,BKN027,0.00,VWS V14.01,2013-06-16 05:27:00,
2013-06-16 01:28:00,77.9,67.8,30.10,SE,129,10.0,11.0,71,0.00,,BKN027,0.00,VWS V14.01,2013-06-16 05:28:00,
2013-06-16 01:29:00,77.9,67.3,30.10,SE,133,11.0,11.0,70,0.00,,BKN027,0.00,VWS V14.01,2013-06-16 05:29:00,
2013-06-16 01:30:00,77.9,67.8,30.10,SE,140,10.0,11.0,71,0.00,,BKN027,0.00,VWS V14.01,2013-06-16 05:30:00,
2013-06-16 01:31:00,77.9,67.3,30.10,SE,124,12.0,13.0,70,0.00,,CLR,0.00,VWS V14.01,2013-06-16 05:31:00,
2013-06-16 01:32:00,77.9,67.3,30.10,SE,128,12.0,13.0,70,0.00,,BKN027,0.00,VWS V14.01,2013-06-16 05:32:00,
2013-06-16 01:33:00,77.9,67.3,30.11,SE,142,11.0,12.0,70,0.00,,BKN027,0.00,VWS V14.01,2013-06-16 05:33:00,
2013-06-16 01:34:00,77.9,66.9,30.10,SSE,158,10.0,11.0,69,0.00,,BKN027,0.00,VWS V14.01,2013-06-16 05:34:00,
2013-06-16 01:35:00,77.9,66.9,30.10,SSE,153,11.0,13.0,69,0.00,,BKN027,0.00,VWS V14.01,2013-06-16 05:35:00,
2013-06-16 01:36:00,77.9,66.5,30.10,SE,139,11.0,11.0,68,0.00,,CLR,0.00,VWS V14.01,2013-06-16 05:36:00,
2013-06-16 01:37:00,77.9,66.5,30.10,SE,135,12.0,12.0,68,0.00,,BKN027,0.00,VWS V14.01,2013-06-16 05:37:00,
2013-06-16 01:38:00,77.9,66.1,30.10,SE,144,12.0,13.0,67,0.00,,BKN027,0.00,VWS V14.01,2013-06-16 05:38:00,
2013-06-16 01:39:00,77.9,66.1,30.10,SE,144,11.0,12.0,67,0.00,,BKN027,0.00,VWS V14.01,2013-06-16 05:39:00,
2013-06-16 01:40:00,77.9,66.5,30.10,ESE,123,11.0,12.0,68,0.00,,BKN027,0.00,VWS V14.01,2013-06-16 05:40:00,
2013-06-16 01:41:00,77.9,66.9,30.10,SE,142,12.0,14.0,69,0.00,,CLR,0.00,VWS V14.01,2013-06-16 05:41:00,
2013-06-16 01:42:00,77.9,66.9,30.10,SE,124,12.0,14.0,69,0.00,,BKN027,0.00,VWS V14.01,2013-06-16 05:42:00,
2013-06-16 01:43:00,77.9,66.1,30.10,SE,135,11.0,12.0,67,0.00,,BKN027,0.00,VWS V14.01,2013-06-16 05:43:00,
2013-06-16 01:44:00,77.9,66.5,30.10,SE,125,11.0,13.0,68,0.00,,BKN027,0.00,VWS V14.01,2013-06-16 05:44:00,
2013-06-16 01:45:00,78.1,67.1,30.10,SE,137,12.0,13.0,69,0.00,,BKN027,0.00,VWS V14.01,2013-06-16 05:45:00,
2013-06-16 01:46:00,78.1,67.1,30.10,SSE,148,10.0,12.0,69,0.00,,CLR,0.00,VWS V14.01,2013-06-16 05:46:00,
2013-06-16 01:47:00,78.1,67.5,30.10,SE,142,12.0,12.0,70,0.00,,BKN027,0.00,VWS V14.01,2013-06-16 05:47:00,
2013-06-16 01:48:00,78.1,67.1,30.10,SE,137,13.0,13.0,69,0.00,,BKN027,0.00,VWS V14.01,2013-06-16 05:48:00,
2013-06-16 01:49:00,77.9,66.1,30.10,SE,138,7.0,13.0,67,0.00,,BKN027,0.00,VWS V14.01,2013-06-16 05:49:00,
2013-06-16 01:50:00,77.9,66.5,30.10,SE,136,14.0,14.0,68,0.00,,BKN027,0.00,VWS V14.01,2013-06-16 05:50:00,
2013-06-16 01:51:00,78.1,66.7,30.10,SE,139,12.0,14.0,68,0.00,,CLR,0.00,VWS V14.01,2013-06-16 05:51:00,
2013-06-16 01:52:00,78.1,66.7,30.10,SE,136,13.0,14.0,68,0.00,,BKN027,0.00,VWS V14.01,2013-06-16 05:52:00,
2013-06-16 01:53:00,78.1,67.5,30.10,SE,143,12.0,14.0,70,0.00,,BKN027,0.00,VWS V14.01,2013-06-16 05:53:00,
2013-06-16 01:54:00,78.1,67.1,30.10,SE,142,11.0,12.0,69,0.00,,BKN027,0.00,VWS V14.01,2013-06-16 05:54:00,
2013-06-16 01:55:00,77.9,66.5,30.10,SE,142,10.0,11.0,68,0.00,,BKN027,0.00,VWS V14.01,2013-06-16 05:55:00,
2013-06-16 01:56:00,78.1,67.1,30.10,SE,134,13.0,13.0,69,0.00,,CLR,0.00,VWS V14.01,2013-06-16 05:56:00,
2013-06-16 01:57:00,78.1,67.1,30.10,SE,138,14.0,14.0,69,0.00,,BKN027,0.00,VWS V14.01,2013-06-16 05:57:00,
2013-06-16 01:58:00,78.1,66.7,30.10,SSE,148,12.0,14.0,68,0.00,,BKN027,0.00,VWS V14.01,2013-06-16 05:58:00,
2013-06-16 01:59:00,78.1,66.3,30.10,SE,134,12.0,13.0,67,0.00,,BKN027,0.00,VWS V14.01,2013-06-16 05:59:00,
2013-06-16 02:00:00,78.1,66.7,30.10,SE,141,11.0,12.0,68,0.00,,BKN027,0.00,VWS V14.01,2013-06-16 06:00:00,
2013-06-16 02:01:00,77.9,66.1,30.10,SE,130,12.0,12.0,67,0.00,,CLR,0.00,VWS V14.01,2013-06-16 06:01:00,
2013-06-16 02:02:00,77.9,66.1,30.10,SE,136,12.0,12.0,67,0.00,,BKN027,0.00,VWS V14.01,2013-06-16 06:02:00,
2013-06-16 02:03:00,78.1,66.7,30.10,SE,128,13.0,14.0,68,0.00,,BKN027,0.00,VWS V14.01,2013-06-16 06:03:00,
2013-06-16 02:04:00,78.1,66.7,30.10,SE,134,10.0,14.0,68,0.00,,BKN027,0.00,VWS V14.01,2013-06-16 06:04:00,
2013-06-16 02:05:00,78.1,67.1,30.10,SSE,151,12.0,12.0,69,0.00,,BKN027,0.00,VWS V14.01,2013-06-16 06:05:00,
2013-06-16 02:06:00,78.1,67.1,30.10,SE,129,12.0,15.0,69,0.00,,CLR,0.00,VWS V14.01,2013-06-16 06:06:00,
2013-06-16 02:07:00,78.1,67.1,30.10,SE,126,14.0,15.0,69,0.00,,BKN027,0.00,VWS V14.01,2013-06-16 06:07:00,
2013-06-16 02:08:00,78.1,67.1,30.10,SE,142,15.0,15.0,69,0.00,,BKN027,0.00,VWS V14.01,2013-06-16 06:08:00,
2013-06-16 02:09:00,78.1,66.3,30.10,SE,132,12.0,15.0,67,0.00,,BKN027,0.00,VWS V14.01,2013-06-16 06:09:00,
2013-06-16 02:10:00,78.1,66.7,30.10,SE,144,10.0,12.0,68,0.00,,BKN027,0.00,VWS V14.01,2013-06-16 06:10:00,
2013-06-16 02:11:00,78.1,67.1,30.10,SE,138,14.0,15.0,69,0.00,,CLR,0.00,VWS V14.01,2013-06-16 06:11:00,
2013-06-16 02:12:00,78.1,67.1,30.10,SE,126,15.0,15.0,69,0.00,,BKN027,0.00,VWS V14.01,2013-06-16 06:12:00,
2013-06-16 02:13:00,78.1,67.1,30.10,SSE,147,13.0,15.0,69,0.00,,BKN027,0.00,VWS V14.01,2013-06-16 06:13:00,
2013-06-16 02:14:00,78.1,67.1,30.10,SE,138,13.0,13.0,69,0.00,,BKN027,0.00,VWS V14.01,2013-06-16 06:14:00,
2013-06-16 02:15:00,78.1,67.1,30.10,SE,132,13.0,13.0,69,0.00,,BKN027,0.00,VWS V14.01,2013-06-16 06:15:00,
2013-06-16 02:16:00,78.1,66.7,30.10,ESE,116,11.0,12.0,68,0.00,,CLR,0.00,VWS V14.01,2013-06-16 06:16:00,
2013-06-16 02:17:00,78.1,66.7,30.10,SE,130,13.0,13.0,68,0.00,,BKN027,0.00,VWS V14.01,2013-06-16 06:17:00,
2013-06-16 02:18:00,78.1,67.5,30.10,SSE,152,12.0,13.0,70,0.00,,BKN027,0.00,VWS V14.01,2013-06-16 06:18:00,
2013-06-16 02:19:00,78.1,67.5,30.10,SE,135,14.0,15.0,70,0.00,,BKN027,0.00,VWS V14.01,2013-06-16 06:19:00,
2013-06-16 02:20:00,78.1,67.9,30.10,SE,142,11.0,15.0,71,0.00,,BKN027,0.00,VWS V14.01,2013-06-16 06:20:00,
2013-06-16 02:21:00,78.1,66.7,30.10,SE,132,14.0,14.0,68,0.00,,CLR,0.00,VWS V14.01,2013-06-16 06:21:00,
2013-06-16 02:22:00,78.1,66.7,30.10,SE,138,13.0,14.0,68,0.00,,BKN027,0.00,VWS V14.01,2013-06-16 06:22:00,
2013-06-16 02:23:00,78.1,67.1,30.10,SE,134,12.0,14.0,69,0.00,,BKN027,0.00,VWS V14.01,2013-06-16 06:23:00,
2013-06-16 02:24:00,78.1,67.5,30.10,SE,138,14.0,14.0,70,0.00,,BKN027,0.00,VWS V14.01,2013-06-16 06:24:00,
2013-06-16 02:25:00,78.1,67.9,30.10,SE,138,12.0,14.0,71,0.00,,BKN027,0.00,VWS V14.01,2013-06-16 06:25:00,
2013-06-16 02:26:00,78.1,67.1,30.10,SE,143,12.0,12.0,69,0.00,,CLR,0.00,VWS V14.01,2013-06-16 06:26:00,
2013-06-16 02:27:00,78.1,67.9,30.10,SE,130,12.0,12.0,71,0.00,,BKN027,0.00,VWS V14.01,2013-06-16 06:27:00,
2013-06-16 02:28:00,78.1,67.5,30.10,SSE,159,12.0,12.0,70,0.00,,BKN027,0.00,VWS V14.01,2013-06-16 06:28:00,
2013-06-16 02:29:00,77.9,66.9,30.10,SE,146,11.0,12.0,69,0.00,,BKN027,0.00,VWS V14.01,2013-06-16 06:29:00,
2013-06-16 02:30:00,77.9,67.3,30.10,SE,141,9.0,12.0,70,0.00,,BKN027,0.00,VWS V14.01,2013-06-16 06:30:00,
2013-06-16 02:31:00,77.9,66.9,30.10,ESE,123,11.0,11.0,69,0.00,,CLR,0.00,VWS V14.01,2013-06-16 06:31:00,
2013-06-16 02:32:00,77.9,66.5,30.10,SE,142,10.0,11.0,68,0.00,,BKN027,0.00,VWS V14.01,2013-06-16 06:32:00,
2013-06-16 02:33:00,77.9,66.9,30.10,SE,128,8.0,11.0,69,0.00,,BKN027,0.00,VWS V14.01,2013-06-16 06:33:00,
2013-06-16 02:34:00,77.9,66.9,30.10,SE,144,11.0,12.0,69,0.00,,BKN027,0.00,VWS V14.01,2013-06-16 06:34:00,
2013-06-16 02:35:00,77.9,66.9,30.10,SE,130,13.0,13.0,69,0.00,,BKN027,0.00,VWS V14.01,2013-06-16 06:35:00,
2013-06-16 02:36:00,77.9,66.5,30.10,SE,136,11.0,14.0,68,0.00,,CLR,0.00,VWS V14.01,2013-06-16 06:36:00,
2013-06-16 02:37:00,77.9,66.5,30.10,SE,134,10.0,14.0,68,0.00,,BKN027,0.00,VWS V14.01,2013-06-16 06:37:00,
2013-06-16 02:38:00,77.9,66.5,30.10,SE,138,10.0,12.0,68,0.00,,BKN027,0.00,VWS V14.01,2013-06-16 06:38:00,
2013-06-16 02:39:00,77.9,67.3,30.10,SE,145,11.0,11.0,70,0.00,,BKN027,0.00,VWS V14.01,2013-06-16 06:39:00,
2013-06-16 02:40:00,77.9,66.9,30.10,SSE,148,7.0,13.0,69,0.00,,BKN027,0.00,VWS V14.01,2013-06-16 06:40:00,
2013-06-16 02:41:00,77.9,66.9,30.10,SSE,153,11.0,12.0,69,0.00,,CLR,0.00,VWS V14.01,2013-06-16 06:41:00,
2013-06-16 02:42:00,77.9,66.9,30.10,SSE,161,10.0,12.0,69,0.00,,BKN027,0.00,VWS V14.01,2013-06-16 06:42:00,
2013-06-16 02:43:00,77.9,66.5,30.10,SSE,149,9.0,11.0,68,0.00,,BKN027,0.00,VWS V14.01,2013-06-16 06:43:00,
2013-06-16 02:44:00,77.9,66.9,30.10,SSE,150,9.0,10.0,69,0.00,,BKN027,0.00,VWS V14.01,2013-06-16 06:44:00,
2013-06-16 02:45:00,77.9,67.3,30.10,SE,142,12.0,12.0,70,0.00,,BKN027,0.00,VWS V14.01,2013-06-16 06:45:00,
2013-06-16 02:46:00,77.9,66.9,30.10,SE,138,12.0,13.0,69,0.00,,CLR,0.00,VWS V14.01,2013-06-16 06:46:00,
2013-06-16 02:47:00,77.9,66.9,30.10,SE,142,11.0,13.0,69,0.00,,BKN027,0.00,VWS V14.01,2013-06-16 06:47:00,
2013-06-16 02:48:00,77.9,67.3,30.10,SE,140,12.0,12.0,70,0.00,,BKN027,0.00,VWS V14.01,2013-06-16 06:48:00,
2013-06-16 02:49:00,77.9,66.5,30.10,SE,139,10.0,12.0,68,0.00,,BKN027,0.00,VWS V14.01,2013-06-16 06:49:00,
2013-06-16 02:50:00,77.9,66.5,30.10,SE,140,11.0,11.0,68,0.00,,BKN027,0.00,VWS V14.01,2013-06-16 06:50:00,
2013-06-16 02:51:00,77.9,66.9,30.10,SSE,158,9.0,12.0,69,0.00,,CLR,0.00,VWS V14.01,2013-06-16 06:51:00,
2013-06-16 02:52:00,77.9,66.9,30.10,SE,140,9.0,12.0,69,0.00,,BKN027,0.00,VWS V14.01,2013-06-16 06:52:00,
2013-06-16 02:53:00,77.9,66.5,30.10,SE,142,10.0,10.0,68,0.00,,BKN027,0.00,VWS V14.01,2013-06-16 06:53:00,
2013-06-16 02:54:00,77.9,67.3,30.10,SSE,163,10.0,10.0,70,0.00,,BKN027,0.00,VWS V14.01,2013-06-16 06:54:00,
2013-06-16 02:55:00,77.9,66.5,30.10,SSE,157,11.0,11.0,68,0.00,,BKN027,0.00,VWS V14.01,2013-06-16 06:55:00,
2013-06-16 02:56:00,77.9,66.5,30.10,SSE,155,7.0,10.0,68,0.00,,CLR,0.00,VWS V14.01,2013-06-16 06:56:00,
2013-06-16 02:57:00,77.9,66.5,30.10,SSE,148,9.0,10.0,68,0.00,,BKN027,0.00,VWS V14.01,2013-06-16 06:57:00,
2013-06-16 02:58:00,77.9,67.8,30.10,SE,142,9.0,11.0,71,0.00,,BKN027,0.00,VWS V14.01,2013-06-16 06:58:00,
2013-06-16 02:59:00,77.9,66.9,30.10,SE,145,10.0,11.0,69,0.00,,BKN027,0.00,VWS V14.01,2013-06-16 06:59:00,
2013-06-16 03:00:00,77.9,66.9,30.10,SE,136,13.0,13.0,69,0.00,,BKN027,0.00,VWS V14.01,2013-06-16 07:00:00,
2013-06-16 03:01:00,77.9,66.9,30.09,SSE,150,10.0,11.0,69,0.00,,CLR,0.00,VWS V14.01,2013-06-16 07:01:00,
2013-06-16 03:02:00,77.7,66.7,30.09,SSE,150,9.0,11.0,69,0.00,,BKN027,0.00,VWS V14.01,2013-06-16 07:02:00,
2013-06-16 03:03:00,77.7,66.3,30.09,SSE,153,9.0,11.0,68,0.00,,BKN027,0.00,VWS V14.01,2013-06-16 07:03:00,
2013-06-16 03:04:00,77.9,66.9,30.10,SSE,154,11.0,11.0,69,0.00,,BKN027,0.00,VWS V14.01,2013-06-16 07:04:00,
2013-06-16 03:05:00,77.9,67.8,30.10,SSE,155,10.0,11.0,71,0.00,,BKN027,0.00,VWS V14.01,2013-06-16 07:05:00,
2013-06-16 03:06:00,77.7,67.1,30.10,SE,142,12.0,12.0,70,0.00,,CLR,0.00,VWS V14.01,2013-06-16 07:06:00,
2013-06-16 03:07:00,77.7,67.1,30.10,SE,137,11.0,12.0,70,0.00,,BKN027,0.00,VWS V14.01,2013-06-16 07:07:00,
2013-06-16 03:08:00,77.7,66.7,30.10,SE,144,11.0,11.0,69,0.00,,BKN027,0.00,VWS V14.01,2013-06-16 07:08:00,
2013-06-16 03:09:00,77.7,66.3,30.10,SE,137,11.0,12.0,68,0.00,,BKN027,0.00,VWS V14.01,2013-06-16 07:09:00,
2013-06-16 03:10:00,77.7,66.3,30.10,SSE,156,7.0,11.0,68,0.00,,BKN027,0.00,VWS V14.01,2013-06-16 07:10:00,
2013-06-16 03:11:00,77.9,66.9,30.10,SSE,159,11.0,11.0,69,0.00,,CLR,0.00,VWS V14.01,2013-06-16 07:11:00,
2013-06-16 03:12:00,77.7,66.7,30.10,SSE,152,12.0,12.0,69,0.00,,BKN027,0.00,VWS V14.01,2013-06-16 07:12:00,
2013-06-16 03:13:00,77.7,66.3,30.10,SSE,148,9.0,12.0,68,0.00,,BKN027,0.00,VWS V14.01,2013-06-16 07:13:00,
2013-06-16 03:14:00,77.7,66.3,30.10,SSE,150,7.0,10.0,68,0.00,,BKN027,0.00,VWS V14.01,2013-06-16 07:14:00,
2013-06-16 03:15:00,77.7,66.7,30.10,SSE,155,10.0,10.0,69,0.00,,BKN027,0.00,VWS V14.01,2013-06-16 07:15:00,
2013-06-16 03:16:00,77.7,67.1,30.10,SSE,150,10.0,12.0,70,0.00,,CLR,0.00,VWS V14.01,2013-06-16 07:16:00,
2013-06-16 03:17:00,77.7,67.1,30.10,SE,139,10.0,12.0,70,0.00,,BKN027,0.00,VWS V14.01,2013-06-16 07:17:00,
2013-06-16 03:18:00,77.7,66.7,30.10,SE,142,13.0,13.0,69,0.00,,BKN027,0.00,VWS V14.01,2013-06-16 07:18:00,
2013-06-16 03:19:00,77.7,67.1,30.10,SE,140,11.0,13.0,70,0.00,,BKN027,0.00,VWS V14.01,2013-06-16 07:19:00,
2013-06-16 03:20:00,77.7,66.3,30.10,SE,138,12.0,12.0,68,0.00,,BKN027,0.00,VWS V14.01,2013-06-16 07:20:00,
2013-06-16 03:21:00,77.7,66.3,30.10,SE,125,13.0,13.0,68,0.00,,CLR,0.00,VWS V14.01,2013-06-16 07:21:00,
2013-06-16 03:22:00,77.9,67.3,30.10,SE,132,11.0,13.0,70,0.00,,BKN027,0.00,VWS V14.01,2013-06-16 07:22:00,
2013-06-16 03:23:00,77.9,67.3,30.10,SE,144,11.0,13.0,70,0.00,,BKN027,0.00,VWS V14.01,2013-06-16 07:23:00,
2013-06-16 03:24:00,77.9,67.3,30.10,SE,127,10.0,12.0,70,0.00,,BKN027,0.00,VWS V14.01,2013-06-16 07:24:00,
2013-06-16 03:25:00,77.9,67.8,30.10,SE,127,12.0,13.0,71,0.00,,BKN027,0.00,VWS V14.01,2013-06-16 07:25:00,
2013-06-16 03:26:00,77.9,67.8,30.10,SE,130,13.0,14.0,71,0.00,,CLR,0.00,VWS V14.01,2013-06-16 07:26:00,
2013-06-16 03:27:00,77.9,67.3,30.10,SE,126,14.0,14.0,70,0.00,,BKN027,0.00,VWS V14.01,2013-06-16 07:27:00,
2013-06-16 03:28:00,77.7,66.7,30.09,SE,134,11.0,14.0,69,0.00,,BKN027,0.00,VWS V14.01,2013-06-16 07:28:00,
2013-06-16 03:29:00,77.7,66.7,30.09,SE,127,12.0,12.0,69,0.00,,BKN027,0.00,VWS V14.01,2013-06-16 07:29:00,
2013-06-16 03:30:00,77.7,66.7,30.09,SE,128,10.0,13.0,69,0.00,,BKN027,0.00,VWS V14.01,2013-06-16 07:30:00,
2013-06-16 03:31:00,77.9,67.8,30.09,SSE,158,11.0,12.0,71,0.00,,CLR,0.00,VWS V14.01,2013-06-16 07:31:00,
2013-06-16 03:32:00,77.9,67.8,30.09,SSE,165,10.0,12.0,71,0.00,,BKN027,0.00,VWS V14.01,2013-06-16 07:32:00,
2013-06-16 03:33:00,77.7,66.7,30.10,SSE,155,9.0,10.0,69,0.00,,BKN027,0.00,VWS V14.01,2013-06-16 07:33:00,
2013-06-16 03:34:00,77.7,67.1,30.10,SSE,155,12.0,12.0,70,0.00,,BKN027,0.00,VWS V14.01,2013-06-16 07:34:00,
2013-06-16 03:35:00,77.7,67.1,30.10,SSE,157,12.0,12.0,70,0.00,,BKN027,0.00,VWS V14.01,2013-06-16 07:35:00,
2013-06-16 03:36:00,77.7,67.1,30.10,SE,130,12.0,12.0,70,0.00,,CLR,0.00,VWS V14.01,2013-06-16 07:36:00,
2013-06-16 03:37:00,77.7,67.1,30.10,SE,136,13.0,13.0,70,0.00,,BKN027,0.00,VWS V14.01,2013-06-16 07:37:00,
2013-06-16 03:38:00,77.7,66.7,30.10,SSE,149,7.0,13.0,69,0.00,,BKN027,0.00,VWS V14.01,2013-06-16 07:38:00,
2013-06-16 03:39:00,77.7,67.1,30.10,SE,134,10.0,12.0,70,0.00,,BKN027,0.00,VWS V14.01,2013-06-16 07:39:00,
2013-06-16 03:40:00,77.7,67.1,30.10,SE,144,10.0,12.0,70,0.00,,BKN027,0.00,VWS V14.01,2013-06-16 07:40:00,
2013-06-16 03:41:00,77.7,67.1,30.10,SE,131,10.0,11.0,70,0.00,,CLR,0.00,VWS V14.01,2013-06-16 07:41:00,
2013-06-16 03:42:00,77.9,67.3,30.10,SE,126,10.0,11.0,70,0.00,,BKN027,0.00,VWS V14.01,2013-06-16 07:42:00,
2013-06-16 03:43:00,77.9,68.2,30.10,SE,136,12.0,13.0,72,0.00,,BKN027,0.00,VWS V14.01,2013-06-16 07:43:00,
2013-06-16 03:44:00,77.7,67.1,30.10,SE,130,14.0,14.0,70,0.00,,BKN027,0.00,VWS V14.01,2013-06-16 07:44:00,
2013-06-16 03:45:00,77.7,67.1,30.09,SE,130,12.0,14.0,70,0.00,,BKN027,0.00,VWS V14.01,2013-06-16 07:45:00,
2013-06-16 03:46:00,77.9,68.2,30.10,SE,144,7.0,12.0,72,0.00,,CLR,0.00,VWS V14.01,2013-06-16 07:46:00,
2013-06-16 03:47:00,77.7,68.0,30.09,SSE,148,10.0,12.0,72,0.00,,BKN027,0.00,VWS V14.01,2013-06-16 07:47:00,
2013-06-16 03:48:00,77.7,67.1,30.09,SE,143,10.0,12.0,70,0.00,,BKN027,0.00,VWS V14.01,2013-06-16 07:48:00,
2013-06-16 03:49:00,77.7,66.7,30.10,SSE,147,10.0,11.0,69,0.00,,BKN027,0.00,VWS V14.01,2013-06-16 07:49:00,
2013-06-16 03:50:00,77.7,66.7,30.10,SE,140,10.0,12.0,69,0.00,,BKN027,0.00,VWS V14.01,2013-06-16 07:50:00,
2013-06-16 03:51:00,77.7,67.6,30.09,SE,145,10.0,12.0,71,0.00,,CLR,0.00,VWS V14.01,2013-06-16 07:51:00,
2013-06-16 03:52:00,77.7,67.6,30.09,SSE,154,11.0,12.0,71,0.00,,BKN027,0.00,VWS V14.01,2013-06-16 07:52:00,
2013-06-16 03:53:00,77.7,67.6,30.10,SSE,147,11.0,11.0,71,0.00,,BKN027,0.00,VWS V14.01,2013-06-16 07:53:00,
2013-06-16 03:54:00,77.7,67.1,30.10,South,173,11.0,12.0,70,0.00,,BKN027,0.00,VWS V14.01,2013-06-16 07:54:00,
2013-06-16 03:55:00,77.6,66.6,30.10,South,181,10.0,11.0,69,0.00,,BKN027,0.00,VWS V14.01,2013-06-16 07:55:00,
2013-06-16 03:56:00,77.6,66.6,30.10,South,171,9.0,10.0,69,0.00,,CLR,0.00,VWS V14.01,2013-06-16 07:56:00,
2013-06-16 03:57:00,77.6,66.6,30.10,SSE,155,10.0,10.0,69,0.00,,BKN027,0.00,VWS V14.01,2013-06-16 07:57:00,
2013-06-16 03:58:00,77.6,67.1,30.10,South,170,7.0,10.0,70,0.00,,BKN027,0.00,VWS V14.01,2013-06-16 07:58:00,
2013-06-16 03:59:00,77.7,67.1,30.09,SE,145,12.0,13.0,70,0.00,,BKN027,0.00,VWS V14.01,2013-06-16 07:59:00,
2013-06-16 04:00:00,77.7,67.1,30.10,SE,134,9.0,12.0,70,0.00,,BKN027,0.00,VWS V14.01,2013-06-16 08:00:00,
2013-06-16 04:01:00,77.7,67.1,30.10,SE,146,10.0,12.0,70,0.00,,CLR,0.00,VWS V14.01,2013-06-16 08:01:00,
2013-06-16 04:02:00,77.7,68.0,30.10,SSE,153,10.0,12.0,72,0.00,,BKN027,0.00,VWS V14.01,2013-06-16 08:02:00,
2013-06-16 04:03:00,77.7,67.6,30.09,SSE,161,7.0,11.0,71,0.00,,BKN027,0.00,VWS V14.01,2013-06-16 08:03:00,
2013-06-16 04:04:00,77.7,67.6,30.09,SE,145,10.0,11.0,71,0.00,,BKN027,0.00,VWS V14.01,2013-06-16 08:04:00,
2013-06-16 04:05:00,77.7,68.0,30.09,SE,144,11.0,11.0,72,0.00,,BKN027,0.00,VWS V14.01,2013-06-16 08:05:00,
2013-06-16 04:06:00,77.7,68.0,30.09,SE,142,12.0,13.0,72,0.00,,CLR,0.00,VWS V14.01,2013-06-16 08:06:00,
2013-06-16 04:07:00,77.6,67.5,30.09,SE,138,12.0,13.0,71,0.00,,BKN027,0.00,VWS V14.01,2013-06-16 08:07:00,
2013-06-16 04:08:00,77.7,67.6,30.09,SE,134,12.0,14.0,71,0.00,,BKN027,0.00,VWS V14.01,2013-06-16 08:08:00,
2013-06-16 04:09:00,77.6,67.1,30.09,SE,140,12.0,12.0,70,0.00,,BKN027,0.00,VWS V14.01,2013-06-16 08:09:00,
2013-06-16 04:10:00,77.6,67.5,30.09,SE,135,11.0,12.0,71,0.00,,BKN027,0.00,VWS V14.01,2013-06-16 08:10:00,
2013-06-16 04:11:00,77.6,67.1,30.09,SE,142,11.0,11.0,70,0.00,,CLR,0.00,VWS V14.01,2013-06-16 08:11:00,
2013-06-16 04:12:00,77.6,67.1,30.09,SE,142,8.0,11.0,70,0.00,,BKN027,0.00,VWS V14.01,2013-06-16 08:12:00,
2013-06-16 04:13:00,77.6,67.5,30.09,SSE,149,11.0,11.0,71,0.00,,BKN027,0.00,VWS V14.01,2013-06-16 08:13:00,
2013-06-16 04:14:00,77.6,67.1,30.09,SSE,159,9.0,12.0,70,0.00,,BKN027,0.00,VWS V14.01,2013-06-16 08:14:00,
2013-06-16 04:15:00,77.6,67.5,30.09,SE,139,10.0,11.0,71,0.00,,BKN027,0.00,VWS V14.01,2013-06-16 08:15:00,
2013-06-16 04:16:00,77.6,67.5,30.09,SE,139,13.0,13.0,71,0.00,,CLR,0.00,VWS V14.01,2013-06-16 08:16:00,
2013-06-16 04:17:00,77.6,67.5,30.09,SSE,148,8.0,13.0,71,0.00,,BKN027,0.00,VWS V14.01,2013-06-16 08:17:00,
2013-06-16 04:18:00,77.6,67.5,30.09,SE,141,12.0,12.0,71,0.00,,BKN027,0.00,VWS V14.01,2013-06-16 08:18:00,
2013-06-16 04:19:00,77.6,67.1,30.09,SE,135,10.0,12.0,70,0.00,,BKN027,0.00,VWS V14.01,2013-06-16 08:19:00,
2013-06-16 04:20:00,77.6,67.5,30.09,SE,138,10.0,11.0,71,0.00,,BKN027,0.00,VWS V14.01,2013-06-16 08:20:00,
2013-06-16 04:21:00,77.6,67.1,30.09,SE,136,12.0,12.0,70,0.00,,CLR,0.00,VWS V14.01,2013-06-16 08:21:00,
2013-06-16 04:22:00,77.6,67.1,30.09,SE,143,12.0,12.0,70,0.00,,BKN027,0.00,VWS V14.01,2013-06-16 08:22:00,
2013-06-16 04:23:00,77.6,67.1,30.09,SE,132,10.0,12.0,70,0.00,,BKN027,0.00,VWS V14.01,2013-06-16 08:23:00,
2013-06-16 04:24:00,77.6,67.1,30.09,SSE,157,9.0,11.0,70,0.00,,BKN027,0.00,VWS V14.01,2013-06-16 08:24:00,
2013-06-16 04:25:00,77.6,67.5,30.09,SE,135,12.0,12.0,71,0.00,,BKN027,0.00,VWS V14.01,2013-06-16 08:25:00,
2013-06-16 04:26:00,77.7,68.0,30.09,SSE,148,10.0,11.0,72,0.00,,CLR,0.00,VWS V14.01,2013-06-16 08:26:00,
2013-06-16 04:27:00,77.6,67.9,30.09,SE,136,11.0,11.0,72,0.00,,BKN027,0.00,VWS V14.01,2013-06-16 08:27:00,
2013-06-16 04:28:00,77.6,67.9,30.09,SE,146,9.0,11.0,72,0.00,,BKN027,0.00,VWS V14.01,2013-06-16 08:28:00,
2013-06-16 04:29:00,77.6,67.9,30.09,SE,146,10.0,12.0,72,0.00,,BKN027,0.00,VWS V14.01,2013-06-16 08:29:00,
2013-06-16 04:30:00,77.6,68.3,30.09,SE,138,13.0,13.0,73,0.00,,BKN027,0.00,VWS V14.01,2013-06-16 08:30:00,
2013-06-16 04:31:00,77.6,68.3,30.09,SE,128,15.0,18.0,73,0.00,,CLR,0.00,VWS V14.01,2013-06-16 08:31:00,
2013-06-16 04:32:00,77.6,68.3,30.09,SE,144,13.0,18.0,73,0.00,,BKN027,0.00,VWS V14.01,2013-06-16 08:32:00,
2013-06-16 04:33:00,77.7,68.8,30.09,SE,134,15.0,15.0,74,0.00,,BKN027,0.00,VWS V14.01,2013-06-16 08:33:00,
2013-06-16 04:35:00,77.6,68.3,30.09,SSE,150,10.0,15.0,73,0.00,,BKN027,0.00,VWS V14.01,2013-06-16 08:35:00,
2013-06-16 04:36:00,77.6,67.9,30.09,ESE,111,13.0,13.0,72,0.00,,CLR,0.00,VWS V14.01,2013-06-16 08:36:00,
2013-06-16 04:37:00,77.6,67.9,30.09,SE,136,14.0,14.0,72,0.00,,BKN027,0.00,VWS V14.01,2013-06-16 08:37:00,
2013-06-16 04:38:00,77.7,68.8,30.09,SE,128,14.0,14.0,74,0.00,,BKN027,0.00,VWS V14.01,2013-06-16 08:38:00,
2013-06-16 04:39:00,77.6,68.3,30.09,ESE,121,12.0,14.0,73,0.00,,BKN027,0.00,VWS V14.01,2013-06-16 08:39:00,
2013-06-16 04:40:00,77.6,68.3,30.09,SE,132,13.0,15.0,73,0.00,,BKN027,0.00,VWS V14.01,2013-06-16 08:40:00,
2013-06-16 04:41:00,77.6,69.1,30.09,SE,144,10.0,13.0,75,0.00,,CLR,0.00,VWS V14.01,2013-06-16 08:41:00,
2013-06-16 04:42:00,77.6,69.1,30.09,SE,134,6.0,13.0,75,0.00,,BKN027,0.00,VWS V14.01,2013-06-16 08:42:00,
2013-06-16 04:43:00,77.6,68.7,30.09,South,170,7.0,11.0,74,0.00,,BKN027,0.00,VWS V14.01,2013-06-16 08:43:00,
2013-06-16 04:44:00,77.6,68.3,30.09,SSE,148,13.0,13.0,73,0.00,,BKN027,0.00,VWS V14.01,2013-06-16 08:44:00,
2013-06-16 04:45:00,77.4,68.1,30.09,SE,140,10.0,13.0,73,0.00,,BKN027,0.00,VWS V14.01,2013-06-16 08:45:00,
2013-06-16 04:46:00,77.6,68.7,30.09,SE,137,10.0,11.0,74,0.00,,CLR,0.00,VWS V14.01,2013-06-16 08:46:00,
2013-06-16 04:47:00,77.6,69.1,30.09,SE,140,14.0,14.0,75,0.00,,BKN027,0.00,VWS V14.01,2013-06-16 08:47:00,
2013-06-16 04:48:00,77.6,68.7,30.09,SE,138,11.0,15.0,74,0.00,,BKN027,0.00,VWS V14.01,2013-06-16 08:48:00,
2013-06-16 04:49:00,77.6,68.3,30.09,SE,138,13.0,15.0,73,0.00,,BKN027,0.00,VWS V14.01,2013-06-16 08:49:00,
2013-06-16 04:50:00,77.4,68.1,30.09,SE,139,14.0,14.0,73,0.00,,BKN027,0.00,VWS V14.01,2013-06-16 08:50:00,
2013-06-16 04:51:00,77.4,68.5,30.10,SE,133,14.0,14.0,74,0.00,,CLR,0.00,VWS V14.01,2013-06-16 08:51:00,
2013-06-16 04:52:00,77.4,68.1,30.10,SE,146,12.0,14.0,73,0.00,,BKN027,0.00,VWS V14.01,2013-06-16 08:52:00,
2013-06-16 04:53:00,77.4,68.1,30.10,SSE,147,11.0,13.0,73,0.00,,BKN027,0.00,VWS V14.01,2013-06-16 08:53:00,
2013-06-16 04:54:00,77.4,68.5,30.10,SE,131,13.0,13.0,74,0.00,,BKN027,0.00,VWS V14.01,2013-06-16 08:54:00,
2013-06-16 04:55:00,77.4,68.1,30.10,SE,145,14.0,14.0,73,0.00,,BKN027,0.00,VWS V14.01,2013-06-16 08:55:00,
2013-06-16 04:56:00,77.6,68.7,30.10,SSE,151,11.0,11.0,74,0.00,,CLR,0.00,VWS V14.01,2013-06-16 08:56:00,
2013-06-16 04:57:00,77.6,68.7,30.10,SSE,155,10.0,11.0,74,0.00,,BKN027,0.00,VWS V14.01,2013-06-16 08:57:00,
2013-06-16 04:58:00,77.4,68.1,30.10,SE,141,9.0,11.0,73,0.00,,BKN027,0.00,VWS V14.01,2013-06-16 08:58:00,
2013-06-16 04:59:00,77.4,68.5,30.10,SE,139,13.0,13.0,74,0.00,,BKN027,0.00,VWS V14.01,2013-06-16 08:59:00,
2013-06-16 05:00:00,77.4,68.1,30.10,SE,138,13.0,13.0,73,0.00,,BKN027,0.00,VWS V14.01,2013-06-16 09:00:00,
2013-06-16 05:01:00,77.4,68.5,30.10,SE,131,12.0,14.0,74,0.00,,CLR,0.00,VWS V14.01,2013-06-16 09:01:00,
2013-06-16 05:02:00,77.4,67.7,30.10,SE,142,12.0,14.0,72,0.00,,BKN027,0.00,VWS V14.01,2013-06-16 09:02:00,
2013-06-16 05:03:00,77.4,67.7,30.10,ESE,121,9.0,12.0,72,0.00,,BKN027,0.00,VWS V14.01,2013-06-16 09:03:00,
2013-06-16 05:04:00,77.4,68.1,30.10,SE,128,10.0,11.0,73,0.00,,BKN027,0.00,VWS V14.01,2013-06-16 09:04:00,
2013-06-16 05:05:00,77.4,68.1,30.10,SE,131,11.0,13.0,73,0.00,,BKN027,0.00,VWS V14.01,2013-06-16 09:05:00,
2013-06-16 05:06:00,77.4,67.7,30.10,SE,142,12.0,12.0,72,0.00,,CLR,0.00,VWS V14.01,2013-06-16 09:06:00,
2013-06-16 05:07:00,77.4,67.7,30.10,SE,138,13.0,13.0,72,0.00,,BKN027,0.00,VWS V14.01,2013-06-16 09:07:00,
2013-06-16 05:08:00,77.4,68.1,30.10,SE,138,16.0,16.0,73,0.00,,BKN027,0.00,VWS V14.01,2013-06-16 09:08:00,
2013-06-16 05:09:00,77.4,68.1,30.10,SE,146,9.0,16.0,73,0.00,,BKN027,0.00,VWS V14.01,2013-06-16 09:09:00,
2013-06-16 05:10:00,77.4,67.7,30.10,SE,141,11.0,12.0,72,0.00,,BKN027,0.00,VWS V14.01,2013-06-16 09:10:00,
2013-06-16 05:11:00,77.4,67.7,30.10,SE,133,12.0,14.0,72,0.00,,CLR,0.00,VWS V14.01,2013-06-16 09:11:00,
2013-06-16 05:12:00,77.4,67.7,30.10,SE,139,12.0,14.0,72,0.00,,BKN027,0.00,VWS V14.01,2013-06-16 09:12:00,
2013-06-16 05:13:00,77.4,67.7,30.10,SE,128,9.0,13.0,72,0.00,,BKN027,0.00,VWS V14.01,2013-06-16 09:13:00,
2013-06-16 05:14:00,77.4,67.3,30.10,SE,126,9.0,12.0,71,0.00,,BKN027,0.00,VWS V14.01,2013-06-16 09:14:00,
2013-06-16 05:15:00,77.4,67.3,30.10,SE,136,10.0,12.0,71,0.00,,BKN027,0.00,VWS V14.01,2013-06-16 09:15:00,
2013-06-16 05:16:00,77.4,68.1,30.10,SE,136,14.0,14.0,73,0.00,,CLR,0.00,VWS V14.01,2013-06-16 09:16:00,
2013-06-16 05:17:00,77.4,68.1,30.10,SE,139,12.0,14.0,73,0.00,,BKN027,0.00,VWS V14.01,2013-06-16 09:17:00,
2013-06-16 05:18:00,77.4,67.7,30.10,SE,144,13.0,14.0,72,0.00,,BKN027,0.00,VWS V14.01,2013-06-16 09:18:00,
2013-06-16 05:19:00,77.4,67.7,30.10,SE,135,12.0,14.0,72,0.00,,BKN027,0.00,VWS V14.01,2013-06-16 09:19:00,
2013-06-16 05:20:00,77.4,67.7,30.10,SE,143,11.0,13.0,72,0.00,,BKN027,0.00,VWS V14.01,2013-06-16 09:20:00,
2013-06-16 05:21:00,77.4,67.3,30.10,SE,134,13.0,13.0,71,0.00,,CLR,0.00,VWS V14.01,2013-06-16 09:21:00,
2013-06-16 05:22:00,77.4,67.3,30.10,SE,140,10.0,13.0,71,0.00,,BKN027,0.00,VWS V14.01,2013-06-16 09:22:00,
2013-06-16 05:23:00,77.4,67.3,30.10,SSE,153,12.0,13.0,71,0.00,,BKN027,0.00,VWS V14.01,2013-06-16 09:23:00,
2013-06-16 05:24:00,77.4,67.3,30.10,SE,144,13.0,14.0,71,0.00,,BKN027,0.00,VWS V14.01,2013-06-16 09:24:00,
2013-06-16 05:25:00,77.4,67.7,30.10,SE,146,14.0,15.0,72,0.00,,BKN027,0.00,VWS V14.01,2013-06-16 09:25:00,
2013-06-16 05:26:00,77.4,67.7,30.10,SE,144,13.0,13.0,72,0.00,,CLR,0.00,VWS V14.01,2013-06-16 09:26:00,
2013-06-16 05:27:00,77.4,67.7,30.10,SE,142,12.0,13.0,72,0.00,,BKN027,0.00,VWS V14.01,2013-06-16 09:27:00,
2013-06-16 05:28:00,77.4,67.3,30.10,SSE,149,11.0,12.0,71,0.00,,BKN027,0.00,VWS V14.01,2013-06-16 09:28:00,
2013-06-16 05:29:00,77.4,67.7,30.10,SE,143,12.0,13.0,72,0.00,,BKN027,0.00,VWS V14.01,2013-06-16 09:29:00,
2013-06-16 05:30:00,77.4,67.7,30.11,SE,138,11.0,12.0,72,0.00,,BKN027,0.00,VWS V14.01,2013-06-16 09:30:00,
2013-06-16 05:31:00,77.4,67.7,30.11,SE,134,10.0,12.0,72,0.00,,CLR,0.00,VWS V14.01,2013-06-16 09:31:00,
2013-06-16 05:32:00,77.4,67.7,30.11,SE,144,12.0,12.0,72,0.00,,BKN027,0.00,VWS V14.01,2013-06-16 09:32:00,
2013-06-16 05:33:00,77.4,67.7,30.11,SSE,156,11.0,12.0,72,0.00,,BKN027,0.00,VWS V14.01,2013-06-16 09:33:00,
2013-06-16 05:34:00,77.4,68.1,30.11,SE,144,11.0,11.0,73,0.00,,BKN027,0.00,VWS V14.01,2013-06-16 09:34:00,
2013-06-16 05:35:00,77.4,67.7,30.11,SE,143,11.0,11.0,72,0.00,,BKN027,0.00,VWS V14.01,2013-06-16 09:35:00,
2013-06-16 05:36:00,77.4,67.3,30.11,ESE,123,10.0,10.0,71,0.00,,CLR,0.00,VWS V14.01,2013-06-16 09:36:00,
2013-06-16 05:37:00,77.4,67.3,30.11,SE,141,13.0,13.0,71,0.00,,BKN027,0.00,VWS V14.01,2013-06-16 09:37:00,
2013-06-16 05:38:00,77.4,68.1,30.11,SE,142,11.0,13.0,73,0.00,,BKN027,0.00,VWS V14.01,2013-06-16 09:38:00,
2013-06-16 05:39:00,77.4,67.7,30.11,SSW,192,9.0,13.0,72,0.00,,BKN027,0.00,VWS V14.01,2013-06-16 09:39:00,
2013-06-16 05:40:00,77.4,67.7,30.11,SSE,155,12.0,12.0,72,0.00,,BKN027,0.00,VWS V14.01,2013-06-16 09:40:00,
2013-06-16 05:41:00,77.4,67.7,30.11,SSE,155,11.0,11.0,72,0.00,,CLR,0.00,VWS V14.01,2013-06-16 09:41:00,
2013-06-16 05:42:00,77.4,67.3,30.11,SSE,148,12.0,12.0,71,0.00,,BKN027,0.00,VWS V14.01,2013-06-16 09:42:00,
2013-06-16 05:43:00,77.4,67.3,30.11,SSE,154,11.0,12.0,71,0.00,,BKN027,0.00,VWS V14.01,2013-06-16 09:43:00,
2013-06-16 05:44:00,77.4,67.3,30.11,SSE,153,11.0,11.0,71,0.00,,BKN027,0.00,VWS V14.01,2013-06-16 09:44:00,
2013-06-16 05:45:00,77.4,67.3,30.11,SSE,165,7.0,11.0,71,0.00,,BKN027,0.00,VWS V14.01,2013-06-16 09:45:00,
2013-06-16 05:46:00,77.4,67.3,30.11,SE,144,11.0,12.0,71,0.00,,CLR,0.00,VWS V14.01,2013-06-16 09:46:00,
2013-06-16 05:47:00,77.4,67.3,30.11,SSE,150,9.0,12.0,71,0.00,,BKN027,0.00,VWS V14.01,2013-06-16 09:47:00,
2013-06-16 05:48:00,77.4,67.3,30.11,South,177,5.0,10.0,71,0.00,,BKN027,0.00,VWS V14.01,2013-06-16 09:48:00,
2013-06-16 05:49:00,77.2,66.7,30.11,SSE,163,4.0,9.0,70,0.00,,BKN027,0.00,VWS V14.01,2013-06-16 09:49:00,
2013-06-16 05:50:00,77.2,67.1,30.11,SE,146,10.0,10.0,71,0.00,,BKN027,0.00,VWS V14.01,2013-06-16 09:50:00,
2013-06-16 05:51:00,77.4,67.7,30.11,SE,142,14.0,15.0,72,0.00,,CLR,0.00,VWS V14.01,2013-06-16 09:51:00,
2013-06-16 05:52:00,77.4,67.7,30.11,SE,140,13.0,15.0,72,0.00,,BKN027,0.00,VWS V14.01,2013-06-16 09:52:00,
2013-06-16 05:53:00,77.4,67.3,30.11,SE,142,9.0,13.0,71,0.00,,BKN027,0.00,VWS V14.01,2013-06-16 09:53:00,
2013-06-16 05:54:00,77.4,67.3,30.11,SSE,153,11.0,12.0,71,0.00,,BKN027,0.00,VWS V14.01,2013-06-16 09:54:00,
2013-06-16 05:55:00,77.4,67.3,30.11,SE,142,12.0,12.0,71,0.00,,BKN027,0.00,VWS V14.01,2013-06-16 09:55:00,
2013-06-16 05:56:00,77.2,67.1,30.11,SSE,152,8.0,10.0,71,0.00,,CLR,0.00,VWS V14.01,2013-06-16 09:56:00,
2013-06-16 05:57:00,77.2,66.7,30.11,SSE,154,10.0,10.0,70,0.00,,BKN027,0.00,VWS V14.01,2013-06-16 09:57:00,
2013-06-16 05:58:00,77.2,66.7,30.11,SSE,152,10.0,10.0,70,0.00,,BKN027,0.00,VWS V14.01,2013-06-16 09:58:00,
2013-06-16 05:59:00,77.4,66.9,30.11,SSE,168,10.0,11.0,70,0.00,,BKN027,0.00,VWS V14.01,2013-06-16 09:59:00,
2013-06-16 06:00:00,77.4,67.7,30.11,SE,132,10.0,11.0,72,0.00,,BKN027,0.00,VWS V14.01,2013-06-16 10:00:00,
2013-06-16 06:01:00,77.4,67.7,30.11,SE,138,13.0,13.0,72,0.00,,CLR,0.00,VWS V14.01,2013-06-16 10:01:00,
2013-06-16 06:02:00,77.4,67.7,30.11,SE,141,10.0,13.0,72,0.00,,BKN027,0.00,VWS V14.01,2013-06-16 10:02:00,
2013-06-16 06:03:00,77.4,67.7,30.11,SE,134,7.0,12.0,72,0.00,,BKN027,0.00,VWS V14.01,2013-06-16 10:03:00,
2013-06-16 06:04:00,77.4,67.7,30.11,SE,142,8.0,8.0,72,0.00,,BKN027,0.00,VWS V14.01,2013-06-16 10:04:00,
2013-06-16 06:05:00,77.2,67.5,30.11,SE,140,9.0,11.0,72,0.00,,BKN027,0.00,VWS V14.01,2013-06-16 10:05:00,
2013-06-16 06:06:00,77.2,67.5,30.11,SSE,159,9.0,10.0,72,0.00,,CLR,0.00,VWS V14.01,2013-06-16 10:06:00,
2013-06-16 06:07:00,77.2,67.5,30.11,SSE,152,10.0,10.0,72,0.00,,BKN027,0.00,VWS V14.01,2013-06-16 10:07:00,
2013-06-16 06:08:00,77.2,66.7,30.11,SSE,160,8.0,10.0,70,0.00,,BKN027,0.00,VWS V14.01,2013-06-16 10:08:00,
2013-06-16 06:09:00,77.2,67.1,30.11,SE,144,11.0,14.0,71,0.00,,BKN027,0.00,VWS V14.01,2013-06-16 10:09:00,
2013-06-16 06:10:00,77.2,67.1,30.11,SE,144,11.0,11.0,71,0.00,,BKN027,0.00,VWS V14.01,2013-06-16 10:10:00,
2013-06-16 06:11:00,77.2,66.7,30.11,SE,137,11.0,11.0,70,0.00,,CLR,0.00,VWS V14.01,2013-06-16 10:11:00,
2013-06-16 06:12:00,77.2,66.7,30.11,SSE,153,9.0,11.0,70,0.00,,BKN027,0.00,VWS V14.01,2013-06-16 10:12:00,
2013-06-16 06:13:00,77.2,67.5,30.11,SE,143,9.0,11.0,72,0.00,,BKN027,0.00,VWS V14.01,2013-06-16 10:13:00,
2013-06-16 06:14:00,77.2,67.1,30.11,SSE,150,8.0,12.0,71,0.00,,BKN027,0.00,VWS V14.01,2013-06-16 10:14:00,
2013-06-16 06:15:00,77.2,66.7,30.11,SSE,154,9.0,12.0,70,0.00,,BKN027,0.00,VWS V14.01,2013-06-16 10:15:00,
2013-06-16 06:16:00,77.2,66.7,30.11,SSE,149,9.0,9.0,70,0.00,,CLR,0.00,VWS V14.01,2013-06-16 10:16:00,
2013-06-16 06:17:00,77.2,66.7,30.11,SSE,165,6.0,9.0,70,0.00,,BKN027,0.00,VWS V14.01,2013-06-16 10:17:00,
2013-06-16 06:18:00,77.4,66.9,30.11,SSE,165,7.0,7.0,70,0.00,,BKN027,0.00,VWS V14.01,2013-06-16 10:18:00,
2013-06-16 06:19:00,77.4,67.3,30.12,SE,146,7.0,8.0,71,0.00,,BKN027,0.00,VWS V14.01,2013-06-16 10:19:00,
2013-06-16 06:20:00,77.4,66.9,30.12,SSE,163,11.0,11.0,70,0.00,,BKN027,0.00,VWS V14.01,2013-06-16 10:20:00,
2013-06-16 06:21:00,77.4,67.3,30.12,SSE,148,7.0,9.0,71,0.00,,CLR,0.00,VWS V14.01,2013-06-16 10:21:00,
2013-06-16 06:22:00,77.4,67.3,30.12,SE,144,7.0,9.0,71,0.00,,BKN027,0.00,VWS V14.01,2013-06-16 10:22:00,
2013-06-16 06:23:00,77.4,67.7,30.12,SE,124,9.0,11.0,72,0.00,,BKN027,0.00,VWS V14.01,2013-06-16 10:23:00,
2013-06-16 06:24:00,77.4,67.3,30.12,ESE,120,10.0,12.0,71,0.00,,BKN027,0.00,VWS V14.01,2013-06-16 10:24:00,
2013-06-16 06:25:00,77.4,67.3,30.12,SE,130,12.0,12.0,71,0.00,,BKN027,0.00,VWS V14.01,2013-06-16 10:25:00,
2013-06-16 06:26:00,77.4,67.3,30.12,SE,144,11.0,11.0,71,0.00,,CLR,0.00,VWS V14.01,2013-06-16 10:26:00,
2013-06-16 06:27:00,77.4,67.7,30.12,SSE,158,10.0,11.0,72,0.00,,BKN027,0.00,VWS V14.01,2013-06-16 10:27:00,
2013-06-16 06:28:00,77.4,67.7,30.12,SSE,150,9.0,10.0,72,0.00,,BKN027,0.00,VWS V14.01,2013-06-16 10:28:00,
2013-06-16 06:29:00,77.4,68.1,30.12,SSE,163,6.0,9.0,73,0.00,,BKN027,0.00,VWS V14.01,2013-06-16 10:29:00,
2013-06-16 06:30:00,77.4,68.1,30.12,South,174,10.0,11.0,73,0.00,,BKN027,0.00,VWS V14.01,2013-06-16 10:30:00,
2013-06-16 06:31:00,77.2,67.1,30.12,SSE,163,8.0,10.0,71,0.00,,CLR,0.00,VWS V14.01,2013-06-16 10:31:00,
2013-06-16 06:32:00,77.2,67.1,30.12,South,175,6.0,10.0,71,0.00,,BKN027,0.00,VWS V14.01,2013-06-16 10:32:00,
2013-06-16 06:33:00,77.2,66.7,30.12,SE,141,4.0,10.0,70,0.00,,BKN027,0.00,VWS V14.01,2013-06-16 10:33:00,
2013-06-16 06:34:00,77.2,67.5,30.12,SSE,159,5.0,10.0,72,0.00,,BKN027,0.00,VWS V14.01,2013-06-16 10:34:00,
2013-06-16 06:35:00,77.2,67.5,30.12,SSE,168,6.0,8.0,72,0.00,,BKN027,0.00,VWS V14.01,2013-06-16 10:35:00,
2013-06-16 06:36:00,77.2,67.5,30.12,SSE,158,10.0,11.0,72,0.00,,CLR,0.00,VWS V14.01,2013-06-16 10:36:00,
2013-06-16 06:37:00,77.2,66.7,30.12,SE,146,9.0,11.0,70,0.00,,BKN027,0.00,VWS V14.01,2013-06-16 10:37:00,
2013-06-16 06:38:00,77.2,67.1,30.12,SSE,147,10.0,11.0,71,0.00,,BKN027,0.00,VWS V14.01,2013-06-16 10:38:00,
2013-06-16 06:39:00,77.2,66.7,30.12,SE,134,9.0,10.0,70,0.00,,BKN027,0.00,VWS V14.01,2013-06-16 10:39:00,
2013-06-16 06:40:00,77.2,66.7,30.12,SSE,153,9.0,10.0,70,0.00,,BKN027,0.00,VWS V14.01,2013-06-16 10:40:00,
2013-06-16 06:41:00,77.2,66.7,30.12,SE,142,10.0,10.0,70,0.00,,CLR,0.00,VWS V14.01,2013-06-16 10:41:00,
2013-06-16 06:42:00,77.4,66.9,30.12,SE,145,11.0,11.0,70,0.00,,BKN027,0.00,VWS V14.01,2013-06-16 10:42:00,
2013-06-16 06:43:00,77.4,66.9,30.12,SSE,152,10.0,11.0,70,0.00,,BKN027,0.00,VWS V14.01,2013-06-16 10:43:00,
2013-06-16 06:44:00,77.4,67.3,30.12,SSE,165,11.0,12.0,71,0.00,,BKN027,0.00,VWS V14.01,2013-06-16 10:44:00,
2013-06-16 06:45:00,77.4,66.9,30.12,SSE,159,10.0,12.0,70,0.00,,BKN027,0.00,VWS V14.01,2013-06-16 10:45:00,
2013-06-16 06:46:00,77.4,66.9,30.12,SSE,161,9.0,11.0,70,0.00,,CLR,0.00,VWS V14.01,2013-06-16 10:46:00,
2013-06-16 06:47:00,77.4,66.9,30.12,SSE,165,6.0,11.0,70,0.00,,BKN027,0.00,VWS V14.01,2013-06-16 10:47:00,
2013-06-16 06:48:00,77.4,66.9,30.12,SSE,148,7.0,10.0,70,0.00,,BKN027,0.00,VWS V14.01,2013-06-16 10:48:00,
2013-06-16 06:49:00,77.4,66.9,30.12,SE,128,7.0,11.0,70,0.00,,BKN027,0.00,VWS V14.01,2013-06-16 10:49:00,
2013-06-16 06:50:00,77.4,66.9,30.12,SE,127,11.0,11.0,70,0.00,,BKN027,0.00,VWS V14.01,2013-06-16 10:50:00,
2013-06-16 06:51:00,77.4,66.9,30.12,SSE,150,12.0,12.0,70,0.00,,CLR,0.00,VWS V14.01,2013-06-16 10:51:00,
2013-06-16 06:52:00,77.4,66.9,30.12,South,183,10.0,12.0,70,0.00,,BKN027,0.00,VWS V14.01,2013-06-16 10:52:00,
2013-06-16 06:53:00,77.4,66.4,30.12,SSE,148,11.0,11.0,69,0.00,,BKN027,0.00,VWS V14.01,2013-06-16 10:53:00,
2013-06-16 06:54:00,77.4,66.4,30.12,SE,130,9.0,11.0,69,0.00,,BKN027,0.00,VWS V14.01,2013-06-16 10:54:00,
2013-06-16 06:55:00,77.4,67.3,30.12,SSE,150,9.0,11.0,71,0.00,,BKN027,0.00,VWS V14.01,2013-06-16 10:55:00,
2013-06-16 06:56:00,77.4,67.3,30.12,SSE,160,9.0,12.0,71,0.00,,CLR,0.00,VWS V14.01,2013-06-16 10:56:00,
2013-06-16 06:57:00,77.6,67.5,30.12,SSE,167,8.0,12.0,71,0.00,,BKN027,0.00,VWS V14.01,2013-06-16 10:57:00,
2013-06-16 06:58:00,77.4,66.9,30.12,SSE,167,7.0,9.0,70,0.00,,BKN027,0.00,VWS V14.01,2013-06-16 10:58:00,
2013-06-16 06:59:00,77.4,66.9,30.12,SE,144,9.0,9.0,70,0.00,,BKN027,0.00,VWS V14.01,2013-06-16 10:59:00,
2013-06-16 07:00:00,77.4,66.4,30.12,SSE,157,6.0,10.0,69,0.00,,BKN027,0.00,VWS V14.01,2013-06-16 11:00:00,
2013-06-16 07:01:00,77.6,67.5,30.12,SSE,153,13.0,13.0,71,0.00,,CLR,0.00,VWS V14.01,2013-06-16 11:01:00,
2013-06-16 07:02:00,77.6,67.5,30.12,SE,127,14.0,14.0,71,0.00,,BKN027,0.00,VWS V14.01,2013-06-16 11:02:00,
2013-06-16 07:03:00,77.6,67.5,30.12,SE,130,10.0,14.0,71,0.00,,BKN027,0.00,VWS V14.01,2013-06-16 11:03:00,
2013-06-16 07:04:00,77.6,67.5,30.12,SSE,147,10.0,12.0,71,0.00,,BKN027,0.00,VWS V14.01,2013-06-16 11:04:00,
2013-06-16 07:05:00,77.6,67.5,30.12,SE,128,11.0,12.0,71,0.00,,BKN027,0.00,VWS V14.01,2013-06-16 11:05:00,
2013-06-16 07:06:00,77.6,66.6,30.12,SE,138,10.0,12.0,69,0.00,,CLR,0.00,VWS V14.01,2013-06-16 11:06:00,
2013-06-16 07:07:00,77.6,66.6,30.12,SE,136,11.0,12.0,69,0.00,,BKN027,0.00,VWS V14.01,2013-06-16 11:07:00,
2013-06-16 07:08:00,77.6,66.6,30.12,SE,138,11.0,12.0,69,0.00,,BKN027,0.00,VWS V14.01,2013-06-16 11:08:00,
2013-06-16 07:09:00,77.6,67.1,30.12,SE,124,10.0,12.0,70,0.00,,BKN027,0.00,VWS V14.01,2013-06-16 11:09:00,
2013-06-16 07:10:00,77.6,67.1,30.12,SSE,158,7.0,11.0,70,0.00,,BKN027,0.00,VWS V14.01,2013-06-16 11:10:00,
2013-06-16 07:11:00,77.6,67.1,30.12,SSE,155,6.0,6.0,70,0.00,,CLR,0.00,VWS V14.01,2013-06-16 11:11:00,
2013-06-16 07:12:00,77.6,67.1,30.12,SSE,159,7.0,7.0,70,0.00,,BKN027,0.00,VWS V14.01,2013-06-16 11:12:00,
2013-06-16 07:13:00,77.7,67.1,30.12,SSE,160,7.0,7.0,70,0.00,,BKN027,0.00,VWS V14.01,2013-06-16 11:13:00,
2013-06-16 07:14:00,77.7,67.1,30.12,SSE,165,5.0,7.0,70,0.00,,BKN027,0.00,VWS V14.01,2013-06-16 11:14:00,
2013-06-16 07:15:00,77.7,67.6,30.12,SSE,153,7.0,7.0,71,0.00,,BKN027,0.00,VWS V14.01,2013-06-16 11:15:00,
2013-06-16 07:16:00,77.7,67.6,30.12,SSE,162,7.0,7.0,71,0.00,,CLR,0.00,VWS V14.01,2013-06-16 11:16:00,
2013-06-16 07:17:00,77.7,67.6,30.12,SSE,153,10.0,10.0,71,0.00,,BKN027,0.00,VWS V14.01,2013-06-16 11:17:00,
2013-06-16 07:18:00,77.7,67.6,30.12,SSE,158,9.0,10.0,71,0.00,,BKN027,0.00,VWS V14.01,2013-06-16 11:18:00,
2013-06-16 07:19:00,77.7,67.1,30.12,SE,143,9.0,9.0,70,0.00,,BKN027,0.00,VWS V14.01,2013-06-16 11:19:00,
2013-06-16 07:20:00,77.7,67.6,30.12,SE,146,8.0,11.0,71,0.00,,BKN027,0.00,VWS V14.01,2013-06-16 11:20:00,
2013-06-16 07:21:00,77.7,67.1,30.12,SE,126,6.0,10.0,70,0.00,,CLR,0.00,VWS V14.01,2013-06-16 11:21:00,
2013-06-16 07:22:00,77.9,67.3,30.12,SE,139,9.0,10.0,70,0.00,,BKN027,0.00,VWS V14.01,2013-06-16 11:22:00,
2013-06-16 07:23:00,77.7,66.7,30.12,SE,127,11.0,11.0,69,0.00,,BKN027,0.00,VWS V14.01,2013-06-16 11:23:00,
2013-06-16 07:24:00,77.7,66.7,30.12,SE,136,12.0,13.0,69,0.00,,BKN027,0.00,VWS V14.01,2013-06-16 11:24:00,
2013-06-16 07:25:00,77.7,66.7,30.12,SE,141,10.0,12.0,69,0.00,,BKN027,0.00,VWS V14.01,2013-06-16 11:25:00,
2013-06-16 07:26:00,77.9,66.9,30.12,SSE,150,6.0,11.0,69,0.00,,CLR,0.00,VWS V14.01,2013-06-16 11:26:00,
2013-06-16 07:27:00,77.9,67.8,30.12,SE,142,11.0,11.0,71,0.00,,BKN027,0.00,VWS V14.01,2013-06-16 11:27:00,
2013-06-16 07:28:00,77.9,67.8,30.12,SE,138,12.0,12.0,71,0.00,,BKN027,0.00,VWS V14.01,2013-06-16 11:28:00,
2013-06-16 07:29:00,77.9,66.5,30.12,SE,138,11.0,12.0,68,0.00,,BKN027,0.00,VWS V14.01,2013-06-16 11:29:00,
2013-06-16 07:30:00,77.9,66.9,30.12,SSE,157,6.0,11.0,69,0.00,,BKN027,0.00,VWS V14.01,2013-06-16 11:30:00,
2013-06-16 07:31:00,77.9,66.9,30.12,SE,140,7.0,9.0,69,0.00,,CLR,0.00,VWS V14.01,2013-06-16 11:31:00,
2013-06-16 07:32:00,77.9,66.9,30.12,SSE,149,7.0,9.0,69,0.00,,BKN027,0.00,VWS V14.01,2013-06-16 11:32:00,
2013-06-16 07:33:00,77.9,66.9,30.12,SSE,150,7.0,7.0,69,0.00,,BKN027,0.00,VWS V14.01,2013-06-16 11:33:00,
2013-06-16 07:34:00,77.9,66.5,30.12,SE,144,5.0,7.0,68,0.00,,BKN027,0.00,VWS V14.01,2013-06-16 11:34:00,
2013-06-16 07:35:00,77.9,66.9,30.12,SE,140,7.0,7.0,69,0.00,,BKN027,0.00,VWS V14.01,2013-06-16 11:35:00,
2013-06-16 07:36:00,77.9,66.9,30.12,SE,130,10.0,12.0,69,0.00,,CLR,0.00,VWS V14.01,2013-06-16 11:36:00,
2013-06-16 07:37:00,77.9,66.9,30.12,SE,140,8.0,12.0,69,0.00,,BKN027,0.00,VWS V14.01,2013-06-16 11:37:00,
2013-06-16 07:38:00,77.9,66.9,30.13,SE,138,11.0,11.0,69,0.00,,BKN027,0.00,VWS V14.01,2013-06-16 11:38:00,
2013-06-16 07:39:00,77.9,66.9,30.12,SE,146,11.0,11.0,69,0.00,,BKN027,0.00,VWS V14.01,2013-06-16 11:39:00,
2013-06-16 07:40:00,78.1,67.5,30.13,SE,136,9.0,11.0,70,0.00,,BKN027,0.00,VWS V14.01,2013-06-16 11:40:00,
2013-06-16 07:41:00,78.1,67.1,30.13,SE,145,7.0,9.0,69,0.00,,CLR,0.00,VWS V14.01,2013-06-16 11:41:00,
2013-06-16 07:42:00,78.1,67.1,30.13,SE,143,6.0,9.0,69,0.00,,BKN027,0.00,VWS V14.01,2013-06-16 11:42:00,
2013-06-16 07:43:00,78.1,67.1,30.13,SE,132,8.0,8.0,69,0.00,,BKN027,0.00,VWS V14.01,2013-06-16 11:43:00,
2013-06-16 07:44:00,78.1,67.5,30.13,SSE,157,12.0,12.0,70,0.00,,BKN027,0.00,VWS V14.01,2013-06-16 11:44:00,
2013-06-16 07:45:00,78.1,66.7,30.13,SSE,161,9.0,12.0,68,0.00,,BKN027,0.00,VWS V14.01,2013-06-16 11:45:00,
2013-06-16 07:46:00,78.1,66.3,30.13,South,175,4.0,7.0,67,0.00,,CLR,0.00,VWS V14.01,2013-06-16 11:46:00,
2013-06-16 07:47:00,78.1,66.3,30.13,SSE,166,6.0,7.0,67,0.00,,BKN027,0.00,VWS V14.01,2013-06-16 11:47:00,
2013-06-16 07:48:00,78.1,66.3,30.13,SSE,158,6.0,6.0,67,0.00,,BKN027,0.00,VWS V14.01,2013-06-16 11:48:00,
2013-06-16 07:49:00,78.3,66.9,30.13,SE,138,6.0,10.0,68,0.00,,BKN027,0.00,VWS V14.01,2013-06-16 11:49:00,
2013-06-16 07:50:00,78.3,66.9,30.13,SE,124,10.0,11.0,68,0.00,,BKN027,0.00,VWS V14.01,2013-06-16 11:50:00,
2013-06-16 07:51:00,78.3,67.3,30.13,SE,142,10.0,13.0,69,0.00,,CLR,0.00,VWS V14.01,2013-06-16 11:51:00,
2013-06-16 07:52:00,78.3,67.3,30.13,SSE,147,7.0,13.0,69,0.00,,BKN027,0.00,VWS V14.01,2013-06-16 11:52:00,
2013-06-16 07:53:00,78.3,66.9,30.13,SE,138,6.0,7.0,68,0.00,,BKN027,0.00,VWS V14.01,2013-06-16 11:53:00,
2013-06-16 07:54:00,78.3,66.9,30.13,SE,128,9.0,9.0,68,0.00,,BKN027,0.00,VWS V14.01,2013-06-16 11:54:00,
2013-06-16 07:55:00,78.3,66.9,30.13,SSE,148,7.0,9.0,68,0.00,,BKN027,0.00,VWS V14.01,2013-06-16 11:55:00,
2013-06-16 07:56:00,78.3,67.3,30.13,SE,128,7.0,9.0,69,0.00,,CLR,0.00,VWS V14.01,2013-06-16 11:56:00,
2013-06-16 07:57:00,78.3,66.4,30.13,SE,125,7.0,9.0,67,0.00,,BKN027,0.00,VWS V14.01,2013-06-16 11:57:00,
2013-06-16 07:58:00,78.3,66.9,30.13,SE,126,7.0,8.0,68,0.00,,BKN027,0.00,VWS V14.01,2013-06-16 11:58:00,
2013-06-16 07:59:00,78.3,66.4,30.13,SE,131,7.0,8.0,67,0.00,,BKN027,0.00,VWS V14.01,2013-06-16 11:59:00,
2013-06-16 08:00:00,78.3,66.9,30.13,SE,135,5.0,7.0,68,0.00,,BKN027,0.00,VWS V14.01,2013-06-16 12:00:00,
2013-06-16 08:01:00,78.3,66.4,30.13,SE,138,4.0,5.0,67,0.00,,CLR,0.00,VWS V14.01,2013-06-16 12:01:00,
2013-06-16 08:02:00,78.3,66.9,29.87,SSE,148,10.0,11.0,68,0.00,,BKN027,0.00,VWS V14.01,2013-06-16 12:02:00,
2013-06-16 08:03:00,78.3,66.9,29.87,SE,144,6.0,10.0,68,0.00,,BKN027,0.00,VWS V14.01,2013-06-16 12:03:00,
2013-06-16 08:04:00,78.3,66.9,29.87,SE,140,6.0,10.0,68,0.00,,BKN027,0.00,VWS V14.01,2013-06-16 12:04:00,
2013-06-16 08:05:00,78.3,66.4,29.87,South,170,4.0,6.0,67,0.00,,BKN027,0.00,VWS V14.01,2013-06-16 12:05:00,
2013-06-16 08:06:00,78.5,67.1,30.13,SE,136,8.0,8.0,68,0.00,,CLR,0.00,VWS V14.01,2013-06-16 12:06:00,
2013-06-16 08:07:00,78.5,67.1,30.13,SSE,153,9.0,9.0,68,0.00,,BKN027,0.00,VWS V14.01,2013-06-16 12:07:00,
2013-06-16 08:08:00,78.5,67.1,30.14,South,170,9.0,9.0,68,0.00,,BKN027,0.00,VWS V14.01,2013-06-16 12:08:00,
2013-06-16 08:09:00,78.5,67.1,30.13,SE,136,10.0,10.0,68,0.00,,BKN027,0.00,VWS V14.01,2013-06-16 12:09:00,
2013-06-16 08:10:00,78.5,67.1,30.14,SE,139,11.0,12.0,68,0.00,,BKN027,0.00,VWS V14.01,2013-06-16 12:10:00,
2013-06-16 08:11:00,78.5,66.6,30.14,SE,125,7.0,9.0,67,0.00,,CLR,0.00,VWS V14.01,2013-06-16 12:11:00,
2013-06-16 08:12:00,78.5,67.1,30.14,SE,144,9.0,10.0,68,0.00,,BKN027,0.00,VWS V14.01,2013-06-16 12:12:00,
2013-06-16 08:13:00,78.5,66.6,30.14,SE,136,9.0,10.0,67,0.00,,BKN027,0.00,VWS V14.01,2013-06-16 12:13:00,
2013-06-16 08:14:00,78.5,67.1,30.14,SE,141,8.0,9.0,68,0.00,,BKN027,0.00,VWS V14.01,2013-06-16 12:14:00,
2013-06-16 08:15:00,78.5,66.2,29.92,SE,132,9.0,9.0,66,0.00,,BKN027,0.00,VWS V14.01,2013-06-16 12:15:00,
2013-06-16 08:16:00,78.6,66.7,29.92,ESE,107,9.0,11.0,67,0.00,,CLR,0.00,VWS V14.01,2013-06-16 12:16:00,
2013-06-16 08:17:00,78.6,67.6,29.92,SE,134,10.0,11.0,69,0.00,,BKN027,0.00,VWS V14.01,2013-06-16 12:17:00,
2013-06-16 08:18:00,78.6,67.6,29.92,SSE,154,6.0,10.0,69,0.00,,BKN027,0.00,VWS V14.01,2013-06-16 12:18:00,
2013-06-16 08:19:00,78.6,68.0,30.13,SE,135,8.0,8.0,70,0.00,,BKN027,0.00,VWS V14.01,2013-06-16 12:19:00,
2013-06-16 08:20:00,78.6,67.6,30.13,SE,139,7.0,10.0,69,0.00,,BKN027,0.00,VWS V14.01,2013-06-16 12:20:00,
2013-06-16 08:21:00,78.6,66.7,30.13,SE,129,9.0,9.0,67,0.00,,CLR,0.00,VWS V14.01,2013-06-16 12:21:00,
2013-06-16 08:22:00,78.6,66.7,30.13,SE,128,7.0,9.0,67,0.00,,BKN027,0.00,VWS V14.01,2013-06-16 12:22:00,
2013-06-16 08:23:00,78.6,66.3,30.14,SE,128,7.0,9.0,66,0.00,,BKN027,0.00,VWS V14.01,2013-06-16 12:23:00,
2013-06-16 08:24:00,78.6,67.2,30.14,SE,145,9.0,11.0,68,0.00,,BKN027,0.00,VWS V14.01,2013-06-16 12:24:00,
2013-06-16 08:25:00,78.6,66.3,30.09,SE,142,9.0,11.0,66,0.00,,BKN027,0.00,VWS V14.01,2013-06-16 12:25:00,
2013-06-16 08:26:00,78.6,66.7,30.09,SE,141,9.0,10.0,67,0.00,,CLR,0.00,VWS V14.01,2013-06-16 12:26:00,
2013-06-16 08:27:00,78.8,66.9,30.09,SE,134,10.0,10.0,67,0.00,,BKN027,0.00,VWS V14.01,2013-06-16 12:27:00,
2013-06-16 08:28:00,78.6,67.2,29.92,SE,142,7.0,10.0,68,0.00,,BKN027,0.00,VWS V14.01,2013-06-16 12:28:00,
2013-06-16 08:29:00,78.6,66.7,29.92,SSE,148,7.0,9.0,67,0.00,,BKN027,0.00,VWS V14.01,2013-06-16 12:29:00,
2013-06-16 08:30:00,78.8,66.5,29.92,SSE,157,6.0,7.0,66,0.00,,BKN027,0.00,VWS V14.01,2013-06-16 12:30:00,
2013-06-16 08:31:00,78.8,67.4,30.13,SSE,159,6.0,10.0,68,0.00,,CLR,0.00,VWS V14.01,2013-06-16 12:31:00,
2013-06-16 08:32:00,78.8,67.4,30.13,SE,132,11.0,11.0,68,0.00,,BKN027,0.00,VWS V14.01,2013-06-16 12:32:00,
2013-06-16 08:33:00,78.8,67.4,30.13,SE,134,8.0,13.0,68,0.00,,BKN027,0.00,VWS V14.01,2013-06-16 12:33:00,
2013-06-16 08:34:00,78.8,66.9,30.13,SE,132,11.0,11.0,67,0.00,,BKN027,0.00,VWS V14.01,2013-06-16 12:34:00,
2013-06-16 08:35:00,78.8,66.5,30.13,SE,139,9.0,11.0,66,0.00,,BKN027,0.00,VWS V14.01,2013-06-16 12:35:00,
2013-06-16 08:36:00,78.8,67.4,30.13,SE,137,10.0,11.0,68,0.00,,CLR,0.00,VWS V14.01,2013-06-16 12:36:00,
2013-06-16 08:37:00,78.8,67.4,30.13,ESE,123,11.0,11.0,68,0.00,,BKN027,0.00,VWS V14.01,2013-06-16 12:37:00,
2013-06-16 08:38:00,78.6,67.2,30.13,SE,128,10.0,12.0,68,0.00,,BKN027,0.00,VWS V14.01,2013-06-16 12:38:00,
2013-06-16 08:39:00,78.6,66.7,30.14,SE,128,11.0,11.0,67,0.00,,BKN027,0.00,VWS V14.01,2013-06-16 12:39:00,
2013-06-16 08:40:00,78.6,66.3,30.14,SE,126,10.0,11.0,66,0.00,,BKN027,0.00,VWS V14.01,2013-06-16 12:40:00,
2013-06-16 08:41:00,78.6,66.3,30.14,SSE,149,6.0,10.0,66,0.00,,CLR,0.00,VWS V14.01,2013-06-16 12:41:00,
2013-06-16 08:42:00,78.6,66.7,30.14,SSE,152,8.0,10.0,67,0.00,,BKN027,0.00,VWS V14.01,2013-06-16 12:42:00,
2013-06-16 08:43:00,78.6,66.7,30.14,SE,135,9.0,9.0,67,0.00,,BKN027,0.00,VWS V14.01,2013-06-16 12:43:00,
2013-06-16 08:44:00,78.8,66.9,30.14,SE,125,10.0,10.0,67,0.00,,BKN027,0.00,VWS V14.01,2013-06-16 12:44:00,
2013-06-16 08:45:00,78.8,66.9,30.14,SE,138,8.0,10.0,67,0.00,,BKN027,0.00,VWS V14.01,2013-06-16 12:45:00,
2013-06-16 08:46:00,78.8,67.4,30.09,SE,131,9.0,11.0,68,0.00,,CLR,0.00,VWS V14.01,2013-06-16 12:46:00,
2013-06-16 08:47:00,78.8,66.9,30.09,SE,132,9.0,11.0,67,0.00,,BKN027,0.00,VWS V14.01,2013-06-16 12:47:00,
2013-06-16 08:48:00,78.8,66.9,30.09,SE,130,8.0,10.0,67,0.00,,BKN027,0.00,VWS V14.01,2013-06-16 12:48:00,
2013-06-16 08:49:00,78.8,67.4,30.09,SE,132,10.0,12.0,68,0.00,,BKN027,0.00,VWS V14.01,2013-06-16 12:49:00,
2013-06-16 08:50:00,78.8,66.9,30.05,SSE,147,13.0,13.0,67,0.00,,BKN027,0.00,VWS V14.01,2013-06-16 12:50:00,
2013-06-16 08:51:00,78.8,66.5,30.05,SSE,147,10.0,11.0,66,0.00,,CLR,0.00,VWS V14.01,2013-06-16 12:51:00,
2013-06-16 08:52:00,78.8,66.5,30.05,SE,132,9.0,11.0,66,0.00,,BKN027,0.00,VWS V14.01,2013-06-16 12:52:00,
2013-06-16 08:53:00,78.8,66.5,30.10,SSE,163,6.0,9.0,66,0.00,,BKN027,0.00,VWS V14.01,2013-06-16 12:53:00,
2013-06-16 08:54:00,78.8,66.5,30.10,SE,133,7.0,7.0,66,0.00,,BKN027,0.00,VWS V14.01,2013-06-16 12:54:00,
2013-06-16 08:55:00,78.8,66.1,30.10,SE,140,9.0,9.0,65,0.00,,BKN027,0.00,VWS V14.01,2013-06-16 12:55:00,
2013-06-16 08:56:00,78.8,66.1,30.10,SSE,147,5.0,5.0,65,0.00,,CLR,0.00,VWS V14.01,2013-06-16 12:56:00,
2013-06-16 08:57:00,78.8,66.1,30.10,SSE,151,7.0,7.0,65,0.00,,BKN027,0.00,VWS V14.01,2013-06-16 12:57:00,
2013-06-16 08:58:00,79.0,67.1,29.84,SSE,158,5.0,8.0,67,0.00,,BKN027,0.00,VWS V14.01,2013-06-16 12:58:00,
2013-06-16 08:59:00,79.0,67.1,29.84,SSE,161,5.0,10.0,67,0.00,,BKN027,0.00,VWS V14.01,2013-06-16 12:59:00,
2013-06-16 09:00:00,79.2,66.9,29.84,SE,137,7.0,7.0,66,0.00,,BKN027,0.00,VWS V14.01,2013-06-16 13:00:00,
2013-06-16 09:01:00,79.2,66.4,29.84,SE,136,10.0,10.0,65,0.00,,CLR,0.00,VWS V14.01,2013-06-16 13:01:00,
2013-06-16 09:02:00,79.4,67.1,29.84,SE,134,10.0,10.0,66,0.00,,BKN027,0.00,VWS V14.01,2013-06-16 13:02:00,
2013-06-16 09:03:00,79.4,66.6,29.84,SE,140,11.0,11.0,65,0.00,,BKN027,0.00,VWS V14.01,2013-06-16 13:03:00,
2013-06-16 09:04:00,79.2,66.0,29.84,SE,146,7.0,11.0,64,0.00,,BKN027,0.00,VWS V14.01,2013-06-16 13:04:00,
2013-06-16 09:05:00,79.2,66.0,29.84,SE,134,10.0,10.0,64,0.00,,BKN027,0.00,VWS V14.01,2013-06-16 13:05:00,
2013-06-16 09:06:00,79.2,66.9,29.92,SE,127,9.0,11.0,66,0.00,,CLR,0.00,VWS V14.01,2013-06-16 13:06:00,
2013-06-16 09:07:00,79.2,66.4,29.92,SE,126,6.0,11.0,65,0.00,,BKN027,0.00,VWS V14.01,2013-06-16 13:07:00,
2013-06-16 09:08:00,79.2,67.3,29.92,SE,129,8.0,10.0,67,0.00,,BKN027,0.00,VWS V14.01,2013-06-16 13:08:00,
2013-06-16 09:09:00,79.2,66.0,29.92,SE,138,6.0,8.0,64,0.00,,BKN027,0.00,VWS V14.01,2013-06-16 13:09:00,
2013-06-16 09:10:00,79.2,66.9,30.01,ESE,111,10.0,10.0,66,0.00,,BKN027,0.00,VWS V14.01,2013-06-16 13:10:00,
2013-06-16 09:11:00,79.2,66.9,29.92,SSE,150,6.0,8.0,66,0.00,,CLR,0.00,VWS V14.01,2013-06-16 13:11:00,
2013-06-16 09:12:00,79.2,66.9,29.92,SE,138,5.0,8.0,66,0.00,,BKN027,0.00,VWS V14.01,2013-06-16 13:12:00,
2013-06-16 09:13:00,79.2,67.3,29.92,SE,137,6.0,7.0,67,0.00,,BKN027,0.00,VWS V14.01,2013-06-16 13:13:00,
2013-06-16 09:14:00,79.4,67.1,29.88,SE,132,6.0,8.0,66,0.00,,BKN027,0.00,VWS V14.01,2013-06-16 13:14:00,
2013-06-16 09:15:00,79.4,66.6,29.88,SE,130,6.0,7.0,65,0.00,,BKN027,0.00,VWS V14.01,2013-06-16 13:15:00,
2013-06-16 09:16:00,79.4,66.6,29.88,SE,130,6.0,7.0,65,0.00,,CLR,0.00,VWS V14.01,2013-06-16 13:16:00,
2013-06-16 09:17:00,79.4,66.6,29.88,SE,126,7.0,7.0,65,0.00,,BKN027,0.00,VWS V14.01,2013-06-16 13:17:00,
2013-06-16 09:18:00,79.6,66.8,29.88,SSE,153,6.0,7.0,65,0.00,,BKN027,0.00,VWS V14.01,2013-06-16 13:18:00,
2013-06-16 09:19:00,79.6,66.8,29.97,SE,146,8.0,11.0,65,0.00,,BKN027,0.00,VWS V14.01,2013-06-16 13:19:00,
2013-06-16 09:20:00,79.6,66.8,29.97,SE,142,8.0,11.0,65,0.00,,BKN027,0.00,VWS V14.01,2013-06-16 13:20:00,
2013-06-16 09:21:00,79.6,66.8,29.97,SE,140,7.0,9.0,65,0.00,,CLR,0.00,VWS V14.01,2013-06-16 13:21:00,
2013-06-16 09:22:00,79.6,66.8,29.93,SE,138,6.0,9.0,65,0.00,,BKN027,0.00,VWS V14.01,2013-06-16 13:22:00,
2013-06-16 09:23:00,79.6,66.4,29.93,SE,139,9.0,9.0,64,0.00,,BKN027,0.00,VWS V14.01,2013-06-16 13:23:00,
2013-06-16 09:24:00,79.6,66.8,29.93,SE,142,8.0,9.0,65,0.00,,BKN027,0.00,VWS V14.01,2013-06-16 13:24:00,
2013-06-16 09:25:00,79.6,66.4,29.93,SE,144,8.0,8.0,64,0.00,,BKN027,0.00,VWS V14.01,2013-06-16 13:25:00,
2013-06-16 09:26:00,79.6,66.8,29.93,ESE,119,6.0,7.0,65,0.00,,CLR,0.00,VWS V14.01,2013-06-16 13:26:00,
2013-06-16 09:27:00,79.6,66.8,29.93,SE,130,5.0,7.0,65,0.00,,BKN027,0.00,VWS V14.01,2013-06-16 13:27:00,
2013-06-16 09:28:00,79.6,66.4,29.93,South,188,5.0,7.0,64,0.00,,BKN027,0.00,VWS V14.01,2013-06-16 13:28:00,
2013-06-16 09:29:00,79.8,66.6,29.93,SSE,157,7.0,8.0,64,0.00,,BKN027,0.00,VWS V14.01,2013-06-16 13:29:00,
2013-06-16 09:30:00,79.8,66.6,29.93,South,169,5.0,7.0,64,0.00,,BKN027,0.00,VWS V14.01,2013-06-16 13:30:00,
2013-06-16 09:31:00,79.9,66.2,29.97,SSE,155,7.0,9.0,63,0.00,,CLR,0.00,VWS V14.01,2013-06-16 13:31:00,
2013-06-16 09:32:00,79.9,66.2,29.97,SE,146,8.0,9.0,63,0.00,,BKN027,0.00,VWS V14.01,2013-06-16 13:32:00,
2013-06-16 09:33:00,79.9,66.6,29.97,SSE,161,5.0,8.0,64,0.00,,BKN027,0.00,VWS V14.01,2013-06-16 13:33:00,
2013-06-16 09:34:00,80.1,66.4,29.88,SSW,197,6.0,6.0,63,0.00,,BKN027,0.00,VWS V14.01,2013-06-16 13:34:00,
2013-06-16 09:35:00,80.1,66.4,29.89,SSE,163,5.0,6.0,63,0.00,,BKN027,0.00,VWS V14.01,2013-06-16 13:35:00,
2013-06-16 09:36:00,80.1,66.4,29.89,SE,146,7.0,8.0,63,0.00,,CLR,0.00,VWS V14.01,2013-06-16 13:36:00,
2013-06-16 09:37:00,80.1,65.9,29.89,South,171,6.0,8.0,62,0.00,,BKN027,0.00,VWS V14.01,2013-06-16 13:37:00,
2013-06-16 09:38:00,80.1,67.7,29.84,SE,140,7.0,8.0,66,0.00,,BKN027,0.00,VWS V14.01,2013-06-16 13:38:00,
2013-06-16 09:39:00,80.3,67.5,29.84,SE,146,7.0,9.0,65,0.00,,BKN027,0.00,VWS V14.01,2013-06-16 13:39:00,
2013-06-16 09:40:00,80.3,66.6,29.84,SSE,149,5.0,9.0,63,0.00,,BKN027,0.00,VWS V14.01,2013-06-16 13:40:00,
2013-06-16 09:41:00,80.3,66.6,29.84,SSE,148,7.0,10.0,63,0.00,,CLR,0.00,VWS V14.01,2013-06-16 13:41:00,
2013-06-16 09:42:00,80.3,66.1,29.84,SE,142,9.0,10.0,62,0.00,,BKN027,0.00,VWS V14.01,2013-06-16 13:42:00,
2013-06-16 09:43:00,80.1,65.4,29.84,SE,134,8.0,10.0,61,0.00,,BKN027,0.00,VWS V14.01,2013-06-16 13:43:00,
2013-06-16 09:44:00,80.1,65.9,30.10,SE,142,9.0,9.0,62,0.00,,BKN027,0.00,VWS V14.01,2013-06-16 13:44:00,
2013-06-16 09:45:00,80.1,66.8,30.10,SE,144,9.0,9.0,64,0.00,,BKN027,0.00,VWS V14.01,2013-06-16 13:45:00,
2013-06-16 09:46:00,79.9,66.2,30.15,SE,144,5.0,7.0,63,0.00,,CLR,0.00,VWS V14.01,2013-06-16 13:46:00,
2013-06-16 09:47:00,79.9,66.2,30.15,SSE,148,7.0,7.0,63,0.00,,BKN027,0.00,VWS V14.01,2013-06-16 13:47:00,
2013-06-16 09:48:00,79.9,65.7,30.15,SE,143,7.0,7.0,62,0.00,,BKN027,0.00,VWS V14.01,2013-06-16 13:48:00,
2013-06-16 09:49:00,79.9,66.2,30.15,SSE,148,7.0,7.0,63,0.00,,BKN027,0.00,VWS V14.01,2013-06-16 13:49:00,
2013-06-16 09:50:00,79.9,66.6,30.15,SE,146,6.0,7.0,64,0.00,,BKN027,0.00,VWS V14.01,2013-06-16 13:50:00,
2013-06-16 09:51:00,79.9,65.7,30.15,SSE,161,5.0,6.0,62,0.00,,CLR,0.00,VWS V14.01,2013-06-16 13:51:00,
2013-06-16 09:52:00,79.9,65.7,30.15,South,184,4.0,6.0,62,0.00,,BKN027,0.00,VWS V14.01,2013-06-16 13:52:00,
2013-06-16 09:53:00,80.1,65.4,30.15,SE,136,6.0,6.0,61,0.00,,BKN027,0.00,VWS V14.01,2013-06-16 13:53:00,
2013-06-16 09:54:00,80.1,65.9,30.15,SSE,150,4.0,6.0,62,0.00,,BKN027,0.00,VWS V14.01,2013-06-16 13:54:00,
2013-06-16 09:55:00,80.1,65.9,30.15,SE,146,6.0,6.0,62,0.00,,BKN027,0.00,VWS V14.01,2013-06-16 13:55:00,
2013-06-16 09:56:00,80.1,65.4,30.15,SSE,149,4.0,6.0,61,0.00,,CLR,0.00,VWS V14.01,2013-06-16 13:56:00,
2013-06-16 09:57:00,80.3,65.6,30.15,SSE,148,5.0,6.0,61,0.00,,BKN027,0.00,VWS V14.01,2013-06-16 13:57:00,
2013-06-16 09:58:00,80.3,65.6,30.15,SSE,152,4.0,5.0,61,0.00,,BKN027,0.00,VWS V14.01,2013-06-16 13:58:00,
2013-06-16 09:59:00,80.3,66.1,30.15,SE,142,4.0,5.0,62,0.00,,BKN027,0.00,VWS V14.01,2013-06-16 13:59:00,
2013-06-16 10:00:00,80.5,66.8,30.15,SE,134,7.0,7.0,63,0.00,,BKN027,0.00,VWS V14.01,2013-06-16 14:00:00,
2013-06-16 10:01:00,80.5,65.8,30.15,SE,140,5.0,7.0,61,0.00,,CLR,0.00,VWS V14.01,2013-06-16 14:01:00,
2013-06-16 10:02:00,80.5,65.8,30.15,SE,146,5.0,7.0,61,0.00,,BKN027,0.00,VWS V14.01,2013-06-16 14:02:00,
2013-06-16 10:03:00,80.5,66.3,30.15,SSW,194,4.0,6.0,62,0.00,,BKN027,0.00,VWS V14.01,2013-06-16 14:03:00,
2013-06-16 10:04:00,80.5,66.8,30.15,SSW,209,4.0,6.0,63,0.00,,BKN027,0.00,VWS V14.01,2013-06-16 14:04:00,
2013-06-16 10:05:00,80.5,65.8,30.15,SW,223,5.0,7.0,61,0.00,,BKN027,0.00,VWS V14.01,2013-06-16 14:05:00,
2013-06-16 10:06:00,80.3,65.2,30.15,SSW,205,5.0,5.0,60,0.00,,CLR,0.00,VWS V14.01,2013-06-16 14:06:00,
2013-06-16 10:07:00,80.3,65.2,30.15,SSW,202,3.0,6.0,60,0.00,,BKN027,0.00,VWS V14.01,2013-06-16 14:07:00,
2013-06-16 10:08:00,80.3,65.6,30.15,SSW,202,4.0,4.0,61,0.00,,BKN027,0.00,VWS V14.01,2013-06-16 14:08:00,
2013-06-16 10:09:00,80.3,66.1,30.15,South,179,4.0,4.0,62,0.00,,BKN027,0.00,VWS V14.01,2013-06-16 14:09:00,
2013-06-16 10:10:00,80.5,66.3,30.15,SSE,166,5.0,5.0,62,0.00,,BKN027,0.00,VWS V14.01,2013-06-16 14:10:00,
2013-06-16 10:11:00,80.5,66.8,30.15,SSE,148,8.0,8.0,63,0.00,,CLR,0.00,VWS V14.01,2013-06-16 14:11:00,
2013-06-16 10:12:00,80.5,66.8,30.15,SSE,150,5.0,8.0,63,0.00,,BKN027,0.00,VWS V14.01,2013-06-16 14:12:00,
2013-06-16 10:13:00,80.7,66.0,30.15,SSE,163,6.0,6.0,61,0.00,,BKN027,0.00,VWS V14.01,2013-06-16 14:13:00,
2013-06-16 10:14:00,80.7,66.5,30.15,South,171,2.0,6.0,62,0.00,,BKN027,0.00,VWS V14.01,2013-06-16 14:14:00,
2013-06-16 10:15:00,80.7,66.5,30.15,South,185,4.0,4.0,62,0.00,,BKN027,0.00,VWS V14.01,2013-06-16 14:15:00,
2013-06-16 10:16:00,80.9,66.2,30.15,SSE,157,6.0,8.0,61,0.00,,CLR,0.00,VWS V14.01,2013-06-16 14:16:00,
2013-06-16 10:17:00,80.9,66.2,30.15,SSE,150,6.0,8.0,61,0.00,,BKN027,0.00,VWS V14.01,2013-06-16 14:17:00,
2013-06-16 10:18:00,80.9,66.2,30.15,South,189,5.0,6.0,61,0.00,,BKN027,0.00,VWS V14.01,2013-06-16 14:18:00,
2013-06-16 10:19:00,80.9,65.7,30.15,South,185,3.0,5.0,60,0.00,,BKN027,0.00,VWS V14.01,2013-06-16 14:19:00,
2013-06-16 10:20:00,80.9,65.7,30.14,South,182,5.0,5.0,60,0.00,,BKN027,0.00,VWS V14.01,2013-06-16 14:20:00,
2013-06-16 10:21:00,80.9,65.7,30.15,SSE,164,4.0,5.0,60,0.00,,CLR,0.00,VWS V14.01,2013-06-16 14:21:00,
2013-06-16 10:22:00,80.9,65.7,30.15,SSE,164,3.0,5.0,60,0.00,,BKN027,0.00,VWS V14.01,2013-06-16 14:22:00,
2013-06-16 10:23:00,80.9,66.2,30.15,SSE,166,4.0,5.0,61,0.00,,BKN027,0.00,VWS V14.01,2013-06-16 14:23:00,
2013-06-16 10:24:00,80.9,65.7,30.14,SSE,167,3.0,4.0,60,0.00,,BKN027,0.00,VWS V14.01,2013-06-16 14:24:00,
2013-06-16 10:25:00,80.9,65.7,30.14,South,178,2.0,3.0,60,0.00,,BKN027,0.00,VWS V14.01,2013-06-16 14:25:00,
2013-06-16 10:26:00,81.1,65.9,30.14,SSE,165,5.0,5.0,60,0.00,,CLR,0.00,VWS V14.01,2013-06-16 14:26:00,
2013-06-16 10:27:00,81.1,65.9,30.14,SSE,167,3.0,6.0,60,0.00,,BKN027,0.00,VWS V14.01,2013-06-16 14:27:00,
2013-06-16 10:28:00,81.1,66.4,30.14,SSE,166,4.0,6.0,61,0.00,,BKN027,0.00,VWS V14.01,2013-06-16 14:28:00,
2013-06-16 10:29:00,81.2,66.5,30.14,South,173,5.0,6.0,61,0.00,,BKN027,0.00,VWS V14.01,2013-06-16 14:29:00,
2013-06-16 10:30:00,81.2,66.0,30.14,SSE,168,3.0,5.0,60,0.00,,BKN027,0.00,VWS V14.01,2013-06-16 14:30:00,
2013-06-16 10:31:00,81.2,66.0,30.14,SSE,155,5.0,7.0,60,0.00,,CLR,0.00,VWS V14.01,2013-06-16 14:31:00,
2013-06-16 10:32:00,81.2,66.0,30.14,SE,128,7.0,7.0,60,0.00,,BKN027,0.00,VWS V14.01,2013-06-16 14:32:00,
2013-06-16 10:33:00,81.2,66.0,30.14,SSE,153,7.0,7.0,60,0.00,,BKN027,0.00,VWS V14.01,2013-06-16 14:33:00,
2013-06-16 10:34:00,81.1,65.4,30.14,SSE,164,6.0,7.0,59,0.00,,BKN027,0.00,VWS V14.01,2013-06-16 14:34:00,
2013-06-16 10:35:00,81.1,66.9,30.14,SE,144,6.0,6.0,62,0.00,,BKN027,0.00,VWS V14.01,2013-06-16 14:35:00,
2013-06-16 10:36:00,80.9,65.7,30.14,SSE,163,5.0,6.0,60,0.00,,CLR,0.00,VWS V14.01,2013-06-16 14:36:00,
2013-06-16 10:37:00,80.9,66.2,30.14,SSE,161,5.0,6.0,61,0.00,,BKN027,0.00,VWS V14.01,2013-06-16 14:37:00,
2013-06-16 10:38:00,80.9,66.7,30.14,SE,142,6.0,6.0,62,0.00,,BKN027,0.00,VWS V14.01,2013-06-16 14:38:00,
2013-06-16 10:39:00,80.9,66.2,30.14,SE,136,6.0,6.0,61,0.00,,BKN027,0.00,VWS V14.01,2013-06-16 14:39:00,
2013-06-16 10:40:00,80.9,66.2,30.14,SE,146,7.0,7.0,61,0.00,,BKN027,0.00,VWS V14.01,2013-06-16 14:40:00,
2013-06-16 10:41:00,80.7,66.0,30.14,SE,133,8.0,10.0,61,0.00,,BKN046,0.00,VWS V14.01,2013-06-16 14:41:00,
2013-06-16 10:42:00,80.7,66.0,30.14,SE,143,9.0,10.0,61,0.00,,BKN027,0.00,VWS V14.01,2013-06-16 14:42:00,
2013-06-16 10:43:00,80.7,66.0,30.14,SE,128,9.0,9.0,61,0.00,,BKN027,0.00,VWS V14.01,2013-06-16 14:43:00,
2013-06-16 10:44:00,80.5,66.3,30.14,SE,132,6.0,9.0,62,0.00,,BKN027,0.00,VWS V14.01,2013-06-16 14:44:00,
2013-06-16 10:45:00,80.5,66.3,30.14,SE,132,10.0,10.0,62,0.00,,BKN027,0.00,VWS V14.01,2013-06-16 14:45:00,
2013-06-16 10:46:00,80.5,65.8,30.14,SE,131,7.0,9.0,61,0.00,,BKN046,0.00,VWS V14.01,2013-06-16 14:46:00,
2013-06-16 10:47:00,80.3,65.6,30.14,SE,143,5.0,9.0,61,0.00,,BKN027,0.00,VWS V14.01,2013-06-16 14:47:00,
2013-06-16 10:48:00,80.3,65.6,30.14,SE,138,7.0,7.0,61,0.00,,BKN027,0.00,VWS V14.01,2013-06-16 14:48:00,
2013-06-16 10:49:00,80.1,65.9,30.14,SSE,155,5.0,7.0,62,0.00,,BKN027,0.00,VWS V14.01,2013-06-16 14:49:00,
2013-06-16 10:50:00,80.3,66.1,30.14,SE,143,6.0,6.0,62,0.00,,BKN027,0.00,VWS V14.01,2013-06-16 14:50:00,
2013-06-16 10:51:00,80.3,66.1,30.14,SE,126,9.0,9.0,62,0.00,,BKN046,0.00,VWS V14.01,2013-06-16 14:51:00,
2013-06-16 10:52:00,80.3,66.1,30.14,SSE,151,6.0,9.0,62,0.00,,BKN027,0.00,VWS V14.01,2013-06-16 14:52:00,
2013-06-16 10:53:00,80.3,66.1,30.14,SE,131,7.0,7.0,62,0.00,,BKN027,0.00,VWS V14.01,2013-06-16 14:53:00,
2013-06-16 10:54:00,80.3,67.0,30.14,ESE,119,9.0,9.0,64,0.00,,BKN027,0.00,VWS V14.01,2013-06-16 14:54:00,
2013-06-16 10:55:00,80.3,66.1,30.14,SE,132,10.0,10.0,62,0.00,,BKN027,0.00,VWS V14.01,2013-06-16 14:55:00,
2013-06-16 10:56:00,80.1,65.9,30.14,SE,142,7.0,9.0,62,0.00,,BKN046,0.00,VWS V14.01,2013-06-16 14:56:00,
2013-06-16 10:57:00,80.1,65.9,30.14,SE,143,9.0,9.0,62,0.00,,BKN027,0.00,VWS V14.01,2013-06-16 14:57:00,
2013-06-16 10:58:00,80.1,65.4,30.14,SE,132,8.0,9.0,61,0.00,,BKN027,0.00,VWS V14.01,2013-06-16 14:58:00,
2013-06-16 10:59:00,80.1,65.9,30.14,South,179,4.0,8.0,62,0.00,,BKN027,0.00,VWS V14.01,2013-06-16 14:59:00,
2013-06-16 11:00:00,80.3,65.6,30.14,SSE,166,3.0,6.0,61,0.00,,BKN027,0.00,VWS V14.01,2013-06-16 15:00:00,
2013-06-16 11:01:00,80.5,65.8,30.14,SE,132,6.0,6.0,61,0.00,,BKN046,0.00,VWS V14.01,2013-06-16 15:01:00,
2013-06-16 11:02:00,80.5,65.8,30.14,SE,128,6.0,6.0,61,0.00,,BKN027,0.00,VWS V14.01,2013-06-16 15:02:00,
2013-06-16 11:03:00,80.7,66.5,30.14,SSE,148,6.0,7.0,62,0.00,,BKN027,0.00,VWS V14.01,2013-06-16 15:03:00,
2013-06-16 11:04:00,80.7,66.5,30.14,South,178,4.0,6.0,62,0.00,,BKN027,0.00,VWS V14.01,2013-06-16 15:04:00,
2013-06-16 11:05:00,80.9,67.1,30.14,SSE,159,6.0,6.0,63,0.00,,BKN027,0.00,VWS V14.01,2013-06-16 15:05:00,
2013-06-16 11:06:00,80.9,65.7,30.15,SE,127,7.0,7.0,60,0.00,,BKN046,0.00,VWS V14.01,2013-06-16 15:06:00,
2013-06-16 11:07:00,80.9,65.7,30.15,SE,126,6.0,7.0,60,0.00,,BKN027,0.00,VWS V14.01,2013-06-16 15:07:00,
2013-06-16 11:08:00,80.7,65.5,30.14,SE,133,7.0,9.0,60,0.00,,BKN027,0.00,VWS V14.01,2013-06-16 15:08:00,
2013-06-16 11:09:00,80.7,65.5,30.14,SE,134,7.0,7.0,60,0.00,,BKN027,0.00,VWS V14.01,2013-06-16 15:09:00,
2013-06-16 11:10:00,80.7,66.5,30.14,SE,132,7.0,8.0,62,0.00,,BKN027,0.00,VWS V14.01,2013-06-16 15:10:00,
2013-06-16 11:11:00,80.7,66.0,30.14,SE,125,7.0,7.0,61,0.00,,BKN046,0.00,VWS V14.01,2013-06-16 15:11:00,
2013-06-16 11:12:00,80.7,65.5,30.14,SSE,149,6.0,7.0,60,0.00,,BKN027,0.00,VWS V14.01,2013-06-16 15:12:00,
2013-06-16 11:13:00,80.7,66.9,30.14,SSE,149,7.0,9.0,63,0.00,,BKN027,0.00,VWS V14.01,2013-06-16 15:13:00,
2013-06-16 11:14:00,80.7,65.5,30.14,SE,136,6.0,7.0,60,0.00,,BKN027,0.00,VWS V14.01,2013-06-16 15:14:00,
2013-06-16 11:15:00,80.7,66.0,30.15,SE,144,9.0,10.0,61,0.00,,BKN027,0.00,VWS V14.01,2013-06-16 15:15:00,
2013-06-16 11:16:00,80.7,65.5,30.14,SE,140,5.0,6.0,60,0.00,,BKN046,0.00,VWS V14.01,2013-06-16 15:16:00,
2013-06-16 11:17:00,80.7,66.0,30.14,SE,132,5.0,7.0,61,0.00,,BKN027,0.00,VWS V14.01,2013-06-16 15:17:00,
2013-06-16 11:18:00,80.5,65.3,30.14,SE,132,3.0,5.0,60,0.00,,BKN027,0.00,VWS V14.01,2013-06-16 15:18:00,
2013-06-16 11:19:00,80.5,65.3,30.14,SE,125,6.0,6.0,60,0.00,,BKN027,0.00,VWS V14.01,2013-06-16 15:19:00,
2013-06-16 11:20:00,80.5,66.3,30.14,ESE,121,7.0,8.0,62,0.00,,BKN027,0.00,VWS V14.01,2013-06-16 15:20:00,
2013-06-16 11:21:00,80.5,65.3,30.14,SE,134,5.0,7.0,60,0.00,,BKN046,0.00,VWS V14.01,2013-06-16 15:21:00,
2013-06-16 11:22:00,80.5,65.8,30.14,SE,136,5.0,7.0,61,0.00,,BKN027,0.00,VWS V14.01,2013-06-16 15:22:00,
2013-06-16 11:23:00,80.5,66.3,30.14,SE,124,7.0,7.0,62,0.00,,BKN027,0.00,VWS V14.01,2013-06-16 15:23:00,
2013-06-16 11:24:00,80.5,65.8,30.14,ESE,122,5.0,7.0,61,0.00,,BKN027,0.00,VWS V14.01,2013-06-16 15:24:00,
2013-06-16 11:25:00,80.5,65.3,30.14,SE,126,6.0,6.0,60,0.00,,BKN027,0.00,VWS V14.01,2013-06-16 15:25:00,
2013-06-16 11:26:00,80.5,65.8,30.14,SE,134,7.0,10.0,61,0.00,,BKN046,0.00,VWS V14.01,2013-06-16 15:26:00,
2013-06-16 11:27:00,80.5,65.8,30.14,SE,140,9.0,10.0,61,0.00,,BKN027,0.00,VWS V14.01,2013-06-16 15:27:00,
2013-06-16 11:28:00,80.5,65.3,30.14,SE,129,7.0,9.0,60,0.00,,BKN027,0.00,VWS V14.01,2013-06-16 15:28:00,
2013-06-16 11:29:00,80.5,65.8,30.14,SE,129,7.0,7.0,61,0.00,,BKN027,0.00,VWS V14.01,2013-06-16 15:29:00,
2013-06-16 11:30:00,80.5,65.8,30.14,SE,134,7.0,9.0,61,0.00,,BKN027,0.00,VWS V14.01,2013-06-16 15:30:00,
2013-06-16 11:31:00,80.5,66.3,30.14,SE,142,4.0,5.0,62,0.00,,BKN046,0.00,VWS V14.01,2013-06-16 15:31:00,
2013-06-16 11:32:00,80.5,66.3,30.14,SE,130,5.0,5.0,62,0.00,,BKN027,0.00,VWS V14.01,2013-06-16 15:32:00,
2013-06-16 11:33:00,80.7,66.0,30.14,SE,126,4.0,7.0,61,0.00,,BKN027,0.00,VWS V14.01,2013-06-16 15:33:00,
2013-06-16 11:34:00,80.7,65.5,30.14,ESE,122,6.0,6.0,60,0.00,,BKN027,0.00,VWS V14.01,2013-06-16 15:34:00,
2013-06-16 11:35:00,80.7,65.5,30.14,SE,132,6.0,7.0,60,0.00,,BKN027,0.00,VWS V14.01,2013-06-16 15:35:00,
2013-06-16 11:36:00,80.7,66.0,30.14,SE,130,4.0,4.0,61,0.00,,BKN046,0.00,VWS V14.01,2013-06-16 15:36:00,
2013-06-16 11:37:00,80.7,65.1,30.14,SE,140,5.0,6.0,59,0.00,,BKN027,0.00,VWS V14.01,2013-06-16 15:37:00,
2013-06-16 11:38:00,80.7,66.5,30.14,ESE,123,6.0,7.0,62,0.00,,BKN027,0.00,VWS V14.01,2013-06-16 15:38:00,
2013-06-16 11:39:00,80.7,65.5,30.14,SE,125,4.0,6.0,60,0.00,,BKN027,0.00,VWS V14.01,2013-06-16 15:39:00,
2013-06-16 11:40:00,80.7,65.5,30.14,SE,130,6.0,6.0,60,0.00,,BKN027,0.00,VWS V14.01,2013-06-16 15:40:00,
2013-06-16 11:41:00,80.7,66.5,30.14,ESE,117,5.0,5.0,62,0.00,,CLR,0.00,VWS V14.01,2013-06-16 15:41:00,
2013-06-16 11:42:00,80.7,66.5,30.14,SE,140,6.0,6.0,62,0.00,,BKN027,0.00,VWS V14.01,2013-06-16 15:42:00,
2013-06-16 11:43:00,80.7,66.5,30.14,SE,126,7.0,7.0,62,0.00,,BKN027,0.00,VWS V14.01,2013-06-16 15:43:00,
2013-06-16 11:44:00,80.7,66.0,30.14,SE,140,6.0,7.0,61,0.00,,BKN027,0.00,VWS V14.01,2013-06-16 15:44:00,
2013-06-16 11:45:00,80.7,66.0,30.14,SE,145,7.0,10.0,61,0.00,,BKN027,0.00,VWS V14.01,2013-06-16 15:45:00,
2013-06-16 11:46:00,80.7,66.0,30.14,SE,137,7.0,8.0,61,0.00,,CLR,0.00,VWS V14.01,2013-06-16 15:46:00,
2013-06-16 11:47:00,80.7,66.0,30.14,SE,140,5.0,8.0,61,0.00,,BKN027,0.00,VWS V14.01,2013-06-16 15:47:00,
2013-06-16 11:48:00,80.9,66.7,30.14,SE,144,7.0,7.0,62,0.00,,BKN027,0.00,VWS V14.01,2013-06-16 15:48:00,
2013-06-16 11:49:00,80.9,65.7,30.14,SE,130,5.0,10.0,60,0.00,,BKN027,0.00,VWS V14.01,2013-06-16 15:49:00,
2013-06-16 11:50:00,80.9,65.7,30.14,SE,125,6.0,6.0,60,0.00,,BKN027,0.00,VWS V14.01,2013-06-16 15:50:00,
2013-06-16 11:51:00,80.7,65.5,30.14,SE,135,3.0,6.0,60,0.00,,CLR,0.00,VWS V14.01,2013-06-16 15:51:00,
2013-06-16 11:52:00,80.7,65.5,30.14,SE,126,5.0,6.0,60,0.00,,BKN027,0.00,VWS V14.01,2013-06-16 15:52:00,
2013-06-16 11:53:00,80.7,66.0,30.14,South,174,5.0,6.0,61,0.00,,BKN027,0.00,VWS V14.01,2013-06-16 15:53:00,
2013-06-16 11:54:00,80.9,65.2,30.14,South,172,4.0,6.0,59,0.00,,BKN027,0.00,VWS V14.01,2013-06-16 15:54:00,
2013-06-16 11:55:00,80.9,66.2,30.13,SE,142,6.0,6.0,61,0.00,,BKN027,0.00,VWS V14.01,2013-06-16 15:55:00,
2013-06-16 11:56:00,80.9,66.2,30.14,SE,128,7.0,9.0,61,0.00,,CLR,0.00,VWS V14.01,2013-06-16 15:56:00,
2013-06-16 11:57:00,80.9,65.7,30.14,SE,139,5.0,9.0,60,0.00,,BKN027,0.00,VWS V14.01,2013-06-16 15:57:00,
2013-06-16 11:58:00,80.9,65.7,30.14,SSE,154,6.0,6.0,60,0.00,,BKN027,0.00,VWS V14.01,2013-06-16 15:58:00,
2013-06-16 11:59:00,80.9,65.7,30.13,SSE,162,4.0,6.0,60,0.00,,BKN027,0.00,VWS V14.01,2013-06-16 15:59:00,
2013-06-16 12:00:00,80.9,65.7,30.13,South,174,4.0,5.0,60,0.00,,BKN027,0.00,VWS V14.01,2013-06-16 16:00:00,
2013-06-16 12:01:00,81.1,65.9,30.14,ESE,120,7.0,7.0,60,0.00,,CLR,0.00,VWS V14.01,2013-06-16 16:01:00,
2013-06-16 12:02:00,80.9,65.7,30.14,SE,140,8.0,8.0,60,0.00,,BKN027,0.00,VWS V14.01,2013-06-16 16:02:00,
2013-06-16 12:03:00,80.9,66.2,30.13,SE,129,6.0,8.0,61,0.00,,BKN027,0.00,VWS V14.01,2013-06-16 16:03:00,
2013-06-16 12:04:00,80.9,65.7,30.13,SE,129,6.0,6.0,60,0.00,,BKN027,0.00,VWS V14.01,2013-06-16 16:04:00,
2013-06-16 12:05:00,80.7,65.1,30.13,SE,127,5.0,6.0,59,0.00,,BKN027,0.00,VWS V14.01,2013-06-16 16:05:00,
2013-06-16 12:06:00,80.7,66.0,30.13,SE,138,7.0,7.0,61,0.00,,CLR,0.00,VWS V14.01,2013-06-16 16:06:00,
2013-06-16 12:07:00,80.7,66.0,30.13,SE,131,7.0,7.0,61,0.00,,BKN027,0.00,VWS V14.01,2013-06-16 16:07:00,
2013-06-16 12:08:00,80.7,66.0,30.13,ESE,118,8.0,8.0,61,0.00,,BKN027,0.00,VWS V14.01,2013-06-16 16:08:00,
2013-06-16 12:09:00,80.5,65.3,30.13,SE,128,7.0,8.0,60,0.00,,BKN027,0.00,VWS V14.01,2013-06-16 16:09:00,
2013-06-16 12:10:00,80.5,65.3,30.13,SE,133,10.0,10.0,60,0.00,,BKN027,0.00,VWS V14.01,2013-06-16 16:10:00,
2013-06-16 12:11:00,80.5,66.3,30.13,SE,142,6.0,6.0,62,0.00,,CLR,0.00,VWS V14.01,2013-06-16 16:11:00,
2013-06-16 12:12:00,80.5,66.3,30.13,SE,142,7.0,8.0,62,0.00,,BKN027,0.00,VWS V14.01,2013-06-16 16:12:00,
2013-06-16 12:13:00,80.5,65.8,30.13,SE,139,8.0,8.0,61,0.00,,BKN027,0.00,VWS V14.01,2013-06-16 16:13:00,
2013-06-16 12:14:00,80.5,65.8,30.13,SE,138,7.0,9.0,61,0.00,,BKN027,0.00,VWS V14.01,2013-06-16 16:14:00,
2013-06-16 12:15:00,80.5,65.3,30.13,SE,137,4.0,7.0,60,0.00,,BKN027,0.00,VWS V14.01,2013-06-16 16:15:00,
2013-06-16 12:16:00,80.5,65.3,30.13,SE,130,6.0,6.0,60,0.00,,CLR,0.00,VWS V14.01,2013-06-16 16:16:00,
2013-06-16 12:17:00,80.5,65.3,30.13,SE,124,5.0,6.0,60,0.00,,BKN027,0.00,VWS V14.01,2013-06-16 16:17:00,
2013-06-16 12:18:00,80.5,66.3,30.13,SE,125,6.0,6.0,62,0.00,,BKN027,0.00,VWS V14.01,2013-06-16 16:18:00,
2013-06-16 12:19:00,80.7,66.0,30.13,ESE,120,6.0,8.0,61,0.00,,BKN027,0.00,VWS V14.01,2013-06-16 16:19:00,
2013-06-16 12:20:00,80.7,66.0,30.13,SE,124,6.0,7.0,61,0.00,,BKN027,0.00,VWS V14.01,2013-06-16 16:20:00,
2013-06-16 12:21:00,80.7,66.0,30.13,SE,143,5.0,7.0,61,0.00,,CLR,0.00,VWS V14.01,2013-06-16 16:21:00,
2013-06-16 12:22:00,80.7,66.0,30.13,SE,142,11.0,11.0,61,0.00,,BKN027,0.00,VWS V14.01,2013-06-16 16:22:00,
2013-06-16 12:23:00,80.7,65.5,30.13,SE,133,7.0,11.0,60,0.00,,BKN027,0.00,VWS V14.01,2013-06-16 16:23:00,
2013-06-16 12:24:00,80.5,65.8,30.13,SE,146,5.0,10.0,61,0.00,,BKN027,0.00,VWS V14.01,2013-06-16 16:24:00,
2013-06-16 12:25:00,80.5,65.8,30.13,SE,124,5.0,6.0,61,0.00,,BKN027,0.00,VWS V14.01,2013-06-16 16:25:00,
2013-06-16 12:26:00,80.5,65.8,30.13,SE,133,7.0,7.0,61,0.00,,CLR,0.00,VWS V14.01,2013-06-16 16:26:00,
2013-06-16 12:27:00,80.7,66.0,30.13,SE,128,8.0,8.0,61,0.00,,BKN027,0.00,VWS V14.01,2013-06-16 16:27:00,
2013-06-16 12:28:00,80.7,66.5,30.13,ESE,120,7.0,10.0,62,0.00,,BKN027,0.00,VWS V14.01,2013-06-16 16:28:00,
2013-06-16 12:29:00,80.7,66.5,30.13,ESE,122,7.0,8.0,62,0.00,,BKN027,0.00,VWS V14.01,2013-06-16 16:29:00,
2013-06-16 12:30:00,80.7,66.5,30.13,SE,128,10.0,10.0,62,0.00,,BKN027,0.00,VWS V14.01,2013-06-16 16:30:00,
2013-06-16 12:31:00,80.9,67.1,30.13,ESE,119,8.0,10.0,63,0.00,,CLR,0.00,VWS V14.01,2013-06-16 16:31:00,
2013-06-16 12:32:00,80.9,67.1,30.13,SE,138,5.0,10.0,63,0.00,,BKN027,0.00,VWS V14.01,2013-06-16 16:32:00,
2013-06-16 12:33:00,80.9,66.2,30.13,SSE,150,6.0,6.0,61,0.00,,BKN027,0.00,VWS V14.01,2013-06-16 16:33:00,
2013-06-16 12:34:00,80.9,65.7,30.13,SE,128,7.0,9.0,60,0.00,,BKN027,0.00,VWS V14.01,2013-06-16 16:34:00,
2013-06-16 12:35:00,80.9,66.2,30.13,SE,124,7.0,7.0,61,0.00,,BKN027,0.00,VWS V14.01,2013-06-16 16:35:00,
2013-06-16 12:36:00,80.9,66.7,30.13,SE,142,9.0,9.0,62,0.00,,CLR,0.00,VWS V14.01,2013-06-16 16:36:00,
2013-06-16 12:37:00,80.9,66.7,30.13,SE,141,11.0,11.0,62,0.00,,BKN027,0.00,VWS V14.01,2013-06-16 16:37:00,
2013-06-16 12:38:00,80.7,66.0,30.12,SE,128,9.0,11.0,61,0.00,,BKN027,0.00,VWS V14.01,2013-06-16 16:38:00,
2013-06-16 12:39:00,80.7,66.0,30.13,SE,139,10.0,10.0,61,0.00,,BKN027,0.00,VWS V14.01,2013-06-16 16:39:00,
2013-06-16 12:40:00,80.7,65.5,30.12,SE,128,5.0,10.0,60,0.00,,BKN027,0.00,VWS V14.01,2013-06-16 16:40:00,
2013-06-16 12:41:00,80.5,65.8,30.12,SE,136,7.0,8.0,61,0.00,,CLR,0.00,VWS V14.01,2013-06-16 16:41:00,
2013-06-16 12:42:00,80.5,65.3,30.12,SE,134,6.0,8.0,60,0.00,,BKN027,0.00,VWS V14.01,2013-06-16 16:42:00,
2013-06-16 12:43:00,80.5,65.8,30.12,ESE,123,6.0,7.0,61,0.00,,BKN027,0.00,VWS V14.01,2013-06-16 16:43:00,
2013-06-16 12:44:00,80.5,66.8,30.12,SE,130,8.0,10.0,63,0.00,,BKN027,0.00,VWS V14.01,2013-06-16 16:44:00,
2013-06-16 12:45:00,80.5,65.3,30.12,ESE,121,10.0,10.0,60,0.00,,BKN027,0.00,VWS V14.01,2013-06-16 16:45:00,
2013-06-16 12:46:00,80.5,66.3,30.12,SE,134,9.0,10.0,62,0.00,,BKN080,0.00,VWS V14.01,2013-06-16 16:46:00,
2013-06-16 12:47:00,80.7,66.9,30.12,ESE,123,9.0,10.0,63,0.00,,BKN027,0.00,VWS V14.01,2013-06-16 16:47:00,
2013-06-16 12:48:00,80.7,66.0,30.12,ESE,117,7.0,9.0,61,0.00,,BKN027,0.00,VWS V14.01,2013-06-16 16:48:00,
2013-06-16 12:49:00,80.7,66.0,30.12,SE,128,9.0,9.0,61,0.00,,BKN027,0.00,VWS V14.01,2013-06-16 16:49:00,
2013-06-16 12:50:00,80.7,66.5,30.12,SE,146,7.0,10.0,62,0.00,,BKN027,0.00,VWS V14.01,2013-06-16 16:50:00,
2013-06-16 12:51:00,80.7,66.5,30.12,SE,145,9.0,11.0,62,0.00,,BKN080,0.00,VWS V14.01,2013-06-16 16:51:00,
2013-06-16 12:52:00,80.7,65.5,30.12,SSE,148,10.0,11.0,60,0.00,,BKN027,0.00,VWS V14.01,2013-06-16 16:52:00,
2013-06-16 12:53:00,80.9,67.1,30.12,SE,130,9.0,10.0,63,0.00,,BKN027,0.00,VWS V14.01,2013-06-16 16:53:00,
2013-06-16 12:54:00,80.7,65.5,30.12,SE,128,11.0,11.0,60,0.00,,BKN027,0.00,VWS V14.01,2013-06-16 16:54:00,
2013-06-16 12:55:00,80.7,66.9,30.12,ESE,112,9.0,10.0,63,0.00,,BKN080,0.00,VWS V14.01,2013-06-16 16:55:00,
2013-06-16 12:56:00,80.7,66.9,30.12,ESE,116,10.0,10.0,63,0.00,,BKN027,0.00,VWS V14.01,2013-06-16 16:56:00,
2013-06-16 12:57:00,80.7,66.9,30.12,ESE,122,10.0,10.0,63,0.00,,BKN027,0.00,VWS V14.01,2013-06-16 16:57:00,
2013-06-16 12:58:00,80.7,66.9,30.12,SE,142,9.0,10.0,63,0.00,,BKN027,0.00,VWS V14.01,2013-06-16 16:58:00,
2013-06-16 12:59:00,80.5,66.3,30.12,ESE,119,9.0,10.0,62,0.00,,BKN027,0.00,VWS V14.01,2013-06-16 16:59:00,
2013-06-16 13:00:00,80.5,66.8,30.12,SE,125,10.0,11.0,63,0.00,,BKN080,0.00,VWS V14.01,2013-06-16 17:00:00,
2013-06-16 13:01:00,80.5,66.8,30.12,SE,129,10.0,10.0,63,0.00,,BKN027,0.00,VWS V14.01,2013-06-16 17:01:00,
2013-06-16 13:02:00,80.5,66.3,30.12,SE,124,11.0,11.0,62,0.00,,BKN027,0.00,VWS V14.01,2013-06-16 17:02:00,
2013-06-16 13:03:00,80.5,65.8,30.12,ESE,121,8.0,13.0,61,0.00,,BKN027,0.00,VWS V14.01,2013-06-16 17:03:00,
2013-06-16 13:04:00,80.5,67.2,30.12,SE,131,10.0,11.0,64,0.00,,BKN027,0.00,VWS V14.01,2013-06-16 17:04:00,
2013-06-16 13:05:00,80.3,65.6,30.12,ESE,118,11.0,11.0,61,0.00,,BKN080,0.00,VWS V14.01,2013-06-16 17:05:00,
2013-06-16 13:06:00,80.3,65.6,30.12,ESE,117,10.0,11.0,61,0.00,,BKN027,0.00,VWS V14.01,2013-06-16 17:06:00,
2013-06-16 13:07:00,80.3,65.6,30.12,ESE,123,10.0,11.0,61,0.00,,BKN027,0.00,VWS V14.01,2013-06-16 17:07:00,
2013-06-16 13:08:00,80.3,66.6,30.12,ESE,123,9.0,10.0,63,0.00,,BKN027,0.00,VWS V14.01,2013-06-16 17:08:00,
2013-06-16 13:09:00,80.3,66.1,30.12,ESE,119,10.0,11.0,62,0.00,,BKN027,0.00,VWS V14.01,2013-06-16 17:09:00,
2013-06-16 13:10:00,80.3,66.1,30.12,SE,131,10.0,10.0,62,0.00,,BKN080,0.00,VWS V14.01,2013-06-16 17:10:00,
2013-06-16 13:11:00,80.3,66.1,30.12,SE,131,9.0,9.0,62,0.00,,BKN027,0.00,VWS V14.01,2013-06-16 17:11:00,
2013-06-16 13:12:00,80.3,66.1,30.12,SE,135,12.0,12.0,62,0.00,,BKN027,0.00,VWS V14.01,2013-06-16 17:12:00,
2013-06-16 13:13:00,80.3,65.6,30.12,SSE,148,10.0,12.0,61,0.00,,BKN027,0.00,VWS V14.01,2013-06-16 17:13:00,
2013-06-16 13:14:00,80.3,65.6,30.12,SE,132,5.0,10.0,61,0.00,,BKN027,0.00,VWS V14.01,2013-06-16 17:14:00,
2013-06-16 13:15:00,80.3,65.6,30.12,SE,141,8.0,8.0,61,0.00,,BKN080,0.00,VWS V14.01,2013-06-16 17:15:00,
2013-06-16 13:16:00,80.3,65.6,30.12,SSE,150,7.0,8.0,61,0.00,,BKN027,0.00,VWS V14.01,2013-06-16 17:16:00,
2013-06-16 13:17:00,80.3,65.6,30.12,SE,142,7.0,8.0,61,0.00,,BKN027,0.00,VWS V14.01,2013-06-16 17:17:00,
2013-06-16 13:18:00,80.5,65.3,30.12,SE,124,9.0,10.0,60,0.00,,BKN027,0.00,VWS V14.01,2013-06-16 17:18:00,
2013-06-16 13:19:00,80.3,65.6,30.12,SE,131,13.0,13.0,61,0.00,,BKN027,0.00,VWS V14.01,2013-06-16 17:19:00,
2013-06-16 13:20:00,80.3,66.6,30.12,SE,139,10.0,10.0,63,0.00,,BKN080,0.00,VWS V14.01,2013-06-16 17:20:00,
2013-06-16 13:21:00,80.3,66.1,30.12,ESE,121,8.0,9.0,62,0.00,,BKN027,0.00,VWS V14.01,2013-06-16 17:21:00,
2013-06-16 13:22:00,80.3,66.6,30.12,SE,131,6.0,10.0,63,0.00,,BKN027,0.00,VWS V14.01,2013-06-16 17:22:00,
2013-06-16 13:23:00,80.5,65.8,30.12,SE,146,5.0,7.0,61,0.00,,BKN027,0.00,VWS V14.01,2013-06-16 17:23:00,
2013-06-16 13:24:00,80.5,65.8,30.12,SE,138,9.0,9.0,61,0.00,,BKN027,0.00,VWS V14.01,2013-06-16 17:24:00,
2013-06-16 13:25:00,80.7,65.5,30.12,SE,133,6.0,9.0,60,0.00,,BKN080,0.00,VWS V14.01,2013-06-16 17:25:00,
2013-06-16 13:26:00,80.7,65.5,30.12,SE,146,9.0,12.0,60,0.00,,BKN027,0.00,VWS V14.01,2013-06-16 17:26:00,
2013-06-16 13:27:00,80.7,65.5,30.12,SE,144,6.0,10.0,60,0.00,,BKN027,0.00,VWS V14.01,2013-06-16 17:27:00,
2013-06-16 13:28:00,80.7,65.5,30.12,SE,130,9.0,11.0,60,0.00,,BKN027,0.00,VWS V14.01,2013-06-16 17:28:00,
2013-06-16 13:29:00,80.7,65.5,30.12,SE,140,8.0,9.0,60,0.00,,BKN027,0.00,VWS V14.01,2013-06-16 17:29:00,
2013-06-16 13:30:00,80.5,65.8,30.11,SE,136,11.0,11.0,61,0.00,,BKN080,0.00,VWS V14.01,2013-06-16 17:30:00,
2013-06-16 13:31:00,80.5,65.8,30.11,SE,129,7.0,9.0,61,0.00,,BKN027,0.00,VWS V14.01,2013-06-16 17:31:00,
2013-06-16 13:32:00,80.5,65.3,30.11,SE,144,9.0,11.0,60,0.00,,BKN027,0.00,VWS V14.01,2013-06-16 17:32:00,
2013-06-16 13:33:00,80.5,65.8,30.11,SSE,152,6.0,11.0,61,0.00,,BKN027,0.00,VWS V14.01,2013-06-16 17:33:00,
2013-06-16 13:34:00,80.5,66.3,30.11,SE,128,10.0,10.0,62,0.00,,BKN027,0.00,VWS V14.01,2013-06-16 17:34:00,
2013-06-16 13:35:00,80.3,65.6,30.11,SE,130,11.0,11.0,61,0.00,,BKN080,0.00,VWS V14.01,2013-06-16 17:35:00,
2013-06-16 13:36:00,80.3,65.6,30.11,ESE,123,10.0,11.0,61,0.00,,BKN027,0.00,VWS V14.01,2013-06-16 17:36:00,
2013-06-16 13:37:00,80.3,65.6,30.11,SE,124,8.0,11.0,61,0.00,,BKN027,0.00,VWS V14.01,2013-06-16 17:37:00,
2013-06-16 13:38:00,80.3,65.6,30.11,SE,129,9.0,10.0,61,0.00,,BKN027,0.00,VWS V14.01,2013-06-16 17:38:00,
2013-06-16 13:39:00,80.3,66.6,30.11,SE,131,10.0,11.0,63,0.00,,BKN027,0.00,VWS V14.01,2013-06-16 17:39:00,
2013-06-16 13:40:00,80.3,66.1,30.11,SE,127,6.0,10.0,62,0.00,,BKN060,0.00,VWS V14.01,2013-06-16 17:40:00,
2013-06-16 13:41:00,80.1,65.9,30.11,SSE,154,10.0,10.0,62,0.00,,BKN027,0.00,VWS V14.01,2013-06-16 17:41:00,
2013-06-16 13:42:00,80.3,65.6,30.11,SE,134,9.0,10.0,61,0.00,,BKN027,0.00,VWS V14.01,2013-06-16 17:42:00,
2013-06-16 13:43:00,80.3,65.6,30.11,SE,132,6.0,9.0,61,0.00,,BKN027,0.00,VWS V14.01,2013-06-16 17:43:00,
2013-06-16 13:44:00,80.3,65.6,30.11,ESE,119,9.0,10.0,61,0.00,,BKN027,0.00,VWS V14.01,2013-06-16 17:44:00,
2013-06-16 13:45:00,80.5,65.3,30.11,SE,126,9.0,11.0,60,0.00,,BKN060,0.00,VWS V14.01,2013-06-16 17:45:00,
2013-06-16 13:46:00,80.5,65.3,30.11,SE,132,11.0,13.0,60,0.00,,BKN027,0.00,VWS V14.01,2013-06-16 17:46:00,
2013-06-16 13:47:00,80.5,65.3,30.11,SE,133,9.0,11.0,60,0.00,,BKN027,0.00,VWS V14.01,2013-06-16 17:47:00,
2013-06-16 13:48:00,80.5,65.8,30.11,ESE,113,8.0,10.0,61,0.00,,BKN027,0.00,VWS V14.01,2013-06-16 17:48:00,
2013-06-16 13:49:00,80.3,65.2,30.11,ESE,119,6.0,8.0,60,0.00,,BKN027,0.00,VWS V14.01,2013-06-16 17:49:00,
2013-06-16 13:50:00,80.5,66.3,30.11,SE,139,10.0,10.0,62,0.00,,BKN060,0.00,VWS V14.01,2013-06-16 17:50:00,
2013-06-16 13:51:00,80.5,66.3,30.11,SE,135,9.0,10.0,62,0.00,,BKN027,0.00,VWS V14.01,2013-06-16 17:51:00,
2013-06-16 13:52:00,80.5,65.8,30.11,SE,143,9.0,10.0,61,0.00,,BKN027,0.00,VWS V14.01,2013-06-16 17:52:00,
2013-06-16 13:53:00,80.5,64.9,30.11,SSE,156,12.0,12.0,59,0.00,,BKN027,0.00,VWS V14.01,2013-06-16 17:53:00,
2013-06-16 13:54:00,80.5,65.8,30.10,SE,126,11.0,12.0,61,0.00,,BKN027,0.00,VWS V14.01,2013-06-16 17:54:00,
2013-06-16 13:55:00,80.3,66.6,30.10,SE,130,11.0,11.0,63,0.00,,BKN060,0.00,VWS V14.01,2013-06-16 17:55:00,
2013-06-16 13:56:00,80.3,66.6,30.10,SE,129,11.0,13.0,63,0.00,,BKN027,0.00,VWS V14.01,2013-06-16 17:56:00,
2013-06-16 13:57:00,80.3,65.2,30.10,SE,125,11.0,11.0,60,0.00,,BKN027,0.00,VWS V14.01,2013-06-16 17:57:00,
2013-06-16 13:58:00,80.1,64.5,30.10,ESE,123,11.0,11.0,59,0.00,,BKN027,0.00,VWS V14.01,2013-06-16 17:58:00,
2013-06-16 13:59:00,80.3,65.6,30.10,SE,135,11.0,11.0,61,0.00,,BKN027,0.00,VWS V14.01,2013-06-16 17:59:00,
2013-06-16 14:00:00,80.5,65.8,30.10,SE,132,7.0,9.0,61,0.00,,BKN060,0.00,VWS V14.01,2013-06-16 18:00:00,
2013-06-16 14:01:00,80.3,65.6,30.10,SE,136,9.0,9.0,61,0.00,,BKN027,0.00,VWS V14.01,2013-06-16 18:01:00,
2013-06-16 14:02:00,80.5,65.8,30.10,SE,125,7.0,9.0,61,0.00,,BKN027,0.00,VWS V14.01,2013-06-16 18:02:00,
2013-06-16 14:03:00,80.5,65.3,30.10,ESE,123,10.0,10.0,60,0.00,,BKN027,0.00,VWS V14.01,2013-06-16 18:03:00,
2013-06-16 14:04:00,80.5,65.8,30.10,SE,125,9.0,10.0,61,0.00,,BKN027,0.00,VWS V14.01,2013-06-16 18:04:00,
2013-06-16 14:05:00,80.5,64.4,30.10,SE,143,7.0,10.0,58,0.00,,BKN060,0.00,VWS V14.01,2013-06-16 18:05:00,
2013-06-16 14:06:00,80.3,65.2,30.10,SE,143,10.0,10.0,60,0.00,,BKN027,0.00,VWS V14.01,2013-06-16 18:06:00,
2013-06-16 14:07:00,80.5,64.4,30.10,SE,138,10.0,11.0,58,0.00,,BKN027,0.00,VWS V14.01,2013-06-16 18:07:00,
2013-06-16 14:08:00,80.5,64.9,30.10,SE,135,8.0,11.0,59,0.00,,BKN027,0.00,VWS V14.01,2013-06-16 18:08:00,
2013-06-16 14:09:00,80.5,64.9,30.10,ESE,123,9.0,11.0,59,0.00,,BKN027,0.00,VWS V14.01,2013-06-16 18:09:00,
2013-06-16 14:10:00,80.3,65.6,30.10,SE,145,6.0,9.0,61,0.00,,BKN060,0.00,VWS V14.01,2013-06-16 18:10:00,
2013-06-16 14:11:00,80.3,65.2,30.10,SE,137,9.0,11.0,60,0.00,,BKN027,0.00,VWS V14.01,2013-06-16 18:11:00,
2013-06-16 14:12:00,80.3,65.6,30.10,SE,140,9.0,9.0,61,0.00,,BKN027,0.00,VWS V14.01,2013-06-16 18:12:00,
2013-06-16 14:13:00,80.5,65.3,30.10,SE,140,11.0,11.0,60,0.00,,BKN027,0.00,VWS V14.01,2013-06-16 18:13:00,
2013-06-16 14:14:00,80.5,65.8,30.10,SE,139,9.0,11.0,61,0.00,,BKN027,0.00,VWS V14.01,2013-06-16 18:14:00,
2013-06-16 14:15:00,80.5,64.4,30.10,SE,129,8.0,8.0,58,0.00,,BKN060,0.00,VWS V14.01,2013-06-16 18:15:00,
2013-06-16 14:16:00,80.5,64.4,30.10,ESE,122,8.0,9.0,58,0.00,,BKN027,0.00,VWS V14.01,2013-06-16 18:16:00,
2013-06-16 14:17:00,80.5,64.9,30.10,SE,137,8.0,8.0,59,0.00,,BKN027,0.00,VWS V14.01,2013-06-16 18:17:00,
2013-06-16 14:19:00,80.5,64.9,30.10,ESE,121,11.0,11.0,59,0.00,,BKN027,0.00,VWS V14.01,2013-06-16 18:19:00,
2013-06-16 14:20:00,80.5,64.9,30.10,SE,136,10.0,10.0,59,0.00,,BKN060,0.00,VWS V14.01,2013-06-16 18:20:00,
2013-06-16 14:21:00,80.5,64.9,30.10,SE,134,6.0,9.0,59,0.00,,BKN027,0.00,VWS V14.01,2013-06-16 18:21:00,
2013-06-16 14:22:00,80.5,64.9,30.10,SE,130,12.0,12.0,59,0.00,,BKN027,0.00,VWS V14.01,2013-06-16 18:22:00,
2013-06-16 14:23:00,80.5,64.9,30.10,SE,132,9.0,12.0,59,0.00,,BKN027,0.00,VWS V14.01,2013-06-16 18:23:00,
2013-06-16 14:25:00,80.3,65.6,30.10,SE,137,10.0,10.0,61,0.00,,BKN060,0.00,VWS V14.01,2013-06-16 18:25:00,
2013-06-16 14:26:00,80.3,65.6,30.10,SSE,161,6.0,11.0,61,0.00,,BKN027,0.00,VWS V14.01,2013-06-16 18:26:00,
2013-06-16 14:27:00,80.5,66.3,30.10,SE,134,10.0,10.0,62,0.00,,BKN027,0.00,VWS V14.01,2013-06-16 18:27:00,
2013-06-16 14:28:00,80.5,64.9,30.10,SE,124,11.0,12.0,59,0.00,,BKN027,0.00,VWS V14.01,2013-06-16 18:28:00,
2013-06-16 14:30:00,80.7,64.6,30.10,SE,146,9.0,10.0,58,0.00,,BKN060,0.00,VWS V14.01,2013-06-16 18:30:00,
2013-06-16 14:31:00,80.7,64.6,30.10,SE,126,10.0,11.0,58,0.00,,BKN027,0.00,VWS V14.01,2013-06-16 18:31:00,
2013-06-16 14:32:00,80.5,64.9,30.10,SE,136,7.0,10.0,59,0.00,,BKN027,0.00,VWS V14.01,2013-06-16 18:32:00,
2013-06-16 14:33:00,80.7,65.5,30.10,SE,136,11.0,11.0,60,0.00,,BKN027,0.00,VWS V14.01,2013-06-16 18:33:00,
2013-06-16 14:34:00,80.7,66.0,30.10,SE,138,10.0,12.0,61,0.00,,BKN027,0.00,VWS V14.01,2013-06-16 18:34:00,
2013-06-16 14:35:00,80.5,64.9,30.09,SE,132,11.0,13.0,59,0.00,,BKN060,0.00,VWS V14.01,2013-06-16 18:35:00,
2013-06-16 14:36:00,80.5,64.9,30.10,SE,139,13.0,13.0,59,0.00,,BKN027,0.00,VWS V14.01,2013-06-16 18:36:00,
2013-06-16 14:37:00,80.5,66.3,30.09,SE,128,11.0,13.0,62,0.00,,BKN027,0.00,VWS V14.01,2013-06-16 18:37:00,
2013-06-16 14:38:00,80.3,64.7,30.10,SE,138,11.0,11.0,59,0.00,,BKN027,0.00,VWS V14.01,2013-06-16 18:38:00,
2013-06-16 14:39:00,80.5,66.3,30.10,SSE,147,11.0,11.0,62,0.00,,BKN027,0.00,VWS V14.01,2013-06-16 18:39:00,
2013-06-16 14:40:00,80.3,65.6,30.10,SE,132,11.0,12.0,61,0.00,,FEW070,0.00,VWS V14.01,2013-06-16 18:40:00,
2013-06-16 14:41:00,80.3,65.6,30.10,SE,128,10.0,10.0,61,0.00,,BKN027,0.00,VWS V14.01,2013-06-16 18:41:00,
2013-06-16 14:42:00,80.3,65.6,30.10,SE,124,14.0,14.0,61,0.00,,BKN027,0.00,VWS V14.01,2013-06-16 18:42:00,
2013-06-16 14:43:00,80.5,65.8,30.09,SE,128,10.0,14.0,61,0.00,,BKN027,0.00,VWS V14.01,2013-06-16 18:43:00,
2013-06-16 14:44:00,80.3,65.2,30.10,SE,138,9.0,11.0,60,0.00,,BKN027,0.00,VWS V14.01,2013-06-16 18:44:00,
2013-06-16 14:45:00,80.3,65.6,30.10,ESE,121,7.0,11.0,61,0.00,,FEW070,0.00,VWS V14.01,2013-06-16 18:45:00,
2013-06-16 14:46:00,80.3,65.6,30.09,SE,130,11.0,11.0,61,0.00,,BKN027,0.00,VWS V14.01,2013-06-16 18:46:00,
2013-06-16 14:47:00,80.3,64.7,30.10,ESE,123,9.0,11.0,59,0.00,,BKN027,0.00,VWS V14.01,2013-06-16 18:47:00,
2013-06-16 14:48:00,80.3,64.7,30.10,SE,136,9.0,12.0,59,0.00,,BKN027,0.00,VWS V14.01,2013-06-16 18:48:00,
2013-06-16 14:49:00,80.5,66.8,30.10,SSE,157,10.0,11.0,63,0.00,,BKN027,0.00,VWS V14.01,2013-06-16 18:49:00,
2013-06-16 14:50:00,80.7,66.9,30.10,SE,139,10.0,10.0,63,0.00,,FEW070,0.00,VWS V14.01,2013-06-16 18:50:00,
2013-06-16 14:51:00,80.7,66.9,30.10,SE,135,9.0,11.0,63,0.00,,BKN027,0.00,VWS V14.01,2013-06-16 18:51:00,
2013-06-16 14:52:00,80.9,67.1,30.10,SE,138,13.0,13.0,63,0.00,,BKN027,0.00,VWS V14.01,2013-06-16 18:52:00,
2013-06-16 14:53:00,80.9,66.2,30.10,SE,139,11.0,13.0,61,0.00,,BKN027,0.00,VWS V14.01,2013-06-16 18:53:00,
2013-06-16 14:54:00,80.7,64.6,30.10,SE,144,9.0,11.0,58,0.00,,BKN027,0.00,VWS V14.01,2013-06-16 18:54:00,
2013-06-16 14:55:00,80.7,65.1,30.09,SE,131,11.0,11.0,59,0.00,,FEW070,0.00,VWS V14.01,2013-06-16 18:55:00,
2013-06-16 14:56:00,80.7,66.0,30.09,SE,135,11.0,13.0,61,0.00,,BKN027,0.00,VWS V14.01,2013-06-16 18:56:00,
2013-06-16 14:57:00,80.7,66.0,30.09,SE,130,10.0,12.0,61,0.00,,BKN027,0.00,VWS V14.01,2013-06-16 18:57:00,
2013-06-16 14:58:00,80.5,64.9,30.09,SE,127,11.0,12.0,59,0.00,,BKN027,0.00,VWS V14.01,2013-06-16 18:58:00,
2013-06-16 14:59:00,80.5,65.3,30.09,SE,127,11.0,11.0,60,0.00,,BKN027,0.00,VWS V14.01,2013-06-16 18:59:00,
2013-06-16 15:00:00,80.5,65.8,30.09,SE,128,11.0,13.0,61,0.00,,FEW070,0.00,VWS V14.01,2013-06-16 19:00:00,
2013-06-16 15:01:00,80.5,65.8,30.09,SE,130,13.0,13.0,61,0.00,,BKN027,0.00,VWS V14.01,2013-06-16 19:01:00,
2013-06-16 15:02:00,80.5,65.8,30.09,ESE,119,10.0,13.0,61,0.00,,BKN027,0.00,VWS V14.01,2013-06-16 19:02:00,
2013-06-16 15:03:00,80.5,64.9,30.09,SE,128,10.0,11.0,59,0.00,,BKN027,0.00,VWS V14.01,2013-06-16 19:03:00,
2013-06-16 15:04:00,80.5,65.3,30.09,SE,131,12.0,12.0,60,0.00,,BKN027,0.00,VWS V14.01,2013-06-16 19:04:00,
2013-06-16 15:05:00,80.5,64.9,30.09,SE,144,11.0,11.0,59,0.00,,FEW070,0.00,VWS V14.01,2013-06-16 19:05:00,
2013-06-16 15:06:00,80.5,64.9,30.09,SE,134,11.0,11.0,59,0.00,,BKN027,0.00,VWS V14.01,2013-06-16 19:06:00,
2013-06-16 15:07:00,80.5,64.9,30.09,SE,131,10.0,11.0,59,0.00,,BKN027,0.00,VWS V14.01,2013-06-16 19:07:00,
2013-06-16 15:08:00,80.5,65.3,30.09,ESE,121,12.0,12.0,60,0.00,,BKN027,0.00,VWS V14.01,2013-06-16 19:08:00,
2013-06-16 15:09:00,80.5,65.8,30.09,SE,144,10.0,12.0,61,0.00,,BKN027,0.00,VWS V14.01,2013-06-16 19:09:00,
2013-06-16 15:10:00,80.5,64.9,30.09,SE,128,10.0,10.0,59,0.00,,FEW070,0.00,VWS V14.01,2013-06-16 19:10:00,
2013-06-16 15:11:00,80.5,64.9,30.09,SE,126,9.0,11.0,59,0.00,,BKN027,0.00,VWS V14.01,2013-06-16 19:11:00,
2013-06-16 15:12:00,80.3,64.2,30.09,ESE,122,9.0,10.0,58,0.00,,BKN027,0.00,VWS V14.01,2013-06-16 19:12:00,
2013-06-16 15:13:00,80.5,64.9,30.09,ESE,117,11.0,11.0,59,0.00,,BKN027,0.00,VWS V14.01,2013-06-16 19:13:00,
2013-06-16 15:14:00,80.5,65.8,30.09,ESE,119,12.0,12.0,61,0.00,,BKN027,0.00,VWS V14.01,2013-06-16 19:14:00,
2013-06-16 15:15:00,80.5,65.3,30.09,SE,138,7.0,12.0,60,0.00,,FEW070,0.00,VWS V14.01,2013-06-16 19:15:00,
2013-06-16 15:16:00,80.5,65.3,30.09,SE,134,12.0,14.0,60,0.00,,BKN027,0.00,VWS V14.01,2013-06-16 19:16:00,
2013-06-16 15:17:00,80.5,64.9,30.09,SE,125,9.0,12.0,59,0.00,,BKN027,0.00,VWS V14.01,2013-06-16 19:17:00,
2013-06-16 15:18:00,80.5,64.9,30.09,SE,128,9.0,10.0,59,0.00,,BKN027,0.00,VWS V14.01,2013-06-16 19:18:00,
2013-06-16 15:19:00,80.5,64.9,30.09,SE,130,12.0,12.0,59,0.00,,BKN027,0.00,VWS V14.01,2013-06-16 19:19:00,
2013-06-16 15:20:00,80.5,64.9,30.09,SE,134,11.0,11.0,59,0.00,,FEW070,0.00,VWS V14.01,2013-06-16 19:20:00,
2013-06-16 15:21:00,80.5,64.9,30.09,ESE,114,10.0,14.0,59,0.00,,BKN027,0.00,VWS V14.01,2013-06-16 19:21:00,
2013-06-16 15:22:00,80.5,64.4,30.09,SE,130,13.0,13.0,58,0.00,,BKN027,0.00,VWS V14.01,2013-06-16 19:22:00,
2013-06-16 15:23:00,80.3,63.7,30.09,ESE,117,9.0,13.0,57,0.00,,BKN027,0.00,VWS V14.01,2013-06-16 19:23:00,
2013-06-16 15:24:00,80.3,64.2,30.09,ESE,118,11.0,12.0,58,0.00,,BKN027,0.00,VWS V14.01,2013-06-16 19:24:00,
2013-06-16 15:25:00,80.3,64.2,30.09,SE,128,13.0,14.0,58,0.00,,FEW070,0.00,VWS V14.01,2013-06-16 19:25:00,
2013-06-16 15:26:00,80.3,64.2,30.09,SE,126,14.0,14.0,58,0.00,,BKN027,0.00,VWS V14.01,2013-06-16 19:26:00,
2013-06-16 15:27:00,80.1,64.5,30.09,SE,124,9.0,14.0,59,0.00,,BKN027,0.00,VWS V14.01,2013-06-16 19:27:00,
2013-06-16 15:28:00,80.3,64.2,30.09,SE,126,10.0,11.0,58,0.00,,BKN027,0.00,VWS V14.01,2013-06-16 19:28:00,
2013-06-16 15:29:00,80.3,64.7,30.08,ESE,113,11.0,12.0,59,0.00,,BKN027,0.00,VWS V14.01,2013-06-16 19:29:00,
2013-06-16 15:30:00,80.3,66.6,30.09,SE,143,12.0,12.0,63,0.00,,FEW070,0.00,VWS V14.01,2013-06-16 19:30:00,
2013-06-16 15:31:00,80.3,66.6,30.09,SE,141,12.0,14.0,63,0.00,,BKN027,0.00,VWS V14.01,2013-06-16 19:31:00,
2013-06-16 15:32:00,80.3,66.6,30.09,SE,140,10.0,12.0,63,0.00,,BKN027,0.00,VWS V14.01,2013-06-16 19:32:00,
2013-06-16 15:33:00,80.5,64.9,30.09,SE,126,12.0,13.0,59,0.00,,BKN027,0.00,VWS V14.01,2013-06-16 19:33:00,
2013-06-16 15:34:00,80.5,66.3,30.09,SE,130,13.0,13.0,62,0.00,,BKN027,0.00,VWS V14.01,2013-06-16 19:34:00,
2013-06-16 15:35:00,80.3,65.2,30.08,SE,132,12.0,13.0,60,0.00,,FEW070,0.00,VWS V14.01,2013-06-16 19:35:00,
2013-06-16 15:36:00,80.3,63.7,30.08,SE,127,13.0,13.0,57,0.00,,BKN027,0.00,VWS V14.01,2013-06-16 19:36:00,
2013-06-16 15:37:00,80.3,65.2,30.08,SE,130,11.0,13.0,60,0.00,,BKN027,0.00,VWS V14.01,2013-06-16 19:37:00,
2013-06-16 15:38:00,80.3,66.1,30.08,ESE,122,10.0,15.0,62,0.00,,BKN027,0.00,VWS V14.01,2013-06-16 19:38:00,
2013-06-16 15:39:00,80.3,66.6,30.08,SE,124,14.0,14.0,63,0.00,,BKN027,0.00,VWS V14.01,2013-06-16 19:39:00,
2013-06-16 15:40:00,80.3,64.7,30.08,ESE,122,13.0,13.0,59,0.00,,CLR,0.00,VWS V14.01,2013-06-16 19:40:00,
2013-06-16 15:41:00,80.3,65.6,30.08,SE,130,11.0,12.0,61,0.00,,BKN027,0.00,VWS V14.01,2013-06-16 19:41:00,
2013-06-16 15:42:00,80.3,64.7,30.08,ESE,115,12.0,13.0,59,0.00,,BKN027,0.00,VWS V14.01,2013-06-16 19:42:00,
2013-06-16 15:43:00,80.5,66.3,30.08,SE,133,14.0,14.0,62,0.00,,BKN027,0.00,VWS V14.01,2013-06-16 19:43:00,
2013-06-16 15:44:00,80.5,65.8,30.08,SE,131,12.0,14.0,61,0.00,,BKN027,0.00,VWS V14.01,2013-06-16 19:44:00,
2013-06-16 15:45:00,80.5,66.8,30.08,ESE,120,11.0,14.0,63,0.00,,CLR,0.00,VWS V14.01,2013-06-16 19:45:00,
2013-06-16 15:46:00,80.5,66.8,30.08,SE,132,14.0,14.0,63,0.00,,BKN027,0.00,VWS V14.01,2013-06-16 19:46:00,
2013-06-16 15:47:00,80.5,65.8,30.08,ESE,122,12.0,14.0,61,0.00,,BKN027,0.00,VWS V14.01,2013-06-16 19:47:00,
2013-06-16 15:48:00,80.5,65.8,30.09,SE,127,12.0,12.0,61,0.00,,BKN027,0.00,VWS V14.01,2013-06-16 19:48:00,
2013-06-16 15:49:00,80.5,65.8,30.09,ESE,119,11.0,12.0,61,0.00,,BKN027,0.00,VWS V14.01,2013-06-16 19:49:00,
2013-06-16 15:50:00,80.5,64.9,30.08,ESE,119,13.0,14.0,59,0.00,,CLR,0.00,VWS V14.01,2013-06-16 19:50:00,
2013-06-16 15:51:00,80.5,64.9,30.08,ESE,121,14.0,14.0,59,0.00,,BKN027,0.00,VWS V14.01,2013-06-16 19:51:00,
2013-06-16 15:52:00,80.3,64.2,30.08,SE,130,10.0,14.0,58,0.00,,BKN027,0.00,VWS V14.01,2013-06-16 19:52:00,
2013-06-16 15:53:00,80.3,64.2,30.08,SE,129,14.0,14.0,58,0.00,,BKN027,0.00,VWS V14.01,2013-06-16 19:53:00,
2013-06-16 15:54:00,80.3,64.2,30.08,SE,132,14.0,14.0,58,0.00,,BKN027,0.00,VWS V14.01,2013-06-16 19:54:00,
2013-06-16 15:55:00,80.3,64.7,30.08,ESE,119,13.0,13.0,59,0.00,,CLR,0.00,VWS V14.01,2013-06-16 19:55:00,
2013-06-16 15:56:00,80.1,64.5,30.08,ESE,118,11.0,13.0,59,0.00,,BKN027,0.00,VWS V14.01,2013-06-16 19:56:00,
2013-06-16 15:57:00,80.3,65.2,30.08,SE,131,15.0,15.0,60,0.00,,BKN027,0.00,VWS V14.01,2013-06-16 19:57:00,
2013-06-16 15:58:00,80.3,65.2,30.08,SE,127,14.0,15.0,60,0.00,,BKN027,0.00,VWS V14.01,2013-06-16 19:58:00,
2013-06-16 15:59:00,80.3,63.7,30.08,ESE,120,13.0,14.0,57,0.00,,BKN027,0.00,VWS V14.01,2013-06-16 19:59:00,
2013-06-16 16:00:00,80.1,65.4,30.08,SE,127,15.0,15.0,61,0.00,,CLR,0.00,VWS V14.01,2013-06-16 20:00:00,
2013-06-16 16:01:00,80.1,65.4,30.08,SE,133,13.0,14.0,61,0.00,,BKN027,0.00,VWS V14.01,2013-06-16 20:01:00,
2013-06-16 16:02:00,80.1,66.4,30.08,ESE,121,14.0,15.0,63,0.00,,BKN027,0.00,VWS V14.01,2013-06-16 20:02:00,
2013-06-16 16:03:00,80.1,65.4,30.08,SE,138,14.0,15.0,61,0.00,,BKN027,0.00,VWS V14.01,2013-06-16 20:03:00,
2013-06-16 16:04:00,80.1,64.5,30.08,SE,128,11.0,14.0,59,0.00,,BKN027,0.00,VWS V14.01,2013-06-16 20:04:00,
2013-06-16 16:05:00,80.3,67.0,30.08,ESE,123,11.0,12.0,64,0.00,,CLR,0.00,VWS V14.01,2013-06-16 20:05:00,
2013-06-16 16:06:00,80.3,67.0,30.08,ESE,121,12.0,12.0,64,0.00,,BKN027,0.00,VWS V14.01,2013-06-16 20:06:00,
2013-06-16 16:07:00,80.5,66.8,30.08,SE,126,11.0,13.0,63,0.00,,BKN027,0.00,VWS V14.01,2013-06-16 20:07:00,
2013-06-16 16:08:00,80.5,68.1,30.08,SE,132,13.0,13.0,66,0.00,,BKN027,0.00,VWS V14.01,2013-06-16 20:08:00,
2013-06-16 16:09:00,80.5,66.3,30.08,ESE,121,13.0,16.0,62,0.00,,BKN027,0.00,VWS V14.01,2013-06-16 20:09:00,
2013-06-16 16:10:00,80.1,65.4,30.08,ESE,122,14.0,14.0,61,0.00,,CLR,0.00,VWS V14.01,2013-06-16 20:10:00,
2013-06-16 16:11:00,80.3,65.6,30.08,SE,129,14.0,16.0,61,0.00,,BKN027,0.00,VWS V14.01,2013-06-16 20:11:00,
2013-06-16 16:12:00,80.1,65.4,30.08,ESE,122,13.0,14.0,61,0.00,,BKN027,0.00,VWS V14.01,2013-06-16 20:12:00,
2013-06-16 16:13:00,80.1,66.4,30.08,ESE,122,13.0,14.0,63,0.00,,BKN027,0.00,VWS V14.01,2013-06-16 20:13:00,
2013-06-16 16:14:00,80.1,67.3,30.08,ESE,117,11.0,14.0,65,0.00,,BKN027,0.00,VWS V14.01,2013-06-16 20:14:00,
2013-06-16 16:15:00,80.3,66.6,30.08,SE,133,10.0,11.0,63,0.00,,CLR,0.00,VWS V14.01,2013-06-16 20:15:00,
2013-06-16 16:16:00,80.1,66.4,30.08,SSE,153,11.0,15.0,63,0.00,,BKN027,0.00,VWS V14.01,2013-06-16 20:16:00,
2013-06-16 16:17:00,80.3,67.5,30.08,SE,140,12.0,12.0,65,0.00,,BKN027,0.00,VWS V14.01,2013-06-16 20:17:00,
2013-06-16 16:18:00,80.5,67.7,30.08,SE,128,16.0,16.0,65,0.00,,BKN027,0.00,VWS V14.01,2013-06-16 20:18:00,
2013-06-16 16:19:00,80.7,68.3,30.07,ESE,115,15.0,16.0,66,0.00,,BKN027,0.00,VWS V14.01,2013-06-16 20:19:00,
2013-06-16 16:20:00,80.3,66.6,30.07,SE,135,17.0,17.0,63,0.00,,CLR,0.00,VWS V14.01,2013-06-16 20:20:00,
2013-06-16 16:21:00,80.5,65.8,30.07,SE,128,15.0,17.0,61,0.00,,BKN027,0.00,VWS V14.01,2013-06-16 20:21:00,
2013-06-16 16:22:00,80.3,66.6,30.07,SE,135,16.0,17.0,63,0.00,,BKN027,0.00,VWS V14.01,2013-06-16 20:22:00,
2013-06-16 16:23:00,80.3,65.2,30.07,SE,125,11.0,16.0,60,0.00,,BKN027,0.00,VWS V14.01,2013-06-16 20:23:00,
2013-06-16 16:24:00,80.3,65.6,30.07,SE,137,12.0,14.0,61,0.00,,BKN027,0.00,VWS V14.01,2013-06-16 20:24:00,
2013-06-16 16:25:00,80.1,66.4,30.07,SE,132,13.0,16.0,63,0.00,,CLR,0.00,VWS V14.01,2013-06-16 20:25:00,
2013-06-16 16:26:00,80.3,67.9,30.07,SE,131,16.0,17.0,66,0.00,,BKN027,0.00,VWS V14.01,2013-06-16 20:26:00,
2013-06-16 16:27:00,80.1,66.4,30.07,SE,136,12.0,16.0,63,0.00,,BKN027,0.00,VWS V14.01,2013-06-16 20:27:00,
2013-06-16 16:28:00,80.1,66.8,30.07,SE,124,13.0,14.0,64,0.00,,BKN027,0.00,VWS V14.01,2013-06-16 20:28:00,
2013-06-16 16:29:00,80.1,66.8,30.08,SE,129,13.0,14.0,64,0.00,,BKN027,0.00,VWS V14.01,2013-06-16 20:29:00,
2013-06-16 16:30:00,80.1,66.4,30.07,SE,140,15.0,17.0,63,0.00,,CLR,0.00,VWS V14.01,2013-06-16 20:30:00,
2013-06-16 16:31:00,80.1,66.4,30.07,SE,142,17.0,17.0,63,0.00,,BKN027,0.00,VWS V14.01,2013-06-16 20:31:00,
2013-06-16 16:32:00,80.1,66.4,30.07,SE,139,14.0,17.0,63,0.00,,BKN027,0.00,VWS V14.01,2013-06-16 20:32:00,
2013-06-16 16:33:00,80.1,65.0,30.07,ESE,123,13.0,14.0,60,0.00,,BKN027,0.00,VWS V14.01,2013-06-16 20:33:00,
2013-06-16 16:34:00,80.1,65.0,30.07,SE,128,13.0,17.0,60,0.00,,BKN027,0.00,VWS V14.01,2013-06-16 20:34:00,
2013-06-16 16:35:00,80.1,66.8,30.07,SE,130,13.0,13.0,64,0.00,,CLR,0.00,VWS V14.01,2013-06-16 20:35:00,
2013-06-16 16:36:00,80.1,66.8,30.07,ESE,118,13.0,16.0,64,0.00,,BKN027,0.00,VWS V14.01,2013-06-16 20:36:00,
2013-06-16 16:37:00,80.1,67.7,30.07,SE,142,12.0,14.0,66,0.00,,BKN027,0.00,VWS V14.01,2013-06-16 20:37:00,
2013-06-16 16:38:00,80.1,66.4,30.07,SE,136,14.0,15.0,63,0.00,,BKN027,0.00,VWS V14.01,2013-06-16 20:38:00,
2013-06-16 16:39:00,80.1,66.4,30.07,SE,132,16.0,16.0,63,0.00,,BKN027,0.00,VWS V14.01,2013-06-16 20:39:00,
2013-06-16 16:40:00,80.1,65.9,30.08,SE,134,15.0,15.0,62,0.00,,BKN200,0.00,VWS V14.01,2013-06-16 20:40:00,
2013-06-16 16:41:00,80.1,65.9,30.08,ESE,122,12.0,14.0,62,0.00,,BKN027,0.00,VWS V14.01,2013-06-16 20:41:00,
2013-06-16 16:42:00,80.3,66.6,30.08,ESE,113,12.0,15.0,63,0.00,,BKN027,0.00,VWS V14.01,2013-06-16 20:42:00,
2013-06-16 16:43:00,80.3,68.3,30.07,SE,131,13.0,13.0,67,0.00,,BKN027,0.00,VWS V14.01,2013-06-16 20:43:00,
2013-06-16 16:44:00,80.3,67.5,30.07,SE,140,15.0,15.0,65,0.00,,BKN027,0.00,VWS V14.01,2013-06-16 20:44:00,
2013-06-16 16:45:00,80.5,67.7,30.07,ESE,121,14.0,15.0,65,0.00,,BKN200,0.00,VWS V14.01,2013-06-16 20:45:00,
2013-06-16 16:46:00,80.5,67.7,30.07,SE,126,15.0,15.0,65,0.00,,BKN027,0.00,VWS V14.01,2013-06-16 20:46:00,
2013-06-16 16:47:00,80.3,66.1,30.07,SE,126,12.0,15.0,62,0.00,,BKN027,0.00,VWS V14.01,2013-06-16 20:47:00,
2013-06-16 16:48:00,80.3,66.6,30.07,ESE,117,12.0,14.0,63,0.00,,BKN027,0.00,VWS V14.01,2013-06-16 20:48:00,
2013-06-16 16:49:00,80.3,67.5,30.07,SE,130,15.0,16.0,65,0.00,,BKN027,0.00,VWS V14.01,2013-06-16 20:49:00,
2013-06-16 16:50:00,80.1,65.4,30.07,SE,126,14.0,14.0,61,0.00,,BKN200,0.00,VWS V14.01,2013-06-16 20:50:00,
2013-06-16 16:51:00,80.1,65.4,30.08,SE,140,13.0,14.0,61,0.00,,BKN027,0.00,VWS V14.01,2013-06-16 20:51:00,
2013-06-16 16:52:00,80.1,65.4,30.07,SE,130,12.0,14.0,61,0.00,,BKN027,0.00,VWS V14.01,2013-06-16 20:52:00,
2013-06-16 16:53:00,80.1,65.4,30.08,SE,128,11.0,13.0,61,0.00,,BKN027,0.00,VWS V14.01,2013-06-16 20:53:00,
2013-06-16 16:54:00,80.1,65.9,30.07,SE,135,14.0,14.0,62,0.00,,BKN027,0.00,VWS V14.01,2013-06-16 20:54:00,
2013-06-16 16:55:00,79.9,64.8,30.08,SE,131,11.0,12.0,60,0.00,,BKN200,0.00,VWS V14.01,2013-06-16 20:55:00,
2013-06-16 16:56:00,79.9,64.8,30.08,SE,127,12.0,13.0,60,0.00,,BKN027,0.00,VWS V14.01,2013-06-16 20:56:00,
2013-06-16 16:57:00,80.1,65.0,30.08,SE,127,13.0,14.0,60,0.00,,BKN027,0.00,VWS V14.01,2013-06-16 20:57:00,
2013-06-16 16:58:00,80.1,65.4,30.07,SE,130,13.0,14.0,61,0.00,,BKN027,0.00,VWS V14.01,2013-06-16 20:58:00,
2013-06-16 16:59:00,80.1,65.4,30.07,SE,128,12.0,15.0,61,0.00,,BKN027,0.00,VWS V14.01,2013-06-16 20:59:00,
2013-06-16 17:00:00,80.3,66.6,30.07,SE,130,10.0,14.0,63,0.00,,BKN200,0.00,VWS V14.01,2013-06-16 21:00:00,
2013-06-16 17:01:00,80.3,66.6,30.07,SE,134,14.0,14.0,63,0.00,,BKN027,0.00,VWS V14.01,2013-06-16 21:01:00,
2013-06-16 17:02:00,80.3,65.6,30.07,SE,144,11.0,14.0,61,0.00,,BKN027,0.00,VWS V14.01,2013-06-16 21:02:00,
2013-06-16 17:03:00,80.3,66.1,30.07,SE,133,13.0,13.0,62,0.00,,BKN027,0.00,VWS V14.01,2013-06-16 21:03:00,
2013-06-16 17:04:00,80.3,67.5,30.07,SE,135,14.0,15.0,65,0.00,,BKN027,0.00,VWS V14.01,2013-06-16 21:04:00,
2013-06-16 17:05:00,80.3,67.0,30.07,SE,133,15.0,15.0,64,0.00,,BKN200,0.00,VWS V14.01,2013-06-16 21:05:00,
2013-06-16 17:06:00,80.3,67.0,30.07,SE,130,13.0,13.0,64,0.00,,BKN027,0.00,VWS V14.01,2013-06-16 21:06:00,
2013-06-16 17:07:00,80.3,67.0,30.07,SSE,168,12.0,15.0,64,0.00,,BKN027,0.00,VWS V14.01,2013-06-16 21:07:00,
2013-06-16 17:08:00,80.3,67.5,30.07,SE,134,16.0,17.0,65,0.00,,BKN027,0.00,VWS V14.01,2013-06-16 21:08:00,
2013-06-16 17:09:00,80.3,66.1,30.07,SE,140,14.0,16.0,62,0.00,,BKN027,0.00,VWS V14.01,2013-06-16 21:09:00,
2013-06-16 17:10:00,80.3,65.6,30.07,SE,143,12.0,14.0,61,0.00,,BKN200,0.00,VWS V14.01,2013-06-16 21:10:00,
2013-06-16 17:11:00,80.3,67.0,30.07,SE,141,14.0,14.0,64,0.00,,BKN027,0.00,VWS V14.01,2013-06-16 21:11:00,
2013-06-16 17:12:00,80.3,65.6,30.07,SE,129,13.0,14.0,61,0.00,,BKN027,0.00,VWS V14.01,2013-06-16 21:12:00,
2013-06-16 17:13:00,80.3,67.5,30.07,SE,136,13.0,15.0,65,0.00,,BKN027,0.00,VWS V14.01,2013-06-16 21:13:00,
2013-06-16 17:14:00,80.3,66.6,30.07,SE,130,11.0,14.0,63,0.00,,BKN027,0.00,VWS V14.01,2013-06-16 21:14:00,
2013-06-16 17:15:00,80.3,67.0,29.85,SSE,164,14.0,14.0,64,0.00,,BKN200,0.00,VWS V14.01,2013-06-16 21:15:00,
2013-06-16 17:16:00,80.3,66.6,29.85,SE,136,12.0,14.0,63,0.00,,BKN027,0.00,VWS V14.01,2013-06-16 21:16:00,
2013-06-16 17:17:00,80.1,66.8,29.85,SE,132,14.0,14.0,64,0.00,,BKN027,0.00,VWS V14.01,2013-06-16 21:17:00,
2013-06-16 17:18:00,80.1,66.4,29.81,SE,132,14.0,15.0,63,0.00,,BKN027,0.00,VWS V14.01,2013-06-16 21:18:00,
2013-06-16 17:19:00,80.1,66.4,29.81,SE,141,14.0,16.0,63,0.00,,BKN027,0.00,VWS V14.01,2013-06-16 21:19:00,
2013-06-16 17:20:00,80.1,66.4,29.81,SE,138,10.0,10.0,63,0.00,,BKN200,0.00,VWS V14.01,2013-06-16 21:20:00,
2013-06-16 17:21:00,80.1,66.4,29.81,SE,136,10.0,14.0,63,0.00,,BKN027,0.00,VWS V14.01,2013-06-16 21:21:00,
2013-06-16 17:22:00,80.1,66.8,29.81,SE,137,16.0,16.0,64,0.00,,BKN027,0.00,VWS V14.01,2013-06-16 21:22:00,
2013-06-16 17:23:00,79.9,65.7,29.81,SSE,156,13.0,16.0,62,0.00,,BKN027,0.00,VWS V14.01,2013-06-16 21:23:00,
2013-06-16 17:24:00,79.9,66.6,29.81,SE,137,12.0,14.0,64,0.00,,BKN027,0.00,VWS V14.01,2013-06-16 21:24:00,
2013-06-16 17:25:00,80.1,67.7,29.81,SE,130,12.0,13.0,66,0.00,,BKN200,0.00,VWS V14.01,2013-06-16 21:25:00,
2013-06-16 17:26:00,80.1,67.7,29.81,SE,128,13.0,15.0,66,0.00,,BKN027,0.00,VWS V14.01,2013-06-16 21:26:00,
2013-06-16 17:27:00,80.1,66.4,29.81,SSE,148,12.0,13.0,63,0.00,,BKN027,0.00,VWS V14.01,2013-06-16 21:27:00,
2013-06-16 17:28:00,80.1,68.2,29.81,SE,140,13.0,16.0,67,0.00,,BKN027,0.00,VWS V14.01,2013-06-16 21:28:00,
2013-06-16 17:29:00,80.1,66.4,29.81,SE,128,13.0,16.0,63,0.00,,BKN027,0.00,VWS V14.01,2013-06-16 21:29:00,
2013-06-16 17:30:00,80.1,67.7,30.07,SE,124,12.0,15.0,66,0.00,,BKN200,0.00,VWS V14.01,2013-06-16 21:30:00,
2013-06-16 17:31:00,80.1,67.7,30.07,SE,124,12.0,15.0,66,0.00,,BKN027,0.00,VWS V14.01,2013-06-16 21:31:00,
2013-06-16 17:32:00,80.1,67.7,30.07,SE,138,14.0,14.0,66,0.00,,BKN027,0.00,VWS V14.01,2013-06-16 21:32:00,
2013-06-16 17:33:00,79.9,66.6,30.07,SE,140,15.0,17.0,64,0.00,,BKN027,0.00,VWS V14.01,2013-06-16 21:33:00,
2013-06-16 17:34:00,79.9,67.5,30.07,SE,137,15.0,15.0,66,0.00,,BKN027,0.00,VWS V14.01,2013-06-16 21:34:00,
2013-06-16 17:35:00,79.9,68.0,30.07,SE,137,16.0,17.0,67,0.00,,BKN200,0.00,VWS V14.01,2013-06-16 21:35:00,
2013-06-16 17:36:00,79.9,68.0,30.07,SE,137,16.0,17.0,67,0.00,,BKN027,0.00,VWS V14.01,2013-06-16 21:36:00,
2013-06-16 17:37:00,79.9,68.0,30.07,SE,140,14.0,16.0,67,0.00,,BKN027,0.00,VWS V14.01,2013-06-16 21:37:00,
2013-06-16 17:38:00,79.9,68.0,30.07,SSE,148,14.0,14.0,67,0.00,,BKN027,0.00,VWS V14.01,2013-06-16 21:38:00,
2013-06-16 17:39:00,79.9,67.1,30.07,SE,138,16.0,16.0,65,0.00,,BKN027,0.00,VWS V14.01,2013-06-16 21:39:00,
2013-06-16 17:40:00,79.9,66.7,30.07,SE,134,15.0,16.0,64,0.00,,BKN200,0.00,VWS V14.01,2013-06-16 21:40:00,
2013-06-16 17:41:00,79.9,66.6,30.07,SE,137,16.0,18.0,64,0.00,,BKN027,0.00,VWS V14.01,2013-06-16 21:41:00,
2013-06-16 17:42:00,79.8,67.4,30.07,SE,144,14.0,17.0,66,0.00,,BKN027,0.00,VWS V14.01,2013-06-16 21:42:00,
2013-06-16 17:43:00,79.8,67.9,30.07,SE,139,15.0,15.0,67,0.00,,BKN027,0.00,VWS V14.01,2013-06-16 21:43:00,
2013-06-16 17:44:00,79.9,68.4,30.06,SE,141,14.0,15.0,68,0.00,,BKN027,0.00,VWS V14.01,2013-06-16 21:44:00,
2013-06-16 17:45:00,79.9,68.8,30.06,SSE,149,13.0,14.0,69,0.00,,BKN200,0.00,VWS V14.01,2013-06-16 21:45:00,
2013-06-16 17:46:00,79.9,68.8,30.06,ESE,117,14.0,15.0,69,0.00,,BKN027,0.00,VWS V14.01,2013-06-16 21:46:00,
2013-06-16 17:47:00,79.9,68.0,30.06,SE,133,13.0,15.0,67,0.00,,BKN027,0.00,VWS V14.01,2013-06-16 21:47:00,
2013-06-16 17:48:00,79.9,68.4,30.06,SSE,149,14.0,14.0,68,0.00,,BKN027,0.00,VWS V14.01,2013-06-16 21:48:00,
2013-06-16 17:49:00,79.9,67.5,30.06,SSE,158,12.0,14.0,66,0.00,,BKN027,0.00,VWS V14.01,2013-06-16 21:49:00,
2013-06-16 17:50:00,79.9,68.8,30.06,SSE,150,15.0,15.0,69,0.00,,BKN200,0.00,VWS V14.01,2013-06-16 21:50:00,
2013-06-16 17:51:00,79.9,68.8,30.07,SE,142,15.0,16.0,69,0.00,,BKN027,0.00,VWS V14.01,2013-06-16 21:51:00,
2013-06-16 17:52:00,79.9,68.4,30.06,SE,138,14.0,18.0,68,0.00,,BKN027,0.00,VWS V14.01,2013-06-16 21:52:00,
2013-06-16 17:53:00,79.9,68.4,30.06,SE,138,15.0,16.0,68,0.00,,BKN027,0.00,VWS V14.01,2013-06-16 21:53:00,
2013-06-16 17:54:00,79.9,68.0,30.06,SE,131,16.0,16.0,67,0.00,,BKN027,0.00,VWS V14.01,2013-06-16 21:54:00,
2013-06-16 17:55:00,79.9,68.4,30.06,SE,146,13.0,13.0,68,0.00,,BKN200,0.00,VWS V14.01,2013-06-16 21:55:00,
2013-06-16 17:56:00,79.9,68.4,30.06,SE,133,13.0,15.0,68,0.00,,BKN027,0.00,VWS V14.01,2013-06-16 21:56:00,
2013-06-16 17:57:00,79.9,68.8,30.06,SE,136,17.0,17.0,69,0.00,,BKN027,0.00,VWS V14.01,2013-06-16 21:57:00,
2013-06-16 17:58:00,79.8,68.3,30.06,SE,138,15.0,17.0,68,0.00,,BKN027,0.00,VWS V14.01,2013-06-16 21:58:00,
2013-06-16 17:59:00,79.8,66.6,30.06,SE,138,15.0,15.0,64,0.00,,BKN027,0.00,VWS V14.01,2013-06-16 21:59:00,
2013-06-16 18:00:00,79.9,68.8,30.06,SE,135,16.0,16.0,69,0.00,,BKN200,0.00,VWS V14.01,2013-06-16 22:00:00,
2013-06-16 18:01:00,79.8,67.9,30.07,SE,138,12.0,14.0,67,0.00,,BKN027,0.00,VWS V14.01,2013-06-16 22:01:00,
2013-06-16 18:02:00,79.9,68.8,30.06,SSE,153,15.0,16.0,69,0.00,,BKN027,0.00,VWS V14.01,2013-06-16 22:02:00,
2013-06-16 18:03:00,79.9,68.8,30.06,SE,138,15.0,15.0,69,0.00,,BKN027,0.00,VWS V14.01,2013-06-16 22:03:00,
2013-06-16 18:04:00,79.8,68.3,30.06,SE,141,15.0,17.0,68,0.00,,BKN027,0.00,VWS V14.01,2013-06-16 22:04:00,
2013-06-16 18:05:00,79.8,67.4,30.06,SE,139,13.0,14.0,66,0.00,,BKN200,0.00,VWS V14.01,2013-06-16 22:05:00,
2013-06-16 18:06:00,79.8,67.4,30.06,SE,139,13.0,14.0,66,0.00,,BKN027,0.00,VWS V14.01,2013-06-16 22:06:00,
2013-06-16 18:07:00,79.8,67.9,30.06,SE,134,14.0,16.0,67,0.00,,BKN027,0.00,VWS V14.01,2013-06-16 22:07:00,
2013-06-16 18:08:00,79.8,68.3,30.06,SSE,149,12.0,17.0,68,0.00,,BKN027,0.00,VWS V14.01,2013-06-16 22:08:00,
2013-06-16 18:09:00,79.8,67.9,30.06,SE,146,14.0,14.0,67,0.00,,BKN027,0.00,VWS V14.01,2013-06-16 22:09:00,
2013-06-16 18:10:00,79.8,67.4,29.91,SE,130,16.0,16.0,66,0.00,,BKN200,0.00,VWS V14.01,2013-06-16 22:10:00,
2013-06-16 18:11:00,79.8,67.4,29.91,SE,130,16.0,16.0,66,0.00,,BKN027,0.00,VWS V14.01,2013-06-16 22:11:00,
2013-06-16 18:12:00,79.6,67.2,29.91,SE,128,15.0,16.0,66,0.00,,BKN027,0.00,VWS V14.01,2013-06-16 22:12:00,
2013-06-16 18:13:00,79.8,68.7,29.91,SE,134,17.0,17.0,69,0.00,,BKN027,0.00,VWS V14.01,2013-06-16 22:13:00,
2013-06-16 18:14:00,79.6,68.1,29.91,SE,125,15.0,17.0,68,0.00,,BKN027,0.00,VWS V14.01,2013-06-16 22:14:00,
2013-06-16 18:15:00,79.6,67.7,29.91,SE,140,13.0,14.0,67,0.00,,BKN200,0.00,VWS V14.01,2013-06-16 22:15:00,
2013-06-16 18:16:00,79.6,67.7,29.91,SE,138,14.0,15.0,67,0.00,,BKN027,0.00,VWS V14.01,2013-06-16 22:16:00,
2013-06-16 18:17:00,79.6,68.1,29.91,SE,144,14.0,14.0,68,0.00,,BKN027,0.00,VWS V14.01,2013-06-16 22:17:00,
2013-06-16 18:18:00,79.6,68.1,30.03,SE,140,17.0,17.0,68,0.00,,BKN027,0.00,VWS V14.01,2013-06-16 22:18:00,
2013-06-16 18:19:00,79.6,67.7,30.03,SE,136,12.0,17.0,67,0.00,,BKN027,0.00,VWS V14.01,2013-06-16 22:19:00,
2013-06-16 18:20:00,79.8,68.7,30.07,SSE,150,12.0,14.0,69,0.00,,BKN200,0.00,VWS V14.01,2013-06-16 22:20:00,
2013-06-16 18:21:00,79.8,68.7,30.03,SE,140,14.0,16.0,69,0.00,,BKN027,0.00,VWS V14.01,2013-06-16 22:21:00,
2013-06-16 18:22:00,79.8,67.0,30.07,SSE,149,14.0,14.0,65,0.00,,BKN027,0.00,VWS V14.01,2013-06-16 22:22:00,
2013-06-16 18:23:00,79.8,68.3,30.07,SE,142,11.0,14.0,68,0.00,,BKN027,0.00,VWS V14.01,2013-06-16 22:23:00,
2013-06-16 18:24:00,79.8,67.9,30.07,SE,137,12.0,14.0,67,0.00,,BKN027,0.00,VWS V14.01,2013-06-16 22:24:00,
2013-06-16 18:25:00,79.8,67.9,29.91,SSE,155,14.0,14.0,67,0.00,,BKN200,0.00,VWS V14.01,2013-06-16 22:25:00,
2013-06-16 18:26:00,79.8,67.9,29.91,SSE,149,11.0,16.0,67,0.00,,BKN027,0.00,VWS V14.01,2013-06-16 22:26:00,
2013-06-16 18:27:00,79.8,67.4,29.91,SE,140,13.0,14.0,66,0.00,,BKN027,0.00,VWS V14.01,2013-06-16 22:27:00,
2013-06-16 18:28:00,79.8,67.4,29.91,SE,145,14.0,17.0,66,0.00,,BKN027,0.00,VWS V14.01,2013-06-16 22:28:00,
2013-06-16 18:29:00,79.8,67.0,29.91,SE,143,9.0,14.0,65,0.00,,BKN027,0.00,VWS V14.01,2013-06-16 22:29:00,
2013-06-16 18:30:00,79.8,67.9,30.07,SSE,150,12.0,15.0,67,0.00,,BKN200,0.00,VWS V14.01,2013-06-16 22:30:00,
2013-06-16 18:31:00,79.8,67.9,30.07,SSE,150,12.0,15.0,67,0.00,,BKN027,0.00,VWS V14.01,2013-06-16 22:31:00,
2013-06-16 18:32:00,79.8,68.3,30.07,SE,141,12.0,13.0,68,0.00,,BKN027,0.00,VWS V14.01,2013-06-16 22:32:00,
2013-06-16 18:33:00,79.8,68.3,30.07,SE,145,14.0,16.0,68,0.00,,BKN027,0.00,VWS V14.01,2013-06-16 22:33:00,
2013-06-16 18:34:00,79.8,67.9,30.07,SSE,147,11.0,14.0,67,0.00,,BKN027,0.00,VWS V14.01,2013-06-16 22:34:00,
2013-06-16 18:35:00,79.8,67.9,29.95,SE,141,13.0,14.0,67,0.00,,BKN200,0.00,VWS V14.01,2013-06-16 22:35:00,
2013-06-16 18:36:00,79.8,67.9,29.95,SE,141,13.0,14.0,67,0.00,,BKN027,0.00,VWS V14.01,2013-06-16 22:36:00,
2013-06-16 18:37:00,79.6,67.7,29.95,SE,142,13.0,13.0,67,0.00,,BKN027,0.00,VWS V14.01,2013-06-16 22:37:00,
2013-06-16 18:38:00,79.8,67.9,29.95,SE,136,13.0,14.0,67,0.00,,BKN027,0.00,VWS V14.01,2013-06-16 22:38:00,
2013-06-16 18:39:00,79.8,67.9,30.03,SE,146,13.0,13.0,67,0.00,,BKN027,0.00,VWS V14.01,2013-06-16 22:39:00,
2013-06-16 18:40:00,79.6,67.2,30.07,SE,129,13.0,15.0,66,0.00,,BKN200,0.00,VWS V14.01,2013-06-16 22:40:00,
2013-06-16 18:41:00,79.6,67.2,30.07,SE,129,13.0,15.0,66,0.00,,BKN027,0.00,VWS V14.01,2013-06-16 22:41:00,
2013-06-16 18:42:00,79.6,67.7,30.07,SE,143,16.0,16.0,67,0.00,,BKN027,0.00,VWS V14.01,2013-06-16 22:42:00,
2013-06-16 18:43:00,79.6,67.7,30.07,SE,135,15.0,16.0,67,0.00,,BKN027,0.00,VWS V14.01,2013-06-16 22:43:00,
2013-06-16 18:44:00,79.6,67.7,30.07,SE,137,12.0,15.0,67,0.00,,BKN027,0.00,VWS V14.01,2013-06-16 22:44:00,
2013-06-16 18:45:00,79.6,68.1,30.07,ESE,123,12.0,12.0,68,0.00,,BKN200,0.00,VWS V14.01,2013-06-16 22:45:00,
2013-06-16 18:46:00,79.6,68.1,30.07,SE,140,11.0,13.0,68,0.00,,BKN027,0.00,VWS V14.01,2013-06-16 22:46:00,
2013-06-16 18:47:00,79.6,68.1,30.07,SE,140,16.0,16.0,68,0.00,,BKN027,0.00,VWS V14.01,2013-06-16 22:47:00,
2013-06-16 18:48:00,79.6,68.1,30.07,SE,128,16.0,16.0,68,0.00,,BKN027,0.00,VWS V14.01,2013-06-16 22:48:00,
2013-06-16 18:49:00,79.6,68.1,30.07,SE,138,15.0,16.0,68,0.00,,BKN027,0.00,VWS V14.01,2013-06-16 22:49:00,
2013-06-16 18:50:00,79.6,67.7,30.07,SE,132,16.0,16.0,67,0.00,,BKN200,0.00,VWS V14.01,2013-06-16 22:50:00,
2013-06-16 18:51:00,79.6,67.7,30.07,SE,132,16.0,16.0,67,0.00,,BKN027,0.00,VWS V14.01,2013-06-16 22:51:00,
2013-06-16 18:52:00,79.6,67.2,30.07,SSE,157,16.0,17.0,66,0.00,,BKN027,0.00,VWS V14.01,2013-06-16 22:52:00,
2013-06-16 18:53:00,79.6,68.1,30.07,SE,136,12.0,16.0,68,0.00,,BKN027,0.00,VWS V14.01,2013-06-16 22:53:00,
2013-06-16 18:54:00,79.6,67.7,30.07,SE,129,14.0,15.0,67,0.00,,BKN027,0.00,VWS V14.01,2013-06-16 22:54:00,
2013-06-16 18:55:00,79.4,67.1,30.07,SE,129,14.0,15.0,66,0.00,,BKN200,0.00,VWS V14.01,2013-06-16 22:55:00,
2013-06-16 18:56:00,79.4,67.1,30.07,SE,129,14.0,15.0,66,0.00,,BKN027,0.00,VWS V14.01,2013-06-16 22:56:00,
2013-06-16 18:57:00,79.6,68.1,30.06,SE,128,14.0,14.0,68,0.00,,BKN027,0.00,VWS V14.01,2013-06-16 22:57:00,
2013-06-16 18:58:00,79.4,67.5,30.06,ESE,122,13.0,15.0,67,0.00,,BKN027,0.00,VWS V14.01,2013-06-16 22:58:00,
2013-06-16 18:59:00,79.4,68.3,30.06,SSE,153,12.0,14.0,69,0.00,,BKN027,0.00,VWS V14.01,2013-06-16 22:59:00,
2013-06-16 19:00:00,79.6,68.5,30.06,SSE,150,15.0,16.0,69,0.00,,BKN200,0.00,VWS V14.01,2013-06-16 23:00:00,
2013-06-16 19:01:00,79.6,68.5,30.06,SSE,150,15.0,16.0,69,0.00,,BKN027,0.00,VWS V14.01,2013-06-16 23:01:00,
2013-06-16 19:02:00,79.4,67.9,30.06,SE,143,16.0,16.0,68,0.00,,BKN027,0.00,VWS V14.01,2013-06-16 23:02:00,
2013-06-16 19:04:00,79.4,68.3,30.06,SE,134,11.0,15.0,69,0.00,,BKN027,0.00,VWS V14.01,2013-06-16 23:04:00,
2013-06-16 19:05:00,79.4,67.9,30.06,SE,142,13.0,15.0,68,0.00,,BKN200,0.00,VWS V14.01,2013-06-16 23:05:00,
2013-06-16 19:06:00,79.4,67.9,30.06,SE,142,13.0,15.0,68,0.00,,BKN027,0.00,VWS V14.01,2013-06-16 23:06:00,
2013-06-16 19:07:00,79.4,67.9,30.06,ESE,117,16.0,16.0,68,0.00,,BKN027,0.00,VWS V14.01,2013-06-16 23:07:00,
2013-06-16 19:08:00,79.4,68.3,30.06,ESE,119,15.0,16.0,69,0.00,,BKN027,0.00,VWS V14.01,2013-06-16 23:08:00,
2013-06-16 19:09:00,79.4,67.5,30.06,SE,124,15.0,15.0,67,0.00,,BKN027,0.00,VWS V14.01,2013-06-16 23:09:00,
2013-06-16 19:10:00,79.4,68.3,30.06,SE,136,15.0,15.0,69,0.00,,BKN200,0.00,VWS V14.01,2013-06-16 23:10:00,
2013-06-16 19:11:00,79.4,68.3,30.06,SE,136,15.0,15.0,69,0.00,,BKN027,0.00,VWS V14.01,2013-06-16 23:11:00,
2013-06-16 19:12:00,79.2,67.3,30.06,SE,141,12.0,15.0,67,0.00,,BKN027,0.00,VWS V14.01,2013-06-16 23:12:00,
2013-06-16 19:13:00,79.4,67.5,30.06,SE,146,14.0,15.0,67,0.00,,BKN027,0.00,VWS V14.01,2013-06-16 23:13:00,
2013-06-16 19:14:00,79.4,68.3,30.06,SE,130,15.0,16.0,69,0.00,,BKN027,0.00,VWS V14.01,2013-06-16 23:14:00,
2013-06-16 19:15:00,79.4,67.9,30.07,SE,137,10.0,17.0,68,0.00,,BKN200,0.00,VWS V14.01,2013-06-16 23:15:00,
2013-06-16 19:16:00,79.4,67.9,30.07,SE,137,10.0,17.0,68,0.00,,BKN027,0.00,VWS V14.01,2013-06-16 23:16:00,
2013-06-16 19:17:00,79.4,69.2,30.07,SE,134,13.0,14.0,71,0.00,,BKN027,0.00,VWS V14.01,2013-06-16 23:17:00,
2013-06-16 19:18:00,79.4,68.3,30.07,SE,130,14.0,14.0,69,0.00,,BKN027,0.00,VWS V14.01,2013-06-16 23:18:00,
2013-06-16 19:19:00,79.2,67.7,30.07,SE,141,13.0,14.0,68,0.00,,BKN027,0.00,VWS V14.01,2013-06-16 23:19:00,
2013-06-16 19:20:00,79.4,68.8,30.07,SE,130,12.0,17.0,70,0.00,,BKN200,0.00,VWS V14.01,2013-06-16 23:20:00,
2013-06-16 19:21:00,79.4,68.8,30.07,SE,130,12.0,17.0,70,0.00,,BKN027,0.00,VWS V14.01,2013-06-16 23:21:00,
2013-06-16 19:22:00,79.2,67.7,30.07,SE,138,14.0,16.0,68,0.00,,BKN027,0.00,VWS V14.01,2013-06-16 23:22:00,
2013-06-16 19:23:00,79.2,67.3,30.07,SSE,151,12.0,15.0,67,0.00,,BKN027,0.00,VWS V14.01,2013-06-16 23:23:00,
2013-06-16 19:24:00,79.2,67.7,30.07,SE,142,13.0,15.0,68,0.00,,BKN027,0.00,VWS V14.01,2013-06-16 23:24:00,
2013-06-16 19:25:00,79.4,68.3,30.07,SE,138,15.0,15.0,69,0.00,,BKN200,0.00,VWS V14.01,2013-06-16 23:25:00,
2013-06-16 19:26:00,79.4,68.3,30.07,SE,134,12.0,16.0,69,0.00,,BKN027,0.00,VWS V14.01,2013-06-16 23:26:00,
2013-06-16 19:27:00,79.2,67.7,30.07,SSE,154,12.0,15.0,68,0.00,,BKN027,0.00,VWS V14.01,2013-06-16 23:27:00,
2013-06-16 19:28:00,79.2,67.7,30.06,SE,143,16.0,16.0,68,0.00,,BKN027,0.00,VWS V14.01,2013-06-16 23:28:00,
2013-06-16 19:29:00,79.2,67.7,30.06,ESE,123,12.0,17.0,68,0.00,,BKN027,0.00,VWS V14.01,2013-06-16 23:29:00,
2013-06-16 19:30:00,79.2,67.7,30.06,SE,133,13.0,14.0,68,0.00,,BKN200,0.00,VWS V14.01,2013-06-16 23:30:00,
2013-06-16 19:31:00,79.2,67.7,30.06,SE,126,14.0,17.0,68,0.00,,BKN027,0.00,VWS V14.01,2013-06-16 23:31:00,
2013-06-16 19:32:00,79.2,67.7,30.06,SE,138,12.0,14.0,68,0.00,,BKN027,0.00,VWS V14.01,2013-06-16 23:32:00,
2013-06-16 19:33:00,79.2,68.2,30.06,SE,139,12.0,14.0,69,0.00,,BKN027,0.00,VWS V14.01,2013-06-16 23:33:00,
2013-06-16 19:34:00,79.2,68.2,29.98,SE,142,15.0,16.0,69,0.00,,BKN027,0.00,VWS V14.01,2013-06-16 23:34:00,
2013-06-16 19:35:00,79.2,68.2,29.98,SE,144,11.0,13.0,69,0.00,,BKN200,0.00,VWS V14.01,2013-06-16 23:35:00,
2013-06-16 19:36:00,79.2,67.3,29.98,SE,142,13.0,13.0,67,0.00,,BKN027,0.00,VWS V14.01,2013-06-16 23:36:00,
2013-06-16 19:37:00,79.2,68.2,29.98,SE,140,12.0,16.0,69,0.00,,BKN027,0.00,VWS V14.01,2013-06-16 23:37:00,
2013-06-16 19:38:00,79.2,67.3,29.98,SE,136,17.0,18.0,67,0.00,,BKN027,0.00,VWS V14.01,2013-06-16 23:38:00,
2013-06-16 19:39:00,79.2,67.3,30.07,SE,134,14.0,17.0,67,0.00,,BKN027,0.00,VWS V14.01,2013-06-16 23:39:00,
2013-06-16 19:40:00,79.2,68.6,30.07,SE,144,15.0,17.0,70,0.00,,BKN200,0.00,VWS V14.01,2013-06-16 23:40:00,
2013-06-16 19:41:00,79.2,68.6,30.07,SE,132,17.0,17.0,70,0.00,,BKN027,0.00,VWS V14.01,2013-06-16 23:41:00,
2013-06-16 19:42:00,79.2,67.7,30.07,SE,140,13.0,17.0,68,0.00,,BKN027,0.00,VWS V14.01,2013-06-16 23:42:00,
2013-06-16 19:43:00,79.2,67.3,30.07,SE,134,16.0,16.0,67,0.00,,BKN027,0.00,VWS V14.01,2013-06-16 23:43:00,
2013-06-16 19:44:00,79.2,67.3,30.07,SE,140,13.0,16.0,67,0.00,,BKN027,0.00,VWS V14.01,2013-06-16 23:44:00,
2013-06-16 19:45:00,79.2,67.7,30.07,SE,127,14.0,14.0,68,0.00,,CLR,0.00,VWS V14.01,2013-06-16 23:45:00,
2013-06-16 19:46:00,79.2,67.7,30.07,SE,143,14.0,16.0,68,0.00,,BKN027,0.00,VWS V14.01,2013-06-16 23:46:00,
2013-06-16 19:47:00,79.2,67.7,30.07,SSE,147,12.0,14.0,68,0.00,,BKN027,0.00,VWS V14.01,2013-06-16 23:47:00,
2013-06-16 19:48:00,79.2,68.2,30.07,SE,132,15.0,15.0,69,0.00,,BKN027,0.00,VWS V14.01,2013-06-16 23:48:00,
2013-06-16 19:49:00,79.2,68.2,30.07,SE,136,16.0,17.0,69,0.00,,BKN027,0.00,VWS V14.01,2013-06-16 23:49:00,
2013-06-16 19:50:00,79.2,68.6,30.07,SSE,148,16.0,16.0,70,0.00,,CLR,0.00,VWS V14.01,2013-06-16 23:50:00,
2013-06-16 19:51:00,79.2,68.6,30.07,SE,146,11.0,14.0,70,0.00,,BKN027,0.00,VWS V14.01,2013-06-16 23:51:00,
2013-06-16 19:52:00,79.2,68.2,30.07,SE,128,14.0,16.0,69,0.00,,BKN027,0.00,VWS V14.01,2013-06-16 23:52:00,
2013-06-16 19:53:00,79.2,68.2,30.07,SE,144,13.0,16.0,69,0.00,,BKN027,0.00,VWS V14.01,2013-06-16 23:53:00,
2013-06-16 19:54:00,79.2,67.7,30.07,SE,134,15.0,15.0,68,0.00,,BKN027,0.00,VWS V14.01,2013-06-16 23:54:00,
2013-06-16 19:55:00,79.2,68.2,30.07,SE,146,13.0,15.0,69,0.00,,CLR,0.00,VWS V14.01,2013-06-16 23:55:00,
2013-06-16 19:56:00,79.2,68.2,30.07,SE,146,13.0,15.0,69,0.00,,BKN027,0.00,VWS V14.01,2013-06-16 23:56:00,
2013-06-16 19:57:00,79.2,68.6,30.07,SE,144,12.0,15.0,70,0.00,,BKN027,0.00,VWS V14.01,2013-06-16 23:57:00,
2013-06-16 19:58:00,79.2,68.6,30.07,SE,124,15.0,15.0,70,0.00,,BKN027,0.00,VWS V14.01,2013-06-16 23:58:00,
2013-06-16 19:59:00,79.2,69.0,30.07,SE,146,13.0,15.0,71,0.00,,BKN027,0.00,VWS V14.01,2013-06-16 23:59:00,
2013-06-16 20:00:00,79.0,68.4,30.07,SE,135,16.0,16.0,70,0.00,,CLR,0.00,VWS V14.01,2013-06-17 00:00:00,
2013-06-16 20:01:00,79.0,68.4,30.07,SE,135,16.0,16.0,70,0.00,,BKN027,0.00,VWS V14.01,2013-06-17 00:01:00,
2013-06-16 20:02:00,79.2,69.0,30.07,ESE,119,14.0,16.0,71,0.00,,BKN027,0.00,VWS V14.01,2013-06-17 00:02:00,
2013-06-16 20:03:00,79.2,68.2,30.07,SE,136,15.0,15.0,69,0.00,,BKN027,0.00,VWS V14.01,2013-06-17 00:03:00,
2013-06-16 20:04:00,79.0,68.4,30.07,SE,143,13.0,15.0,70,0.00,,BKN027,0.00,VWS V14.01,2013-06-17 00:04:00,
2013-06-16 20:05:00,79.0,68.4,30.06,SE,132,16.0,16.0,70,0.00,,CLR,0.00,VWS V14.01,2013-06-17 00:05:00,
2013-06-16 20:06:00,79.0,68.4,30.06,SE,132,16.0,16.0,70,0.00,,BKN027,0.00,VWS V14.01,2013-06-17 00:06:00,
2013-06-16 20:07:00,79.0,68.4,30.06,SE,133,16.0,16.0,70,0.00,,BKN027,0.00,VWS V14.01,2013-06-17 00:07:00,
2013-06-16 20:08:00,79.0,68.0,30.06,SE,137,11.0,16.0,69,0.00,,BKN027,0.00,VWS V14.01,2013-06-17 00:08:00,
2013-06-16 20:09:00,79.0,68.8,30.06,SE,127,15.0,16.0,71,0.00,,BKN027,0.00,VWS V14.01,2013-06-17 00:09:00,
2013-06-16 20:10:00,79.0,68.4,30.06,SE,142,14.0,15.0,70,0.00,,CLR,0.00,VWS V14.01,2013-06-17 00:10:00,
2013-06-16 20:11:00,79.0,68.4,30.06,SE,136,15.0,16.0,70,0.00,,BKN027,0.00,VWS V14.01,2013-06-17 00:11:00,
2013-06-16 20:12:00,78.8,67.4,30.06,SE,135,15.0,15.0,68,0.00,,BKN027,0.00,VWS V14.01,2013-06-17 00:12:00,
2013-06-16 20:13:00,79.0,68.4,30.06,SE,144,15.0,16.0,70,0.00,,BKN027,0.00,VWS V14.01,2013-06-17 00:13:00,
2013-06-16 20:14:00,79.0,68.0,30.06,SE,133,14.0,15.0,69,0.00,,BKN027,0.00,VWS V14.01,2013-06-17 00:14:00,
2013-06-16 20:15:00,79.0,68.0,30.06,SE,132,17.0,17.0,69,0.00,,CLR,0.00,VWS V14.01,2013-06-17 00:15:00,
2013-06-16 20:16:00,79.0,68.0,30.06,SSE,147,16.0,16.0,69,0.00,,BKN027,0.00,VWS V14.01,2013-06-17 00:16:00,
2013-06-16 20:17:00,79.0,68.8,30.06,SE,134,15.0,17.0,71,0.00,,BKN027,0.00,VWS V14.01,2013-06-17 00:17:00,
2013-06-16 20:18:00,79.0,68.4,30.06,SE,130,14.0,15.0,70,0.00,,BKN027,0.00,VWS V14.01,2013-06-17 00:18:00,
2013-06-16 20:19:00,79.0,68.8,30.06,SE,142,16.0,16.0,71,0.00,,BKN027,0.00,VWS V14.01,2013-06-17 00:19:00,
2013-06-16 20:20:00,78.8,67.8,30.06,SE,140,16.0,16.0,69,0.00,,CLR,0.00,VWS V14.01,2013-06-17 00:20:00,
2013-06-16 20:21:00,78.8,68.6,30.06,SE,144,14.0,16.0,71,0.00,,BKN027,0.00,VWS V14.01,2013-06-17 00:21:00,
2013-06-16 20:22:00,78.8,67.8,30.06,SE,137,15.0,16.0,69,0.00,,BKN027,0.00,VWS V14.01,2013-06-17 00:22:00,
2013-06-16 20:23:00,78.8,68.2,30.06,SE,134,15.0,15.0,70,0.00,,BKN027,0.00,VWS V14.01,2013-06-17 00:23:00,
2013-06-16 20:24:00,78.8,68.6,30.06,SE,140,17.0,17.0,71,0.00,,BKN027,0.00,VWS V14.01,2013-06-17 00:24:00,
2013-06-16 20:25:00,78.8,68.2,30.06,SE,124,15.0,15.0,70,0.00,,CLR,0.00,VWS V14.01,2013-06-17 00:25:00,
2013-06-16 20:26:00,78.8,67.8,30.06,ESE,122,15.0,15.0,69,0.00,,BKN027,0.00,VWS V14.01,2013-06-17 00:26:00,
2013-06-16 20:27:00,79.0,68.4,30.06,SE,132,15.0,15.0,70,0.00,,BKN027,0.00,VWS V14.01,2013-06-17 00:27:00,
2013-06-16 20:28:00,79.0,69.2,30.06,SE,135,17.0,17.0,72,0.00,,BKN027,0.00,VWS V14.01,2013-06-17 00:28:00,
2013-06-16 20:29:00,78.8,68.2,30.06,SSE,151,12.0,17.0,70,0.00,,BKN027,0.00,VWS V14.01,2013-06-17 00:29:00,
2013-06-16 20:30:00,78.8,68.2,30.06,SE,139,13.0,16.0,70,0.00,,CLR,0.00,VWS V14.01,2013-06-17 00:30:00,
2013-06-16 20:31:00,78.8,68.2,30.06,SE,139,13.0,16.0,70,0.00,,BKN027,0.00,VWS V14.01,2013-06-17 00:31:00,
2013-06-16 20:32:00,78.8,67.8,30.06,SE,139,16.0,16.0,69,0.00,,BKN027,0.00,VWS V14.01,2013-06-17 00:32:00,
2013-06-16 20:33:00,78.8,67.8,30.06,SE,129,15.0,17.0,69,0.00,,BKN027,0.00,VWS V14.01,2013-06-17 00:33:00,
2013-06-16 20:34:00,78.8,67.8,30.06,SE,138,15.0,17.0,69,0.00,,BKN027,0.00,VWS V14.01,2013-06-17 00:34:00,
2013-06-16 20:35:00,78.8,67.8,30.06,SE,145,14.0,16.0,69,0.00,,CLR,0.00,VWS V14.01,2013-06-17 00:35:00,
2013-06-16 20:36:00,78.8,67.8,30.06,SE,145,14.0,16.0,69,0.00,,BKN027,0.00,VWS V14.01,2013-06-17 00:36:00,
2013-06-16 20:37:00,79.0,69.2,30.06,ESE,114,16.0,18.0,72,0.00,,BKN027,0.00,VWS V14.01,2013-06-17 00:37:00,
2013-06-16 20:38:00,79.0,68.8,30.07,SE,139,16.0,18.0,71,0.00,,BKN027,0.00,VWS V14.01,2013-06-17 00:38:00,
2013-06-16 20:39:00,78.8,68.6,30.07,SE,140,15.0,16.0,71,0.00,,BKN027,0.00,VWS V14.01,2013-06-17 00:39:00,
2013-06-16 20:40:00,79.0,69.2,30.06,SE,136,17.0,17.0,72,0.00,,CLR,0.00,VWS V14.01,2013-06-17 00:40:00,
2013-06-16 20:41:00,79.0,69.2,30.06,SE,136,17.0,17.0,72,0.00,,BKN027,0.00,VWS V14.01,2013-06-17 00:41:00,
2013-06-16 20:42:00,79.0,68.4,30.06,SE,138,14.0,18.0,70,0.00,,BKN027,0.00,VWS V14.01,2013-06-17 00:42:00,
2013-06-16 20:43:00,78.8,68.2,30.06,SE,139,14.0,16.0,70,0.00,,BKN027,0.00,VWS V14.01,2013-06-17 00:43:00,
2013-06-16 20:44:00,79.0,69.2,30.06,SE,141,14.0,16.0,72,0.00,,BKN027,0.00,VWS V14.01,2013-06-17 00:44:00,
2013-06-16 20:45:00,79.0,68.4,30.06,SE,130,14.0,16.0,70,0.00,,CLR,0.00,VWS V14.01,2013-06-17 00:45:00,
2013-06-16 20:46:00,79.0,68.4,30.06,SE,130,14.0,16.0,70,0.00,,BKN027,0.00,VWS V14.01,2013-06-17 00:46:00,
2013-06-16 20:47:00,79.0,69.2,30.06,SE,144,15.0,17.0,72,0.00,,BKN027,0.00,VWS V14.01,2013-06-17 00:47:00,
2013-06-16 20:48:00,78.8,68.2,30.06,SE,124,14.0,16.0,70,0.00,,BKN027,0.00,VWS V14.01,2013-06-17 00:48:00,
2013-06-16 20:49:00,79.0,69.6,30.06,SSE,155,17.0,17.0,73,0.00,,BKN027,0.00,VWS V14.01,2013-06-17 00:49:00,
2013-06-16 20:50:00,78.8,68.2,30.06,SE,136,12.0,16.0,70,0.00,,CLR,0.00,VWS V14.01,2013-06-17 00:50:00,
2013-06-16 20:51:00,78.8,68.2,30.06,SE,139,16.0,17.0,70,0.00,,BKN027,0.00,VWS V14.01,2013-06-17 00:51:00,
2013-06-16 20:52:00,78.8,66.5,30.06,SE,142,14.0,16.0,66,0.00,,BKN027,0.00,VWS V14.01,2013-06-17 00:52:00,
2013-06-16 20:53:00,79.0,68.4,30.06,SE,132,17.0,17.0,70,0.00,,BKN027,0.00,VWS V14.01,2013-06-17 00:53:00,
2013-06-16 20:54:00,78.8,69.0,30.06,SE,124,17.0,17.0,72,0.00,,BKN027,0.00,VWS V14.01,2013-06-17 00:54:00,
2013-06-16 20:55:00,79.0,68.4,30.06,SE,140,19.0,19.0,70,0.00,,CLR,0.00,VWS V14.01,2013-06-17 00:55:00,
2013-06-16 20:56:00,79.0,68.4,30.06,SE,128,14.0,19.0,70,0.00,,BKN027,0.00,VWS V14.01,2013-06-17 00:56:00,
2013-06-16 20:57:00,79.0,68.8,30.06,SSE,150,14.0,19.0,71,0.00,,BKN027,0.00,VWS V14.01,2013-06-17 00:57:00,
2013-06-16 20:58:00,79.0,68.8,30.06,SE,139,15.0,15.0,71,0.00,,BKN027,0.00,VWS V14.01,2013-06-17 00:58:00,
2013-06-16 20:59:00,79.0,68.8,30.06,SSE,149,16.0,16.0,71,0.00,,BKN027,0.00,VWS V14.01,2013-06-17 00:59:00,
2013-06-16 21:00:00,79.0,68.4,30.06,SE,139,16.0,16.0,70,0.00,,CLR,0.00,VWS V14.01,2013-06-17 01:00:00,
2013-06-16 21:01:00,79.0,68.4,30.06,SSE,163,15.0,16.0,70,0.00,,BKN027,0.00,VWS V14.01,2013-06-17 01:01:00,
2013-06-16 21:02:00,79.0,69.2,30.06,SE,146,14.0,16.0,72,0.00,,BKN027,0.00,VWS V14.01,2013-06-17 01:02:00,
2013-06-16 21:03:00,79.0,69.2,30.06,SE,138,14.0,17.0,72,0.00,,BKN027,0.00,VWS V14.01,2013-06-17 01:03:00,
2013-06-16 21:04:00,79.0,69.2,30.06,SE,138,17.0,17.0,72,0.00,,BKN027,0.00,VWS V14.01,2013-06-17 01:04:00,
2013-06-16 21:05:00,79.0,68.8,30.06,SE,143,15.0,17.0,71,0.00,,CLR,0.00,VWS V14.01,2013-06-17 01:05:00,
2013-06-16 21:06:00,79.0,68.8,30.06,SE,143,15.0,17.0,71,0.00,,BKN027,0.00,VWS V14.01,2013-06-17 01:06:00,
2013-06-16 21:07:00,78.8,69.0,30.06,SE,124,17.0,17.0,72,0.00,,BKN027,0.00,VWS V14.01,2013-06-17 01:07:00,
2013-06-16 21:08:00,78.8,68.6,30.06,ESE,123,14.0,17.0,71,0.00,,BKN027,0.00,VWS V14.01,2013-06-17 01:08:00,
2013-06-16 21:09:00,78.8,68.6,30.06,SE,140,13.0,14.0,71,0.00,,BKN027,0.00,VWS V14.01,2013-06-17 01:09:00,
2013-06-16 21:10:00,79.0,69.2,30.06,SE,132,18.0,18.0,72,0.00,,CLR,0.00,VWS V14.01,2013-06-17 01:10:00,
2013-06-16 21:11:00,79.0,70.4,30.06,SSE,151,14.0,17.0,75,0.00,,BKN027,0.00,VWS V14.01,2013-06-17 01:11:00,
2013-06-16 21:12:00,78.8,69.0,30.06,SE,132,17.0,18.0,72,0.00,,BKN027,0.00,VWS V14.01,2013-06-17 01:12:00,
2013-06-16 21:13:00,78.8,69.0,30.06,SE,146,16.0,19.0,72,0.00,,BKN027,0.00,VWS V14.01,2013-06-17 01:13:00,
2013-06-16 21:14:00,78.8,68.6,30.06,SSE,157,15.0,16.0,71,0.00,,BKN027,0.00,VWS V14.01,2013-06-17 01:14:00,
2013-06-16 21:15:00,78.8,69.0,30.06,SE,137,17.0,17.0,72,0.00,,CLR,0.00,VWS V14.01,2013-06-17 01:15:00,
2013-06-16 21:16:00,78.8,69.0,30.06,SE,137,17.0,17.0,72,0.00,,BKN027,0.00,VWS V14.01,2013-06-17 01:16:00,
2013-06-16 21:17:00,78.8,69.0,30.06,SSE,152,15.0,17.0,72,0.00,,BKN027,0.00,VWS V14.01,2013-06-17 01:17:00,
2013-06-16 21:18:00,78.8,69.4,30.06,SSE,154,14.0,15.0,73,0.00,,BKN027,0.00,VWS V14.01,2013-06-17 01:18:00,
2013-06-16 21:19:00,78.8,69.4,30.05,ESE,123,17.0,17.0,73,0.00,,BKN027,0.00,VWS V14.01,2013-06-17 01:19:00,
2013-06-16 21:20:00,78.8,69.0,30.05,SE,134,19.0,21.0,72,0.00,,CLR,0.00,VWS V14.01,2013-06-17 01:20:00,
2013-06-16 21:21:00,78.8,69.0,30.05,SE,134,19.0,21.0,72,0.00,,BKN027,0.00,VWS V14.01,2013-06-17 01:21:00,
2013-06-16 21:22:00,78.8,69.0,30.05,SE,129,17.0,19.0,72,0.00,,BKN027,0.00,VWS V14.01,2013-06-17 01:22:00,
2013-06-16 21:23:00,78.8,69.0,30.05,SSE,147,14.0,19.0,72,0.00,,BKN027,0.00,VWS V14.01,2013-06-17 01:23:00,
2013-06-16 21:24:00,78.8,67.4,30.05,SE,134,17.0,17.0,68,0.00,,BKN027,0.00,VWS V14.01,2013-06-17 01:24:00,
2013-06-16 21:25:00,79.0,70.0,30.05,SSE,152,15.0,19.0,74,0.00,,CLR,0.00,VWS V14.01,2013-06-17 01:25:00,
2013-06-16 21:26:00,79.0,70.0,30.05,SSE,152,15.0,19.0,74,0.00,,BKN027,0.00,VWS V14.01,2013-06-17 01:26:00,
2013-06-16 21:27:00,78.8,69.0,30.06,SE,146,12.0,15.0,72,0.00,,BKN027,0.00,VWS V14.01,2013-06-17 01:27:00,
2013-06-16 21:28:00,78.8,69.0,30.06,SSE,148,15.0,17.0,72,0.00,,BKN027,0.00,VWS V14.01,2013-06-17 01:28:00,
2013-06-16 21:29:00,78.8,69.0,30.06,SE,145,14.0,15.0,72,0.00,,BKN027,0.00,VWS V14.01,2013-06-17 01:29:00,
2013-06-16 21:30:00,78.8,68.6,30.06,SSE,154,14.0,15.0,71,0.00,,CLR,0.00,VWS V14.01,2013-06-17 01:30:00,
2013-06-16 21:31:00,78.8,68.6,30.06,SSE,154,14.0,15.0,71,0.00,,BKN027,0.00,VWS V14.01,2013-06-17 01:31:00,
2013-06-16 21:32:00,78.8,68.6,30.06,SSE,159,11.0,15.0,71,0.00,,BKN027,0.00,VWS V14.01,2013-06-17 01:32:00,
2013-06-16 21:33:00,78.8,69.0,30.06,SE,144,14.0,17.0,72,0.00,,BKN027,0.00,VWS V14.01,2013-06-17 01:33:00,
2013-06-16 21:34:00,78.8,69.0,30.06,SE,143,14.0,14.0,72,0.00,,BKN027,0.00,VWS V14.01,2013-06-17 01:34:00,
2013-06-16 21:35:00,78.8,68.6,30.06,SE,138,19.0,19.0,71,0.00,,CLR,0.00,VWS V14.01,2013-06-17 01:35:00,
2013-06-16 21:36:00,78.8,68.6,30.06,SE,126,14.0,16.0,71,0.00,,BKN027,0.00,VWS V14.01,2013-06-17 01:36:00,
2013-06-16 21:37:00,78.8,69.0,30.06,SE,139,14.0,19.0,72,0.00,,BKN027,0.00,VWS V14.01,2013-06-17 01:37:00,
2013-06-16 21:38:00,78.8,69.0,30.06,SE,129,17.0,18.0,72,0.00,,BKN027,0.00,VWS V14.01,2013-06-17 01:38:00,
2013-06-16 21:39:00,78.8,68.6,30.06,SE,138,14.0,17.0,71,0.00,,BKN027,0.00,VWS V14.01,2013-06-17 01:39:00,
2013-06-16 21:40:00,78.8,69.0,30.06,SSE,157,16.0,16.0,72,0.00,,CLR,0.00,VWS V14.01,2013-06-17 01:40:00,
2013-06-16 21:41:00,78.8,69.0,30.06,SE,139,15.0,17.0,72,0.00,,BKN027,0.00,VWS V14.01,2013-06-17 01:41:00,
2013-06-16 21:42:00,78.8,69.8,30.06,SE,136,18.0,18.0,74,0.00,,BKN027,0.00,VWS V14.01,2013-06-17 01:42:00,
2013-06-16 21:43:00,78.8,69.4,30.06,SE,136,14.0,18.0,73,0.00,,BKN027,0.00,VWS V14.01,2013-06-17 01:43:00,
2013-06-16 21:44:00,78.8,69.4,30.05,SE,136,19.0,19.0,73,0.00,,BKN027,0.00,VWS V14.01,2013-06-17 01:44:00,
2013-06-16 21:45:00,78.8,70.2,30.06,SE,134,15.0,16.0,75,0.00,,CLR,0.00,VWS V14.01,2013-06-17 01:45:00,
2013-06-16 21:46:00,78.8,70.2,30.06,SE,129,16.0,17.0,75,0.00,,BKN027,0.00,VWS V14.01,2013-06-17 01:46:00,
2013-06-16 21:47:00,78.8,69.4,30.06,SE,130,18.0,18.0,73,0.00,,BKN027,0.00,VWS V14.01,2013-06-17 01:47:00,
2013-06-16 21:48:00,78.8,69.0,30.06,SE,133,14.0,18.0,72,0.00,,BKN027,0.00,VWS V14.01,2013-06-17 01:48:00,
2013-06-16 21:49:00,78.8,69.8,30.06,ESE,122,17.0,17.0,74,0.00,,BKN027,0.00,VWS V14.01,2013-06-17 01:49:00,
2013-06-16 21:50:00,78.6,68.8,30.06,ESE,119,13.0,18.0,72,0.00,,CLR,0.00,VWS V14.01,2013-06-17 01:50:00,
2013-06-16 21:51:00,78.6,68.8,30.06,ESE,119,13.0,18.0,72,0.00,,BKN027,0.00,VWS V14.01,2013-06-17 01:51:00,
2013-06-16 21:52:00,78.8,69.4,30.06,SSE,150,14.0,14.0,73,0.00,,BKN027,0.00,VWS V14.01,2013-06-17 01:52:00,
2013-06-16 21:53:00,78.8,70.2,30.06,SE,137,12.0,15.0,75,0.00,,BKN027,0.00,VWS V14.01,2013-06-17 01:53:00,
2013-06-16 21:54:00,78.8,69.4,30.06,SE,130,14.0,17.0,73,0.00,,BKN027,0.00,VWS V14.01,2013-06-17 01:54:00,
2013-06-16 21:55:00,78.8,69.8,30.06,SE,139,14.0,17.0,74,0.00,,CLR,0.00,VWS V14.01,2013-06-17 01:55:00,
2013-06-16 21:56:00,78.8,69.8,30.06,SE,139,14.0,17.0,74,0.00,,BKN027,0.00,VWS V14.01,2013-06-17 01:56:00,
2013-06-16 21:57:00,78.8,70.2,30.06,SE,141,15.0,18.0,75,0.00,,BKN027,0.00,VWS V14.01,2013-06-17 01:57:00,
2013-06-16 21:58:00,78.8,70.2,30.06,SE,137,15.0,16.0,75,0.00,,BKN027,0.00,VWS V14.01,2013-06-17 01:58:00,
2013-06-16 21:59:00,78.8,69.4,30.06,SE,146,15.0,16.0,73,0.00,,BKN027,0.00,VWS V14.01,2013-06-17 01:59:00,
2013-06-16 22:00:00,78.8,69.8,30.06,SE,132,15.0,16.0,74,0.00,,CLR,0.00,VWS V14.01,2013-06-17 02:00:00,
2013-06-16 22:01:00,78.8,69.8,30.06,SE,132,15.0,16.0,74,0.00,,BKN027,0.00,VWS V14.01,2013-06-17 02:01:00,
2013-06-16 22:02:00,78.8,69.8,30.06,SE,128,14.0,15.0,74,0.00,,BKN027,0.00,VWS V14.01,2013-06-17 02:02:00,
2013-06-16 22:03:00,78.8,69.8,30.06,SE,136,18.0,18.0,74,0.00,,BKN027,0.00,VWS V14.01,2013-06-17 02:03:00,
2013-06-16 22:04:00,78.6,68.8,30.06,SE,130,16.0,18.0,72,0.00,,BKN027,0.00,VWS V14.01,2013-06-17 02:04:00,
2013-06-16 22:05:00,78.8,69.8,30.06,SE,142,14.0,14.0,74,0.00,,CLR,0.00,VWS V14.01,2013-06-17 02:05:00,
2013-06-16 22:06:00,78.6,69.6,30.06,SSE,154,12.0,13.0,74,0.00,,BKN027,0.00,VWS V14.01,2013-06-17 02:06:00,
2013-06-16 22:07:00,78.6,69.2,30.06,SE,144,13.0,14.0,73,0.00,,BKN027,0.00,VWS V14.01,2013-06-17 02:07:00,
2013-06-16 22:08:00,78.6,69.6,30.06,SE,133,17.0,17.0,74,0.00,,BKN027,0.00,VWS V14.01,2013-06-17 02:08:00,
2013-06-16 22:09:00,78.6,69.6,30.06,SE,139,16.0,17.0,74,0.00,,BKN027,0.00,VWS V14.01,2013-06-17 02:09:00,
2013-06-16 22:10:00,78.6,69.6,30.06,SE,145,15.0,15.0,74,0.00,,CLR,0.00,VWS V14.01,2013-06-17 02:10:00,
2013-06-16 22:11:00,78.6,69.6,30.06,SE,142,14.0,17.0,74,0.00,,BKN027,0.00,VWS V14.01,2013-06-17 02:11:00,
2013-06-16 22:12:00,78.6,69.2,30.06,SSE,159,13.0,15.0,73,0.00,,BKN027,0.00,VWS V14.01,2013-06-17 02:12:00,
2013-06-16 22:13:00,78.6,69.6,30.06,SE,138,15.0,16.0,74,0.00,,BKN027,0.00,VWS V14.01,2013-06-17 02:13:00,
2013-06-16 22:14:00,78.6,69.2,30.06,SE,137,13.0,15.0,73,0.00,,BKN027,0.00,VWS V14.01,2013-06-17 02:14:00,
2013-06-16 22:15:00,78.6,69.6,30.06,SSE,152,14.0,16.0,74,0.00,,CLR,0.00,VWS V14.01,2013-06-17 02:15:00,
2013-06-16 22:16:00,78.6,69.6,30.06,SSE,152,14.0,16.0,74,0.00,,BKN027,0.00,VWS V14.01,2013-06-17 02:16:00,
2013-06-16 22:17:00,78.6,69.2,30.07,SE,143,13.0,14.0,73,0.00,,BKN027,0.00,VWS V14.01,2013-06-17 02:17:00,
2013-06-16 22:18:00,78.6,68.8,30.07,SSE,162,12.0,15.0,72,0.00,,BKN027,0.00,VWS V14.01,2013-06-17 02:18:00,
2013-06-16 22:19:00,78.6,68.8,30.07,SSE,154,14.0,16.0,72,0.00,,BKN027,0.00,VWS V14.01,2013-06-17 02:19:00,
2013-06-16 22:20:00,78.6,69.6,30.07,SSE,165,16.0,16.0,74,0.00,,CLR,0.00,VWS V14.01,2013-06-17 02:20:00,
2013-06-16 22:21:00,78.6,69.6,30.07,SSE,165,16.0,16.0,74,0.00,,BKN027,0.00,VWS V14.01,2013-06-17 02:21:00,
2013-06-16 22:22:00,78.6,69.2,30.07,SSE,153,16.0,16.0,73,0.00,,BKN027,0.00,VWS V14.01,2013-06-17 02:22:00,
2013-06-16 22:23:00,78.6,69.6,30.07,SSE,163,15.0,18.0,74,0.00,,BKN027,0.00,VWS V14.01,2013-06-17 02:23:00,
2013-06-16 22:24:00,78.6,69.2,30.07,SE,139,11.0,17.0,73,0.00,,BKN027,0.00,VWS V14.01,2013-06-17 02:24:00,
2013-06-16 22:25:00,78.6,69.2,30.07,SSE,152,14.0,14.0,73,0.00,,CLR,0.00,VWS V14.01,2013-06-17 02:25:00,
2013-06-16 22:26:00,78.6,69.2,30.07,SSE,152,14.0,14.0,73,0.00,,BKN027,0.00,VWS V14.01,2013-06-17 02:26:00,
2013-06-16 22:27:00,78.6,69.2,30.07,SSE,150,14.0,16.0,73,0.00,,BKN027,0.00,VWS V14.01,2013-06-17 02:27:00,
2013-06-16 22:28:00,78.6,68.8,30.07,SSE,163,14.0,15.0,72,0.00,,BKN027,0.00,VWS V14.01,2013-06-17 02:28:00,
2013-06-16 22:29:00,78.6,69.2,30.07,SE,140,16.0,16.0,73,0.00,,BKN027,0.00,VWS V14.01,2013-06-17 02:29:00,
2013-06-16 22:30:00,78.6,69.6,30.07,SSE,147,14.0,14.0,74,0.00,,CLR,0.00,VWS V14.01,2013-06-17 02:30:00,
2013-06-16 22:31:00,78.6,69.6,30.07,SSE,147,14.0,14.0,74,0.00,,BKN027,0.00,VWS V14.01,2013-06-17 02:31:00,
2013-06-16 22:32:00,78.6,69.6,30.07,SSE,151,16.0,16.0,74,0.00,,BKN027,0.00,VWS V14.01,2013-06-17 02:32:00,
2013-06-16 22:33:00,78.6,69.6,30.07,SE,146,15.0,17.0,74,0.00,,BKN027,0.00,VWS V14.01,2013-06-17 02:33:00,
2013-06-16 22:34:00,78.6,69.6,30.07,SE,138,16.0,16.0,74,0.00,,BKN027,0.00,VWS V14.01,2013-06-17 02:34:00,
2013-06-16 22:35:00,78.6,70.0,30.07,SSE,154,12.0,15.0,75,0.00,,CLR,0.00,VWS V14.01,2013-06-17 02:35:00,
2013-06-16 22:36:00,78.6,70.0,30.07,SSE,154,12.0,15.0,75,0.00,,BKN027,0.00,VWS V14.01,2013-06-17 02:36:00,
2013-06-16 22:37:00,78.6,69.6,30.07,SSE,152,13.0,14.0,74,0.00,,BKN027,0.00,VWS V14.01,2013-06-17 02:37:00,
2013-06-16 22:38:00,78.6,69.2,30.07,SSE,150,10.0,14.0,73,0.00,,BKN027,0.00,VWS V14.01,2013-06-17 02:38:00,
2013-06-16 22:39:00,78.6,68.4,30.07,South,173,13.0,14.0,71,0.00,,BKN027,0.00,VWS V14.01,2013-06-17 02:39:00,
2013-06-16 22:40:00,78.6,69.2,30.07,SSE,153,13.0,13.0,73,0.00,,CLR,0.00,VWS V14.01,2013-06-17 02:40:00,
2013-06-16 22:41:00,78.6,69.2,30.07,SSE,153,13.0,13.0,73,0.00,,BKN027,0.00,VWS V14.01,2013-06-17 02:41:00,
2013-06-16 22:42:00,78.6,69.6,30.07,SSE,167,11.0,13.0,74,0.00,,BKN027,0.00,VWS V14.01,2013-06-17 02:42:00,
2013-06-16 22:43:00,78.6,69.6,30.07,SSE,162,10.0,11.0,74,0.00,,BKN027,0.00,VWS V14.01,2013-06-17 02:43:00,
2013-06-16 22:44:00,78.6,69.6,30.07,SSE,155,13.0,13.0,74,0.00,,BKN027,0.00,VWS V14.01,2013-06-17 02:44:00,
2013-06-16 22:45:00,78.6,69.2,30.07,SE,140,13.0,13.0,73,0.00,,CLR,0.00,VWS V14.01,2013-06-17 02:45:00,
2013-06-16 22:46:00,78.6,69.6,30.07,SE,139,13.0,15.0,74,0.00,,BKN027,0.00,VWS V14.01,2013-06-17 02:46:00,
2013-06-16 22:47:00,78.6,69.2,30.07,SSE,153,13.0,15.0,73,0.00,,BKN027,0.00,VWS V14.01,2013-06-17 02:47:00,
2013-06-16 22:48:00,78.6,69.2,30.07,SSE,159,13.0,15.0,73,0.00,,BKN027,0.00,VWS V14.01,2013-06-17 02:48:00,
2013-06-16 22:49:00,78.6,69.2,30.07,SSE,148,13.0,15.0,73,0.00,,BKN027,0.00,VWS V14.01,2013-06-17 02:49:00,
2013-06-16 22:50:00,78.6,69.6,30.07,SSE,150,13.0,14.0,74,0.00,,CLR,0.00,VWS V14.01,2013-06-17 02:50:00,
2013-06-16 22:51:00,78.6,69.6,30.07,SSE,150,13.0,14.0,74,0.00,,BKN027,0.00,VWS V14.01,2013-06-17 02:51:00,
2013-06-16 22:52:00,78.6,69.6,30.07,SSE,163,14.0,14.0,74,0.00,,BKN027,0.00,VWS V14.01,2013-06-17 02:52:00,
2013-06-16 22:53:00,78.6,69.2,30.07,SSE,150,12.0,15.0,73,0.00,,BKN027,0.00,VWS V14.01,2013-06-17 02:53:00,
2013-06-16 22:54:00,78.6,69.2,30.07,SSE,155,11.0,14.0,73,0.00,,BKN027,0.00,VWS V14.01,2013-06-17 02:54:00,
2013-06-16 22:55:00,78.6,69.6,30.07,SE,138,13.0,14.0,74,0.00,,CLR,0.00,VWS V14.01,2013-06-17 02:55:00,
2013-06-16 22:56:00,78.6,69.6,30.07,SE,138,13.0,14.0,74,0.00,,BKN027,0.00,VWS V14.01,2013-06-17 02:56:00,
2013-06-16 22:57:00,78.6,69.6,30.07,SSE,157,14.0,14.0,74,0.00,,BKN027,0.00,VWS V14.01,2013-06-17 02:57:00,
2013-06-16 22:58:00,78.6,69.6,30.07,SE,138,13.0,14.0,74,0.00,,BKN027,0.00,VWS V14.01,2013-06-17 02:58:00,
2013-06-16 22:59:00,78.6,70.4,30.07,SSE,159,13.0,14.0,76,0.00,,BKN027,0.00,VWS V14.01,2013-06-17 02:59:00,
2013-06-16 23:00:00,78.6,68.8,30.08,SSE,150,10.0,14.0,72,0.00,,CLR,0.00,VWS V14.01,2013-06-17 03:00:00,
2013-06-16 23:01:00,78.6,68.8,30.08,SSE,150,10.0,14.0,72,0.00,,BKN027,0.00,VWS V14.01,2013-06-17 03:01:00,
2013-06-16 23:02:00,78.6,68.8,30.08,SSE,163,11.0,13.0,72,0.00,,BKN027,0.00,VWS V14.01,2013-06-17 03:02:00,
2013-06-16 23:03:00,78.6,68.8,30.08,SSE,165,12.0,12.0,72,0.00,,BKN027,0.00,VWS V14.01,2013-06-17 03:03:00,
2013-06-16 23:04:00,78.6,68.8,30.08,SSE,160,11.0,14.0,72,0.00,,BKN027,0.00,VWS V14.01,2013-06-17 03:04:00,
2013-06-16 23:05:00,78.6,69.2,30.08,SSE,148,12.0,13.0,73,0.00,,CLR,0.00,VWS V14.01,2013-06-17 03:05:00,
2013-06-16 23:06:00,78.6,69.2,30.08,SSE,148,12.0,13.0,73,0.00,,BKN027,0.00,VWS V14.01,2013-06-17 03:06:00,
2013-06-16 23:07:00,78.6,69.6,30.08,SSE,149,11.0,12.0,74,0.00,,BKN027,0.00,VWS V14.01,2013-06-17 03:07:00,
2013-06-16 23:08:00,78.6,69.6,30.08,South,180,11.0,13.0,74,0.00,,BKN027,0.00,VWS V14.01,2013-06-17 03:08:00,
2013-06-16 23:09:00,78.6,70.0,30.08,SSE,150,14.0,14.0,75,0.00,,BKN027,0.00,VWS V14.01,2013-06-17 03:09:00,
2013-06-16 23:10:00,78.6,70.0,30.08,SSE,155,12.0,14.0,75,0.00,,CLR,0.00,VWS V14.01,2013-06-17 03:10:00,
2013-06-16 23:11:00,78.6,70.0,30.08,SSE,155,12.0,14.0,75,0.00,,BKN027,0.00,VWS V14.01,2013-06-17 03:11:00,
2013-06-16 23:12:00,78.6,70.0,30.08,SSE,154,13.0,14.0,75,0.00,,BKN027,0.00,VWS V14.01,2013-06-17 03:12:00,
2013-06-16 23:13:00,78.6,70.0,30.08,SSE,151,15.0,15.0,75,0.00,,BKN027,0.00,VWS V14.01,2013-06-17 03:13:00,
2013-06-16 23:14:00,78.6,69.6,30.08,SSE,148,13.0,15.0,74,0.00,,BKN027,0.00,VWS V14.01,2013-06-17 03:14:00,
2013-06-16 23:15:00,78.6,70.0,30.08,SE,145,9.0,11.0,75,0.00,,CLR,0.00,VWS V14.01,2013-06-17 03:15:00,
2013-06-16 23:16:00,78.6,70.0,30.08,SE,141,11.0,15.0,75,0.00,,BKN027,0.00,VWS V14.01,2013-06-17 03:16:00,
2013-06-16 23:17:00,78.6,70.0,30.08,SSE,148,13.0,13.0,75,0.00,,BKN027,0.00,VWS V14.01,2013-06-17 03:17:00,
2013-06-16 23:18:00,78.5,69.9,30.08,SE,137,12.0,14.0,75,0.00,,BKN027,0.00,VWS V14.01,2013-06-17 03:18:00,
2013-06-16 23:19:00,78.6,69.6,30.08,SSE,156,11.0,12.0,74,0.00,,BKN027,0.00,VWS V14.01,2013-06-17 03:19:00,
2013-06-16 23:20:00,78.6,69.6,30.08,SSE,168,13.0,13.0,74,0.00,,CLR,0.00,VWS V14.01,2013-06-17 03:20:00,
2013-06-16 23:21:00,78.6,69.6,30.08,SSE,163,7.0,14.0,74,0.00,,BKN027,0.00,VWS V14.01,2013-06-17 03:21:00,
2013-06-16 23:22:00,78.5,69.5,30.08,SSE,168,13.0,13.0,74,0.00,,BKN027,0.00,VWS V14.01,2013-06-17 03:22:00,
2013-06-16 23:23:00,78.6,69.6,30.08,SSE,155,10.0,13.0,74,0.00,,BKN027,0.00,VWS V14.01,2013-06-17 03:23:00,
2013-06-16 23:24:00,78.5,69.1,30.08,SE,145,11.0,12.0,73,0.00,,BKN027,0.00,VWS V14.01,2013-06-17 03:24:00,
2013-06-16 23:25:00,78.6,69.2,30.08,SSE,163,11.0,14.0,73,0.00,,CLR,0.00,VWS V14.01,2013-06-17 03:25:00,
2013-06-16 23:26:00,78.6,69.2,30.08,SSE,163,11.0,14.0,73,0.00,,BKN027,0.00,VWS V14.01,2013-06-17 03:26:00,
2013-06-16 23:27:00,78.6,69.2,30.08,South,176,10.0,14.0,73,0.00,,BKN027,0.00,VWS V14.01,2013-06-17 03:27:00,
2013-06-16 23:28:00,78.6,69.2,30.08,SSE,168,13.0,13.0,73,0.00,,BKN027,0.00,VWS V14.01,2013-06-17 03:28:00,
2013-06-16 23:29:00,78.5,69.1,30.08,South,169,13.0,13.0,73,0.00,,BKN027,0.00,VWS V14.01,2013-06-17 03:29:00,
2013-06-16 23:30:00,78.6,68.4,30.08,South,171,13.0,13.0,71,0.00,,CLR,0.00,VWS V14.01,2013-06-17 03:30:00,
2013-06-16 23:31:00,78.6,68.4,30.08,South,171,13.0,13.0,71,0.00,,BKN027,0.00,VWS V14.01,2013-06-17 03:31:00,
2013-06-16 23:32:00,78.6,68.8,30.08,SSE,167,11.0,14.0,72,0.00,,BKN027,0.00,VWS V14.01,2013-06-17 03:32:00,
2013-06-16 23:33:00,78.6,69.2,30.08,SSE,155,14.0,14.0,73,0.00,,BKN027,0.00,VWS V14.01,2013-06-17 03:33:00,
2013-06-16 23:34:00,78.6,69.2,30.08,South,175,11.0,14.0,73,0.00,,BKN027,0.00,VWS V14.01,2013-06-17 03:34:00,
2013-06-16 23:35:00,78.6,68.8,30.08,SSE,159,15.0,15.0,72,0.00,,CLR,0.00,VWS V14.01,2013-06-17 03:35:00,
2013-06-16 23:36:00,78.6,68.8,30.08,SSE,159,15.0,15.0,72,0.00,,BKN027,0.00,VWS V14.01,2013-06-17 03:36:00,
2013-06-16 23:37:00,78.6,68.4,30.08,SSE,153,11.0,15.0,71,0.00,,BKN027,0.00,VWS V14.01,2013-06-17 03:37:00,
2013-06-16 23:38:00,78.6,69.6,30.08,SSE,163,14.0,16.0,74,0.00,,BKN027,0.00,VWS V14.01,2013-06-17 03:38:00,
2013-06-16 23:39:00,78.6,68.4,30.08,SSE,159,11.0,14.0,71,0.00,,BKN027,0.00,VWS V14.01,2013-06-17 03:39:00,
2013-06-16 23:40:00,78.6,69.2,30.08,South,171,14.0,14.0,73,0.00,,CLR,0.00,VWS V14.01,2013-06-17 03:40:00,
2013-06-16 23:41:00,78.6,69.2,30.08,South,172,12.0,13.0,73,0.00,,BKN027,0.00,VWS V14.01,2013-06-17 03:41:00,
2013-06-16 23:42:00,78.6,69.2,30.08,SSE,165,12.0,14.0,73,0.00,,BKN027,0.00,VWS V14.01,2013-06-17 03:42:00,
2013-06-16 23:43:00,78.6,69.2,30.08,South,179,11.0,12.0,73,0.00,,BKN027,0.00,VWS V14.01,2013-06-17 03:43:00,
2013-06-16 23:44:00,78.6,69.2,30.08,South,186,13.0,13.0,73,0.00,,BKN027,0.00,VWS V14.01,2013-06-17 03:44:00,
2013-06-16 23:45:00,78.6,69.6,30.08,South,176,14.0,14.0,74,0.00,,CLR,0.00,VWS V14.01,2013-06-17 03:45:00,
2013-06-16 23:46:00,78.6,69.6,30.08,South,176,14.0,14.0,74,0.00,,BKN027,0.00,VWS V14.01,2013-06-17 03:46:00,
2013-06-16 23:47:00,78.6,69.6,30.08,South,183,10.0,14.0,74,0.00,,BKN027,0.00,VWS V14.01,2013-06-17 03:47:00,
2013-06-16 23:48:00,78.6,69.6,30.08,South,171,12.0,16.0,74,0.00,,BKN027,0.00,VWS V14.01,2013-06-17 03:48:00,
2013-06-16 23:49:00,78.5,69.1,30.08,SSE,165,9.0,12.0,73,0.00,,BKN027,0.00,VWS V14.01,2013-06-17 03:49:00,
2013-06-16 23:50:00,78.6,69.2,30.08,SSE,155,11.0,15.0,73,0.00,,CLR,0.00,VWS V14.01,2013-06-17 03:50:00,
2013-06-16 23:51:00,78.6,69.2,30.08,SSE,155,11.0,15.0,73,0.00,,BKN027,0.00,VWS V14.01,2013-06-17 03:51:00,
2013-06-16 23:52:00,78.6,69.2,30.08,SSE,163,13.0,13.0,73,0.00,,BKN027,0.00,VWS V14.01,2013-06-17 03:52:00,
2013-06-16 23:53:00,78.6,69.6,30.08,SSE,153,13.0,14.0,74,0.00,,BKN027,0.00,VWS V14.01,2013-06-17 03:53:00,
2013-06-16 23:54:00,78.6,69.6,30.08,SSE,148,12.0,13.0,74,0.00,,BKN027,0.00,VWS V14.01,2013-06-17 03:54:00,
2013-06-16 23:55:00,78.6,70.0,30.08,SSE,168,9.0,13.0,75,0.00,,CLR,0.00,VWS V14.01,2013-06-17 03:55:00,
2013-06-16 23:56:00,78.6,70.0,30.08,SSE,168,9.0,13.0,75,0.00,,BKN027,0.00,VWS V14.01,2013-06-17 03:56:00,
2013-06-16 23:57:00,78.6,69.6,30.08,SSE,163,13.0,13.0,74,0.00,,BKN027,0.00,VWS V14.01,2013-06-17 03:57:00,
2013-06-16 23:58:00,78.6,69.6,30.08,SSE,155,11.0,13.0,74,0.00,,BKN027,0.00,VWS V14.01,2013-06-17 03:58:00,
2013-06-16 23:59:00,78.6,69.6,30.07,SSE,155,11.0,14.0,74,0.00,,BKN027,0.00,VWS V14.01,2013-06-17 03:59:00,